[[{"header":{"parameterUnit":"m.s-1","parameterCategory":1,"la1":30.6,"la2":29.2853,"lo1":-89.7004,"lo2":-87.6739,"dy":0.0162,"dx":0.0183,"nx":112,"ny":82,"refTime":"2024-06-16T18:00:00:Z","depth":0,"parameterNumber":2,"parameterNumberName":"U-component_of_WINDS"},"data":[0.0,0.0,0.0,0.0,0.0,0.0,0.0,0.0,0.0,0.0,0.0,0.0,0.0,0.0,0.0,0.0,0.0,0.0,0.0,0.0,0.0,0.0,0.0,0.0,0.0,0.0,0.0,0.0,0.0,0.0,0.0,0.0,0.0,0.0,0.0,0.0,0.0,0.0,0.0,0.0,0.0,0.0,0.0,0.0,0.0,0.0,0.0,0.0,0.0,0.0,0.0,0.0,0.0,0.0,0.0,0.0,0.0,0.0,0.0,0.0,0.0,0.0,0.0,0.0,0.0,0.0,0.0,0.0,0.0,0.0,0.0,0.0,0.0,0.0,0.0,0.0,0.0,0.0,0.0,0.0,0.0,0.0,0.0,0.0,0.0,0.0,0.0,0.0,0.0,0.0,-0.3897,-0.3917,-0.3455,-0.3089,-0.3016,-0.3001,-0.3212,-0.3795,0.0,0.0,0.0,0.0,0.0,0.0,0.0,0.0,0.0,0.0,0.0,0.0,0.0,0.0,0.0,0.0,0.0,0.0,0.0,0.0,0.0,0.0,0.0,0.0,0.0,0.0,0.0,0.0,0.0,0.0,0.0,0.0,0.0,0.0,0.0,0.0,0.0,0.0,0.0,0.0,0.0,0.0,0.0,0.0,0.0,0.0,0.0,0.0,0.0,0.0,0.0,0.0,0.0,0.0,0.0,0.0,0.0,0.0,0.0,0.0,0.0,0.0,0.0,0.0,0.0,0.0,0.0,0.0,0.0,0.0,0.0,0.0,0.0,0.0,0.0,0.0,0.0,0.0,0.0,0.0,0.0,0.0,0.0,0.0,0.0,0.0,0.0,0.0,0.0,0.0,0.0,0.0,0.0,0.0,0.0,0.0,0.0,0.0,0.0,0.0,0.0,0.0,0.0,0.0,-0.3724,-0.3197,-0.312,-0.3099,-0.3093,-0.2975,-0.3171,-0.3831,0.0,0.0,0.0,0.0,0.0,0.0,0.0,0.0,0.0,0.0,0.0,0.0,0.0,0.0,0.0,0.0,0.0,0.0,0.0,0.0,0.0,0.0,0.0,0.0,0.0,0.0,0.0,0.0,0.0,0.0,0.0,0.0,0.0,0.0,0.0,0.0,0.0,0.0,0.0,0.0,0.0,0.0,0.0,0.0,0.0,0.0,0.0,0.0,0.0,0.0,0.0,0.0,0.0,0.0,0.0,0.0,0.0,0.0,0.0,0.0,0.0,0.0,0.0,0.0,0.0,0.0,0.0,0.0,0.0,0.0,0.0,0.0,0.0,0.0,0.0,0.0,0.0,0.0,0.0,0.0,0.0,0.0,0.0,0.0,0.0,0.0,0.0,0.0,0.0,0.0,0.0,0.0,0.0,0.0,0.0,0.0,0.0,0.0,0.0,0.0,0.0,0.0,0.0,-0.3802,-0.3287,-0.3061,-0.3078,-0.3077,-0.3077,-0.2994,-0.3049,-0.3251,-0.3541,0.0,0.0,0.0,0.0,0.0,0.0,0.0,0.0,0.0,0.0,0.0,0.0,0.0,0.0,0.0,0.0,0.0,0.0,0.0,0.0,0.0,0.0,0.0,0.0,0.0,0.0,0.0,0.0,0.0,0.0,0.0,0.0,0.0,0.0,0.0,0.0,0.0,0.0,0.0,0.0,0.0,0.0,0.0,0.0,0.0,0.0,0.0,0.0,0.0,0.0,0.0,0.0,0.0,0.0,0.0,0.0,0.0,0.0,0.0,0.0,0.0,0.0,0.0,0.0,0.0,0.0,0.0,0.0,0.0,0.0,0.0,0.0,0.0,0.0,0.0,0.0,0.0,0.0,0.0,0.0,0.0,0.0,0.0,0.0,0.0,0.0,0.0,0.0,0.0,0.0,0.0,0.0,0.0,0.0,0.0,0.0,0.0,0.0,0.0,0.0,0.0,0.0,-0.2941,-0.2998,-0.308,-0.3115,-0.3097,-0.3097,-0.2995,-0.304,-0.3208,-0.3598,0.0,0.0,0.0,0.0,0.0,0.0,0.0,0.0,0.0,0.0,0.0,0.0,0.0,0.0,0.0,0.0,0.0,0.0,0.0,0.0,0.0,0.0,0.0,0.0,0.0,0.0,0.0,0.0,0.0,0.0,0.0,0.0,0.0,0.0,0.0,0.0,0.0,0.0,0.0,0.0,0.0,0.0,0.0,0.0,0.0,0.0,0.0,0.0,0.0,0.0,0.0,0.0,0.0,0.0,0.0,0.0,0.0,0.0,0.0,0.0,0.0,0.0,0.0,0.0,0.0,0.0,0.0,0.0,0.0,0.0,0.0,0.0,0.0,0.0,0.0,0.0,0.0,0.0,0.0,0.0,0.0,0.0,0.0,0.0,0.0,0.0,0.0,0.0,0.0,0.0,0.0,0.0,0.0,0.0,0.0,0.0,0.0,0.0,0.0,0.0,0.0,0.0,-0.2958,-0.3069,-0.3087,-0.3115,-0.3097,-0.3097,-0.2938,-0.3407,-0.4764,-0.4569,0.0,0.0,0.0,0.0,0.0,0.0,0.0,0.0,0.0,0.0,0.0,0.0,0.0,0.0,0.0,0.0,0.0,0.0,0.0,0.0,0.0,0.0,0.0,0.0,0.0,0.0,0.0,0.0,0.0,0.0,0.0,0.0,0.0,0.0,0.0,0.0,0.0,0.0,0.0,0.0,0.0,0.0,0.0,0.0,0.0,0.0,0.0,0.0,0.0,0.0,0.0,0.0,0.0,0.0,0.0,0.0,0.0,0.0,0.0,0.0,0.0,0.0,0.0,0.0,0.0,0.0,0.0,0.0,0.0,0.0,0.0,0.0,0.0,0.0,0.0,0.0,0.0,0.0,0.0,0.0,0.0,0.0,0.0,0.0,0.0,0.0,0.0,0.0,0.0,0.0,0.0,0.0,0.0,0.0,0.0,0.0,0.0,0.0,0.0,0.0,0.0,0.0,-0.2965,-0.3069,-0.3135,-0.3105,-0.3077,-0.3077,-0.2994,-0.3116,-0.3546,0.0,0.0,0.0,0.0,0.0,0.0,0.0,0.0,0.0,0.0,0.0,0.0,0.0,0.0,0.0,0.0,0.0,0.0,0.0,0.0,0.0,0.0,0.0,0.0,0.0,0.0,0.0,0.0,0.0,0.0,0.0,0.0,0.0,0.0,0.0,0.0,0.0,0.0,0.0,0.0,0.0,0.0,0.0,0.0,0.0,0.0,0.0,0.0,0.0,0.0,0.0,0.0,0.0,0.0,0.0,0.0,0.0,0.0,0.0,0.0,0.0,0.0,0.0,0.0,0.0,0.0,0.0,0.0,0.0,0.0,0.0,0.0,0.0,0.0,0.0,0.0,0.0,0.0,0.0,0.0,0.0,0.0,0.0,0.0,0.0,0.0,0.0,0.0,0.0,0.0,0.0,0.0,0.0,0.0,0.0,0.0,0.0,0.0,0.0,0.0,0.0,0.0,-0.2889,-0.2995,-0.3096,-0.3167,-0.3136,-0.3104,-0.3095,-0.3014,-0.2998,-0.3082,0.0,0.0,0.0,0.0,0.0,0.0,0.0,0.0,0.0,0.0,0.0,0.0,0.0,0.0,0.0,0.0,0.0,0.0,0.0,0.0,0.0,0.0,0.0,0.0,0.0,0.0,0.0,0.0,0.0,0.0,0.0,0.0,0.0,0.0,0.0,0.0,0.0,0.0,0.0,0.0,0.0,0.0,0.0,0.0,0.0,0.0,0.0,0.0,0.0,0.0,0.0,0.0,0.0,0.0,0.0,0.0,0.0,0.0,0.0,0.0,0.0,0.0,0.0,0.0,0.0,0.0,0.0,0.0,0.0,0.0,0.0,0.0,0.0,0.0,0.0,0.0,0.0,0.0,0.0,0.0,0.0,0.0,0.0,0.0,0.0,0.0,0.0,0.0,0.0,0.0,0.0,0.0,0.0,0.0,0.0,0.0,0.0,0.0,0.0,0.0,0.0,0.0,-0.2897,-0.3001,-0.3116,-0.3174,-0.3205,-0.3176,-0.3096,-0.2979,-0.3175,0.0,0.0,0.0,0.0,0.0,0.0,0.0,0.0,0.0,0.0,0.0,0.0,0.0,0.0,0.0,0.0,0.0,0.0,0.0,0.0,0.0,0.0,0.0,0.0,0.0,0.0,0.0,0.0,0.0,0.0,0.0,0.0,0.0,0.0,0.0,0.0,0.0,0.0,0.0,0.0,0.0,0.0,0.0,0.0,0.0,0.0,0.0,0.0,0.0,0.0,0.0,0.0,0.0,0.0,0.0,0.0,0.0,0.0,0.0,0.0,0.0,0.0,0.0,0.0,0.0,0.0,0.0,0.0,0.0,0.0,0.0,0.0,0.0,0.0,0.0,0.0,0.0,0.0,0.0,0.0,0.0,0.0,0.0,0.0,0.0,0.0,0.0,0.0,0.0,0.0,0.0,0.0,0.0,0.0,0.0,0.0,0.0,0.0,0.0,0.0,0.0,0.0,0.0,-0.29,-0.3067,-0.3189,-0.3176,-0.3205,-0.3176,-0.3096,-0.3035,-0.2979,-0.3041,0.0,0.0,0.0,0.0,0.0,0.0,0.0,0.0,0.0,0.0,0.0,0.0,0.0,0.0,0.0,0.0,0.0,0.0,0.0,0.0,0.0,0.0,0.0,0.0,0.0,0.0,0.0,0.0,0.0,0.0,0.0,0.0,0.0,0.0,0.0,0.0,0.0,0.0,0.0,0.0,0.0,0.0,0.0,0.0,0.0,0.0,0.0,0.0,0.0,0.0,0.0,0.0,0.0,0.0,0.0,0.0,0.0,0.0,0.0,0.0,0.0,0.0,0.0,0.0,0.0,0.0,0.0,0.0,0.0,0.0,0.0,0.0,0.0,0.0,0.0,0.0,0.0,0.0,0.0,0.0,0.0,0.0,0.0,0.0,0.0,0.0,0.0,0.0,0.0,0.0,0.0,0.0,0.0,0.0,0.0,0.0,0.0,0.0,0.0,0.0,0.0,0.0,-0.2935,-0.3091,-0.3204,-0.3245,-0.3223,-0.3193,-0.3163,-0.3088,-0.2953,-0.2742,0.0,0.0,0.0,0.0,0.0,0.0,0.0,0.0,0.0,0.0,0.0,0.0,0.0,0.0,0.0,0.0,0.0,0.0,0.0,0.0,0.0,0.0,0.0,0.0,0.0,0.0,0.0,0.0,0.0,0.0,0.0,0.0,0.0,0.0,0.0,0.0,0.0,0.0,0.0,0.0,0.0,0.0,0.0,0.0,0.0,0.0,0.0,0.0,0.0,0.0,0.0,0.0,0.0,0.0,0.0,0.0,0.0,0.0,0.0,0.0,0.0,0.0,0.0,0.0,0.0,0.0,0.0,0.0,0.0,0.0,0.0,0.0,0.0,0.0,0.0,0.0,0.0,0.0,0.0,0.0,0.0,0.0,0.0,0.0,0.0,0.0,0.0,0.0,0.0,0.0,0.0,0.0,0.0,0.0,0.0,0.0,0.0,0.0,0.0,0.0,0.0,0.0,-0.2984,-0.3116,-0.3217,-0.3273,-0.3253,-0.3223,-0.3194,-0.3137,-0.3014,-0.2808,0.0,0.0,0.0,0.0,0.0,0.0,0.0,0.0,0.0,0.0,0.0,0.0,0.0,0.0,0.0,0.0,0.0,0.0,0.0,0.0,0.0,0.0,0.0,0.0,0.0,0.0,0.0,0.0,0.0,0.0,0.0,0.0,0.0,0.0,0.0,0.0,0.0,0.0,0.0,0.0,0.0,0.0,0.0,0.0,0.0,0.0,0.0,0.0,0.0,0.0,0.0,0.0,0.0,0.0,0.0,0.0,0.0,0.0,0.0,0.0,-0.3118,-0.3035,0.0,0.0,0.0,0.0,0.0,0.0,0.0,0.0,0.0,0.0,0.0,0.0,0.0,0.0,0.0,0.0,0.0,0.0,0.0,0.0,0.0,0.0,0.0,0.0,0.0,0.0,0.0,0.0,0.0,0.0,0.0,0.0,0.0,0.0,0.0,0.0,0.0,0.0,0.0,0.0,-0.3007,-0.3187,-0.327,-0.3307,-0.3284,-0.3254,-0.3224,-0.3117,-0.3015,-0.2898,-0.2738,0.0,0.0,0.0,0.0,0.0,0.0,0.0,0.0,0.0,0.0,0.0,0.0,0.0,0.0,0.0,0.0,0.0,0.0,0.0,0.0,0.0,0.0,0.0,0.0,0.0,0.0,0.0,0.0,0.0,0.0,0.0,0.0,0.0,0.0,0.0,0.0,0.0,0.0,0.0,0.0,0.0,0.0,0.0,0.0,0.0,0.0,0.0,0.0,0.0,0.0,0.0,0.0,0.0,0.0,0.0,0.0,0.0,0.0,0.0,-0.323,-0.3153,0.0,0.0,0.0,0.0,0.0,0.0,0.0,0.0,0.0,0.0,0.0,0.0,0.0,0.0,0.0,0.0,0.0,0.0,0.0,0.0,0.0,0.0,0.0,0.0,0.0,0.0,0.0,0.0,0.0,0.0,0.0,0.0,0.0,0.0,0.0,0.0,0.0,0.0,0.0,0.0,-0.3037,-0.3182,-0.3292,-0.3339,-0.3315,-0.3291,-0.3275,-0.3168,-0.3084,-0.3011,-0.289,0.0,0.0,0.0,0.0,0.0,0.0,0.0,0.0,0.0,0.0,0.0,0.0,0.0,0.0,0.0,0.0,0.0,0.0,0.0,0.0,0.0,0.0,0.0,0.0,0.0,0.0,0.0,0.0,0.0,0.0,0.0,0.0,0.0,0.0,0.0,0.0,0.0,0.0,0.0,0.0,0.0,0.0,0.0,0.0,0.0,0.0,0.0,0.0,0.0,0.0,0.0,0.0,0.0,-0.3555,-0.3565,-0.3551,-0.3589,-0.3594,-0.3547,-0.3372,-0.3365,-0.338,-0.3239,0.0,0.0,0.0,0.0,0.0,0.0,0.0,0.0,0.0,0.0,0.0,0.0,0.0,0.0,0.0,0.0,0.0,0.0,0.0,0.0,0.0,0.0,-0.3167,-0.3221,-0.3257,-0.3224,-0.3026,0.0,0.0,0.0,0.0,0.0,0.0,0.0,0.0,0.0,0.0,0.0,-0.3093,-0.3236,-0.3366,-0.3428,-0.3355,-0.3337,-0.3337,-0.3285,-0.3217,-0.3134,-0.3014,-0.2885,0.0,0.0,0.0,0.0,0.0,0.0,0.0,0.0,0.0,0.0,0.0,0.0,0.0,0.0,0.0,0.0,0.0,0.0,0.0,0.0,0.0,0.0,0.0,0.0,0.0,0.0,0.0,0.0,0.0,0.0,0.0,0.0,-1.6191,-1.6354,0.0,0.0,0.0,0.0,0.0,0.0,0.0,0.0,0.0,0.0,0.0,0.0,0.0,-0.3575,-0.3684,-0.3768,-0.3788,-0.3744,-0.3838,-0.3876,-0.3859,-0.3819,-0.3833,-0.3833,-0.3838,0.0,-0.3478,-0.3378,0.0,0.0,0.0,0.0,0.0,0.0,0.0,0.0,0.0,0.0,0.0,0.0,0.0,0.0,0.0,0.0,0.0,0.0,0.0,0.0,0.0,0.0,-0.338,-0.3467,-0.3445,-0.3457,-0.3426,-0.3238,-0.3054,-0.2984,-0.2932,-0.2876,0.0,0.0,0.0,0.0,0.0,0.0,-0.315,-0.3298,-0.3431,-0.3492,-0.3418,-0.34,-0.34,-0.3369,-0.3321,-0.3255,-0.314,-0.3029,-0.2975,-0.2793,0.0,0.0,0.0,0.0,0.0,0.0,0.0,0.0,0.0,0.0,0.0,0.0,0.0,0.0,0.0,0.0,0.0,0.0,0.0,0.0,0.0,0.0,0.0,0.0,0.0,0.0,0.0,0.0,0.0,-1.6503,-1.6924,-1.6904,-1.6998,-1.6966,0.0,0.0,0.0,0.0,0.0,0.0,0.0,0.0,0.0,-0.8019,-0.5293,-0.39,-0.3929,-0.3998,-0.4016,-0.3974,-0.4026,-0.405,-0.4054,-0.4054,-0.4061,-0.4075,-0.4043,-0.3947,-0.3793,-0.3636,-0.3524,-0.3444,0.0,0.0,0.0,0.0,-0.3272,-0.3273,-0.3311,-0.3317,-0.3298,-0.3257,0.0,0.0,0.0,0.0,0.0,0.0,0.0,-0.3197,-0.3305,-0.3397,-0.3483,-0.3562,-0.3607,-0.3632,-0.3649,-0.3534,-0.3382,-0.3238,-0.3174,-0.3103,-0.2976,-0.2932,0.0,0.0,0.0,-0.3168,-0.3268,-0.336,-0.3481,-0.3508,-0.3499,-0.343,-0.3414,-0.34,-0.3373,-0.3381,-0.3246,-0.3157,-0.3067,-0.2951,-0.283,0.0,0.0,0.0,0.0,0.0,0.0,0.0,0.0,0.0,0.0,0.0,0.0,0.0,0.0,0.0,0.0,0.0,0.0,0.0,0.0,0.0,0.0,0.0,0.0,0.0,0.0,0.0,0.0,-1.7121,-1.7561,-1.7487,-1.7758,-1.7826,0.0,0.0,0.0,0.0,0.0,0.0,-1.3931,-1.1858,-1.0697,-1.0699,-0.7196,-0.4906,-0.4142,-0.4187,-0.4197,-0.4177,-0.4177,-0.4191,-0.4218,-0.4197,-0.4202,-0.4218,-0.4191,-0.4142,-0.4008,-0.3806,-0.373,-0.3639,-0.3558,-0.3547,-0.3449,-0.3464,-0.3454,-0.3444,-0.3502,-0.352,-0.3502,-0.3426,-0.3386,-0.3344,-0.3216,0.0,0.0,0.0,0.0,-0.3313,-0.3418,-0.3502,-0.3583,-0.3681,-0.3733,-0.3764,-0.3788,-0.3754,-0.3656,-0.3461,-0.3386,-0.3303,-0.3187,-0.3146,0.0,-0.3077,-0.3171,-0.3272,-0.3356,-0.3427,-0.3525,-0.3479,-0.3474,-0.3463,-0.3448,-0.3431,-0.3414,-0.3445,-0.3385,-0.3258,-0.312,-0.3093,-0.2983,-0.2876,0.0,0.0,0.0,0.0,0.0,0.0,0.0,0.0,0.0,0.0,0.0,0.0,0.0,0.0,0.0,0.0,0.0,0.0,0.0,0.0,0.0,0.0,0.0,0.0,0.0,0.0,0.0,0.0,0.0,-1.8247,-1.8531,0.0,0.0,0.0,0.0,-1.4825,-1.2718,-1.1784,-1.2194,-1.0016,-0.8742,-0.8859,-0.8615,-0.7122,-0.4298,-0.4302,-0.4302,-0.4298,-0.4298,-0.4316,-0.4413,-0.4413,-0.4413,-0.4413,-0.4313,-0.4267,-0.4193,-0.3949,-0.3826,-0.3799,-0.3737,-0.3694,-0.3663,-0.3636,-0.3568,-0.3618,-0.3594,-0.3565,-0.3496,-0.3547,-0.3562,-0.3482,-0.3415,-0.3355,0.0,0.0,-0.3377,-0.346,-0.3469,-0.3568,-0.3723,-0.3757,-0.387,-0.3911,-0.3916,-0.3831,-0.3764,-0.3607,-0.3509,-0.3464,-0.3337,0.0,-0.32,-0.3254,-0.3269,-0.3326,-0.3474,-0.3499,-0.3509,-0.3482,-0.3516,-0.3509,-0.3478,-0.3487,-0.3508,-0.3507,-0.3449,-0.3321,-0.3179,-0.3195,-0.3108,-0.3002,-0.2868,0.0,0.0,0.0,0.0,0.0,0.0,0.0,0.0,0.0,0.0,0.0,0.0,0.0,0.0,0.0,0.0,0.0,0.0,0.0,0.0,0.0,0.0,0.0,0.0,0.0,0.0,0.0,0.0,-1.8864,-1.9325,0.0,-1.9291,-1.7977,-1.6741,-1.5869,-1.5357,-1.5272,-1.5574,-1.4759,-1.4331,-1.4435,-1.2666,-1.1246,-1.0136,-1.0136,-0.9159,-0.7291,-0.7291,-0.6225,-0.441,-0.4392,-0.4392,-0.441,-0.4379,-0.4345,-0.4298,-0.4215,-0.4093,-0.3956,-0.3914,-0.3855,-0.3852,-0.3782,-0.3768,-0.3754,-0.3761,-0.3744,-0.3712,-0.3677,-0.3643,-0.3604,-0.352,-0.3427,-0.3415,-0.3489,-0.3517,-0.3565,-0.3663,-0.3723,-0.3771,-0.3842,-0.3873,-0.3893,-0.3914,-0.3893,-0.3844,-0.3754,-0.3645,-0.354,-0.344,-0.3388,-0.3362,-0.3363,-0.3412,-0.3475,-0.3549,-0.3576,-0.3583,-0.3576,-0.3549,-0.352,-0.3491,-0.3487,-0.3461,-0.3456,-0.3431,-0.3335,-0.3262,-0.325,-0.3223,-0.307,-0.3007,-0.2913,0.0,0.0,0.0,0.0,0.0,0.0,0.0,0.0,0.0,0.0,0.0,0.0,0.0,0.0,0.0,0.0,0.0,0.0,0.0,0.0,0.0,0.0,0.0,0.0,0.0,-1.8776,-1.9359,-1.9556,-2.0119,-2.0363,-2.0127,-1.8843,-1.7669,-1.6807,-1.7121,-1.7473,-1.7716,-1.771,-1.7708,-1.7735,-1.5935,-1.4457,-1.3388,-1.3417,-1.2428,-1.0418,-1.0535,-0.953,-0.7536,-0.7501,-0.7508,-0.7531,-0.7467,-0.6868,-0.5881,-0.583,-0.5172,-0.4124,-0.4065,-0.3998,-0.3993,-0.3972,-0.3887,-0.3862,-0.3859,-0.3848,-0.382,-0.375,-0.3726,-0.3712,-0.3575,-0.3551,-0.3551,-0.3618,-0.3636,-0.367,-0.375,-0.3793,-0.3831,-0.3891,-0.3911,-0.3925,-0.3885,-0.3925,-0.3893,-0.3855,-0.3757,-0.3652,-0.3562,-0.3531,-0.3509,-0.349,-0.3482,-0.3531,-0.3618,-0.3639,-0.3643,-0.3621,-0.3594,-0.3562,-0.3589,-0.3513,-0.3484,-0.3444,-0.3404,-0.3363,-0.3324,-0.3292,-0.3224,-0.3114,-0.3092,-0.3013,-0.2919,0.0,0.0,0.0,0.0,0.0,0.0,0.0,0.0,0.0,0.0,0.0,0.0,0.0,0.0,0.0,0.0,0.0,0.0,0.0,0.0,0.0,0.0,0.0,-1.8972,-1.9522,-2.001,-2.0329,-2.0878,-2.1123,-2.0845,-2.1068,-2.0229,-1.774,-1.7707,-1.7948,-1.8388,-1.8445,-1.8386,-1.8276,-1.8259,-1.6807,-1.3704,-1.3792,-1.3787,-1.3561,-1.3875,-1.3917,-1.3618,-1.3618,-1.3618,-1.361,-1.3429,-1.1772,-0.9069,-0.8946,-0.7238,-0.4568,-0.4242,-0.4114,-0.4079,-0.4019,-0.3978,-0.3881,-0.388,-0.3922,-0.3916,-0.3827,-0.382,-0.3806,-0.3748,-0.3726,-0.3723,-0.3692,-0.3726,-0.3772,-0.3775,-0.3842,-0.3904,-0.3904,-0.3929,-0.3888,-0.3888,-0.3925,-0.3904,-0.3904,-0.3835,-0.3748,-0.3656,-0.3582,-0.3582,-0.3582,-0.3582,0.0,-0.3681,-0.3684,-0.3684,-0.3684,-0.3656,-0.3649,-0.3677,-0.3572,-0.3531,-0.3583,-0.3476,-0.3412,-0.3412,-0.3328,-0.3266,-0.3186,-0.312,-0.3107,-0.3106,0.0,0.0,0.0,0.0,0.0,0.0,0.0,0.0,0.0,0.0,0.0,0.0,0.0,0.0,0.0,0.0,0.0,0.0,0.0,0.0,0.0,-1.9128,-1.959,-1.9345,-2.001,-2.0682,-2.1023,-2.1475,-2.176,-2.1896,-2.1916,-2.1758,-2.1241,-2.1296,-2.1431,-2.1585,-2.1547,-2.1547,-2.1515,-2.1515,-2.1067,-2.0257,-2.0217,-1.9149,-1.6923,-1.706,-1.5938,-1.3787,-1.3787,-1.3754,-1.3618,-1.3565,-1.3019,-1.2188,-1.2153,-1.1581,-1.0261,-0.5893,-0.4162,-0.4114,-0.4075,-0.4026,-0.3974,-0.3911,-0.3907,-0.3914,-0.3866,-0.3862,-0.3866,-0.3782,-0.3757,-0.3757,-0.375,-0.3757,-0.3786,-0.3851,-0.3887,-0.3911,-0.387,-0.3881,-0.3888,-0.3888,-0.3881,-0.387,-0.3907,-0.3883,-0.3844,-0.3779,-0.3748,-0.3733,-0.3733,-0.3733,-0.3744,-0.3775,-0.3779,-0.3779,-0.3779,-0.375,-0.3719,-0.3684,-0.3632,-0.3569,-0.3554,-0.3442,-0.3412,-0.3412,-0.341,-0.3393,-0.3363,-0.3287,-0.3225,0.0,0.0,0.0,0.0,0.0,0.0,0.0,0.0,0.0,0.0,0.0,0.0,0.0,0.0,0.0,0.0,0.0,0.0,0.0,0.0,0.0,0.0,-1.9929,-2.0438,-2.0232,-2.0824,-2.1387,-2.1706,-2.2079,-2.2323,-2.25,-2.252,-2.2608,-2.2818,-2.292,-2.3029,-2.3151,-2.3151,-2.3137,-2.3063,-2.2995,-2.2961,-2.2961,-2.2961,-2.2095,-2.0376,-2.0502,-1.9619,-1.7799,-1.7799,-1.7731,-1.755,-1.7385,-1.6607,-1.5337,-1.5262,-1.4391,-1.2775,0.0,0.0,0.0,0.0,-0.5825,-0.5542,-0.4386,-0.3947,-0.3881,-0.3893,-0.3891,-0.3893,-0.3827,-0.3866,-0.3866,-0.3866,-0.3817,-0.3838,-0.3891,-0.3914,-0.3929,-0.3885,-0.3888,-0.3888,-0.3888,-0.3888,-0.3885,-0.3925,-0.3922,0.0,-0.3819,-0.3827,-0.3788,-0.3788,-0.3779,-0.3782,-0.3813,-0.3817,-0.382,-0.3835,-0.3817,-0.3852,-0.3816,-0.3716,0.0,0.0,0.0,-0.3489,-0.3452,-0.3478,0.0,0.0,0.0,0.0,0.0,-0.3119,0.0,0.0,-0.3154,-0.3296,0.0,0.0,0.0,0.0,0.0,0.0,0.0,0.0,0.0,0.0,0.0,0.0,0.0,0.0,0.0,0.0,-2.0627,-2.1231,-2.1443,-2.1828,-2.2113,-2.2337,-2.2622,-2.2818,-2.2852,-2.2852,-2.2974,-2.3273,-2.3273,-2.3395,-2.368,-2.368,0.0,0.0,0.0,-2.3273,-2.3273,-2.3273,-2.3273,-2.3273,-2.3558,-2.3537,-2.3273,-2.3259,-2.3171,-2.3008,-2.271,-2.1094,-1.8587,-1.8357,-1.6662,-1.3999,-1.3334,-1.2938,-1.2497,-0.9856,-0.8771,-0.825,-0.5807,0.0,0.0,-0.4473,-0.4339,-0.4267,-0.3994,-0.3922,-0.3922,-0.3922,-0.3883,-0.3904,-0.3907,-0.3929,-0.3888,-0.3892,-0.3892,-0.3888,-0.3892,-0.3892,-0.3888,-0.3888,-0.3888,-0.3888,-0.3888,-0.388,-0.3827,-0.3827,-0.3803,-0.3795,-0.3824,-0.3831,-0.3842,-0.3866,-0.3929,0.0,-0.3927,-0.3873,-0.3838,-0.3772,-0.3634,-0.3495,-0.3417,-0.3329,-0.3332,-0.3414,-0.3444,-0.3421,-0.3521,-0.2959,-0.2687,-0.2587,-0.2928,-0.3157,0.0,0.0,0.0,0.0,0.0,0.0,0.0,0.0,0.0,0.0,0.0,0.0,0.0,0.0,0.0,-2.0526,-2.1333,-2.195,-2.2078,-2.2622,-2.2852,-2.2554,-2.2784,-2.3063,-2.3293,-2.3255,-2.3449,-2.3734,-2.3666,-2.3666,-2.3843,-2.3754,-2.3666,-2.3646,-2.3612,-2.3592,-2.3592,-2.3592,-2.3592,-2.3592,-2.3646,0.0,-2.3592,-2.347,-2.3255,-2.3171,-2.2873,-2.2389,-2.169,-2.152,-2.0949,-1.9726,-1.48,-1.2839,-1.2735,-1.1958,-1.1672,-1.1538,-1.0838,-1.0556,-1.0117,-0.7943,-0.7226,-0.6752,-0.4572,-0.3893,0.0,-0.3893,-0.39,-0.3911,-0.3874,-0.3885,-0.3894,-0.3981,-0.3967,-0.3894,-0.3981,-0.3967,-0.3888,-0.3888,-0.3888,-0.3888,-0.3888,-0.3914,-0.3887,-0.3887,-0.3883,-0.388,-0.3887,-0.3907,-0.3864,-0.387,-0.387,-0.3922,-0.3898,-0.3862,-0.388,-0.3775,-0.3266,-0.2941,-0.285,-0.2427,-0.2428,-0.2848,-0.2889,-0.2889,-0.2896,-0.2763,-0.2435,-0.1973,-0.2042,-0.2087,0.0,0.0,0.0,0.0,0.0,0.0,0.0,0.0,0.0,0.0,0.0,-1.9257,-1.9786,0.0,-2.0858,-2.1462,-2.1991,-2.2432,-2.2744,-2.3171,-2.3314,-2.294,-2.3151,-2.3436,-2.3646,-2.368,-2.3802,-2.41,-2.4053,-2.4053,-2.4121,-2.4121,-2.4053,-2.391,-2.391,-2.391,-2.391,-2.391,-2.391,-2.391,-2.3978,-2.3931,-2.3788,-2.37,-2.3558,-2.3255,-2.3097,-2.2873,-2.2642,-2.2269,-2.2059,-2.1692,-1.8489,-1.7181,-1.6798,-1.5374,-1.4747,-1.4439,-1.2889,-1.2341,-1.1811,-0.8989,-0.8075,-0.7481,-0.4731,-0.3929,-0.3929,-0.3929,-0.3938,-0.3892,-0.3533,-0.3672,-0.3876,-0.3592,-0.3765,-0.394,-0.4034,-0.4005,-0.3974,-0.3974,-0.3898,-0.3888,-0.3888,-0.3874,-0.3922,-0.3907,-0.3891,-0.3887,-0.39,-0.3918,-0.387,-0.3888,-0.3888,-0.3758,-0.3498,-0.3119,-0.2857,-0.2836,-0.2516,-0.2316,-0.2297,-0.2018,-0.2019,-0.2297,-0.2316,-0.2312,-0.2285,-0.1947,-0.1663,-0.1371,-0.1064,-0.1235,0.0,0.0,0.0,0.0,0.0,0.0,0.0,-1.8477,-1.8816,-1.9468,-1.982,-2.0227,-2.0946,-2.1299,-2.1706,-2.2391,-2.2642,-2.2852,-2.3219,-2.3524,-2.3646,-2.3415,-2.3612,-2.3802,-2.3931,-2.3965,-2.41,-2.4344,-2.4406,-2.4406,-2.444,-2.4507,-2.446,-2.4209,-2.4209,-2.4209,-2.4209,-2.4209,-2.4209,-2.4209,-2.4297,-2.4229,-2.3978,-2.3924,-2.3748,-2.3483,-2.3273,-2.3008,-2.2696,-2.2181,-2.2025,-2.2079,-2.1815,-2.155,-2.1029,-1.8743,-1.7731,-1.7115,-1.4724,-1.3784,-1.3217,-1.0422,-0.9491,-0.8971,-0.6327,-0.5142,-0.4707,-0.4583,-0.4296,-0.3818,-0.3191,-0.3519,-0.386,-0.3383,-0.3689,-0.4058,-0.4097,-0.4054,-0.4012,-0.4005,-0.3978,-0.3894,-0.3888,-0.3826,-0.3758,-0.3857,-0.3893,-0.3887,-0.3911,-0.3914,-0.3861,-0.376,-0.3703,-0.3458,-0.2843,-0.2291,-0.1919,-0.1917,-0.1782,-0.1709,-0.1694,-0.1573,-0.1573,-0.1694,-0.1694,-0.1694,-0.1697,-0.1153,-0.0853,-0.0736,-0.0244,-0.0544,-1.6621,-1.689,-1.7256,-1.7846,-1.8036,-1.8443,0.0,-1.9875,-1.9942,-2.0804,-2.1123,-2.1421,-2.199,-2.2289,-2.2624,-2.3042,-2.3187,-2.3361,-2.3343,-2.368,-2.391,-2.4012,-2.4053,-2.4087,-2.4087,-2.4229,-2.4419,-2.4718,-2.4616,-2.4596,-2.4738,-2.4636,-2.4548,-2.4583,-2.4507,-2.4507,-2.4507,-2.4507,-2.4507,-2.4507,-2.4406,-2.4256,-2.4222,-2.4012,-2.3802,-2.3626,-2.3219,-2.2852,-2.2567,-2.2378,-2.2215,-2.2093,-2.1916,-2.176,-2.1597,-2.107,-2.0455,-1.9743,-1.9101,-1.8397,-1.7443,-1.526,-1.4515,-1.3995,-1.192,-0.9539,-0.7537,-0.6907,-0.5412,-0.3847,-0.3153,-0.3469,-0.3991,-0.3984,-0.4039,-0.4097,-0.4152,-0.4117,-0.4068,-0.4041,-0.4012,-0.3981,-0.3892,-0.3456,-0.3271,-0.3822,-0.3881,-0.3877,-0.3881,-0.3885,-0.3699,-0.3146,-0.3085,-0.2846,-0.218,-0.2007,-0.1946,-0.1932,-0.137,-0.1051,-0.1037,-0.0488,-0.0488,-0.0976,-0.1098,-0.1101,-0.0985,-0.0991,-0.0685,-0.0125,-0.0062,-0.0062,-1.7169,-1.7561,-1.807,-1.8511,-1.8871,-1.9359,-2.0241,-2.0492,-2.0736,-2.1462,-2.1862,-2.2215,-2.2656,-2.292,-2.3185,-2.3558,-2.3734,-2.3803,-2.3884,-2.4155,-2.4209,-2.4012,-2.4141,-2.4351,-2.4616,-2.4616,-2.4738,-2.5023,-2.4982,-2.4901,-2.4792,-2.4894,-2.4826,-2.4638,-2.465,-2.465,-2.4562,-2.465,-2.465,-2.4562,-2.4596,-2.4507,-2.4276,-2.4209,-2.3978,-2.3666,-2.3205,-2.2886,-2.2676,-2.2432,-2.2303,-2.2235,-2.2079,-2.1916,-2.1774,-2.1638,-2.1269,-2.0778,-2.0097,-1.9682,-1.8997,-1.5866,-1.4823,-1.4307,-1.1792,-1.0259,-0.9248,-0.9003,-0.8337,-0.7552,-0.6883,-0.6019,-0.5226,-0.4912,-0.3856,-0.2936,-0.2965,-0.2929,-0.3016,-0.3392,-0.3103,-0.3074,-0.3818,-0.3126,-0.2621,-0.3293,-0.3031,-0.2776,-0.2776,-0.2776,-0.2715,-0.2468,-0.2045,-0.1741,-0.1435,-0.1068,-0.082,-0.0817,-0.0565,-0.0376,-0.0373,-0.0124,-0.0124,-0.0374,-0.0374,-0.0374,-0.0375,-0.0376,-0.0252,0.0,0.0,0.0,-1.767,-1.8145,-1.8687,-1.9081,-1.9624,-2.0207,-2.079,-2.1123,-2.1475,-2.2079,-2.2445,-2.2784,-2.3137,-2.3395,-2.366,-2.3965,-2.4175,-2.4331,-2.4406,-2.446,-2.4406,-2.4107,-2.4209,-2.4453,-2.4914,-2.486,-2.4914,-2.5213,-2.5267,-2.5179,-2.4935,-2.5159,-2.5125,-2.4758,-2.486,-2.486,-2.4758,-2.4826,-2.4792,-2.4684,-2.4724,-2.4616,-2.4406,-2.4277,-2.4033,-2.3666,-2.3293,-2.2995,-2.2764,-2.2554,-2.2411,-2.2323,-2.2215,-2.2079,-2.1937,-2.1774,-2.1477,-2.1017,-2.0286,-2.0011,-1.9422,-1.65,-1.5625,-1.5287,-1.3154,-1.1978,-1.1362,-1.115,-1.0676,-1.0163,-0.9506,-0.8416,-0.7314,-0.6876,-0.5628,-0.4236,-0.3467,-0.3223,-0.3116,-0.2856,-0.2369,-0.228,-0.3293,-0.2466,-0.1892,-0.2388,-0.1875,-0.1553,-0.1976,-0.1851,-0.1728,-0.1728,-0.112,-0.0751,-0.0751,-0.0252,0.0,0.0,0.0,0.0,0.0,0.0,0.0,0.0,0.0,0.0,0.0,0.0,0.0,0.0,0.0,0.0,-1.7901,-1.8301,-1.8905,-1.9548,-2.0085,-2.0685,-2.1638,-2.1971,-2.2255,-2.2852,-2.2995,-2.3137,-2.3578,-2.3788,-2.3978,-2.4202,-2.4582,-2.4724,-2.4582,-2.444,-2.4406,-2.4528,-2.4297,-2.4297,-2.4758,-2.4792,-2.4914,-2.5213,-2.5376,-2.5389,-2.5233,-2.5376,-2.5376,-2.5213,-2.5213,-2.5213,-2.5213,-2.507,-2.5003,-2.5003,-2.4704,-2.4562,-2.4548,-2.4107,-2.3822,-2.3666,-2.3503,-2.3185,-2.2784,-2.2764,-2.2601,-2.2268,-2.2268,-2.2235,-2.2093,-2.1937,-2.129,-2.0433,-2.0284,-1.9706,-1.9072,-1.872,-1.8655,-1.8716,-1.8379,-1.6463,-1.4331,-1.3518,-1.1823,-1.0167,-0.9458,-0.9837,-1.0363,-1.0375,-1.0377,-0.9653,-0.6907,-0.6246,-0.5464,-0.2702,-0.2072,-0.2042,-0.2042,-0.1459,-0.1012,-0.1083,-0.051,-0.0506,-0.1855,-0.142,-0.105,-0.105,-0.0438,0.0,0.0,0.0,0.0,0.0,0.0,0.0,0.0,0.0,0.0,0.0,0.0,0.0,0.0,0.0,0.0,0.0,0.0,0.0,-1.8518,-1.9115,-1.98,-2.0404,-2.0845,-2.1253,-2.2025,-2.2303,-2.2479,-2.2798,-2.3008,-2.3205,-2.3347,-2.3578,-2.3877,-2.4202,-2.4684,-2.4894,-2.4738,-2.4935,-2.4847,-2.4195,-2.4297,-2.4406,-2.4351,-2.4616,-2.488,-2.507,-2.5321,-2.5443,-2.5389,-2.5532,-2.5586,-2.5532,-2.5443,-2.5335,-2.5233,-2.5179,-2.5111,-2.5023,-2.4813,-2.467,-2.4624,-2.4209,-2.391,-2.368,-2.3524,-2.3205,-2.2784,-2.2784,-2.2608,-2.2268,-2.2268,-2.2181,-2.195,-2.1903,-2.1565,-2.0964,-2.0416,-2.0099,-1.9873,-1.9225,-1.8676,-1.8243,-1.8149,-1.7071,-1.5811,-1.5508,-1.4922,-1.4374,-1.4313,-1.3064,-1.1885,-1.2035,-1.0683,-0.9038,-0.8055,-0.7868,-0.7686,-0.7159,-0.5187,-0.3843,-0.4756,-0.2343,-0.0325,-0.0324,-0.0128,-0.019,-0.0631,-0.0498,-0.0309,-0.0311,-0.0126,0.0,0.0,0.0,0.0,0.0,0.0,0.0,0.0,0.0,0.0,0.0,0.0,0.0,0.0,0.0,0.0,0.0,0.0,0.0,-1.9149,-1.982,-2.0492,-2.1089,-2.1509,-2.1828,-2.2391,-2.2567,-2.2732,-2.2764,-2.2852,-2.2907,-2.2907,-2.3151,-2.3524,-2.4033,-2.4582,-2.4935,-2.4948,-2.5159,-2.5036,-2.4297,-2.4419,-2.444,-2.4155,-2.4582,-2.4935,-2.5091,-2.5376,-2.5566,-2.562,-2.5708,-2.5762,-2.5762,-2.562,-2.5464,-2.5321,-2.5267,-2.5111,-2.486,-2.4704,-2.4562,-2.4406,-2.4209,-2.3978,-2.3754,-2.3592,-2.3307,-2.294,-2.2886,-2.2696,-2.2411,-2.2411,-2.2269,-2.2038,-2.1991,-2.1815,-2.1497,-2.0844,-2.0738,-2.0704,-1.9892,-1.9314,-1.8845,-1.8546,-1.7994,-1.7433,-1.7433,-1.7241,-1.6962,-1.7162,-1.5665,-1.4143,-1.435,-1.2999,-1.1411,-1.0339,-1.0147,-0.9979,-0.9432,-0.7426,-0.6128,-0.7088,-0.4103,-0.1189,-0.0132,0.0,0.0,0.0,0.0,0.0,0.0,0.0,0.0,0.0,0.0,0.0,0.0,0.0,0.0,0.0,0.0,0.0,0.0,0.0,0.0,0.0,0.0,0.0,0.0,0.0,0.0,-1.98,-2.0433,-2.1031,-2.155,-2.2025,-2.2425,-2.271,-2.2764,-2.2764,-2.2764,-2.252,-2.2254,-2.2303,-2.2554,-2.2961,-2.3558,-2.4297,-2.4894,-2.5199,-2.5145,-2.5003,-2.4826,-2.4684,-2.4494,-2.4189,-2.4684,-2.5091,-2.5233,-2.5511,-2.5742,-2.5884,-2.5905,-2.5905,-2.5905,-2.5762,-2.5606,-2.5522,-2.5287,-2.5003,-2.4582,-2.4419,-2.4202,-2.4141,-2.4141,-2.4053,-2.389,-2.3734,-2.3503,-2.3205,-2.3063,-2.2832,-2.2644,-2.2624,-2.2466,-2.2254,-2.216,-2.2004,-2.1828,-2.155,-2.155,-2.1564,-2.0704,-2.0566,-2.058,-1.9711,-1.9278,-1.9102,-1.9156,-1.8528,-1.779,-1.7895,-1.7509,-1.7088,-1.7088,-1.7119,-1.6466,-1.3697,-1.3158,-1.2351,-0.9737,-0.9006,-0.8793,-0.8781,-0.6415,-0.3528,-0.0667,-0.0199,-0.0197,0.0,0.0,0.0,0.0,0.0,0.0,0.0,0.0,0.0,0.0,0.0,0.0,0.0,0.0,0.0,0.0,0.0,0.0,0.0,0.0,0.0,0.0,0.0,0.0,-2.0526,-2.1143,-2.1672,-2.1937,-2.2255,-2.252,-2.2658,-2.2678,-2.2588,-2.2479,-2.2215,-2.1971,-2.1862,-2.2181,-2.2642,-2.3239,-2.4155,-2.4894,-2.5199,-2.5498,-2.5498,-2.5023,-2.5125,-2.5077,-2.467,-2.5057,-2.5355,-2.541,-2.5586,-2.5708,-2.5742,-2.585,-2.5905,-2.5905,-2.5654,-2.5443,-2.5287,-2.5036,-2.4847,-2.4738,-2.4582,-2.444,-2.4222,-2.4222,-2.4141,-2.389,-2.3734,-2.3503,-2.3205,-2.3063,-2.2907,-2.271,-2.2608,-2.2466,-2.2254,-2.216,-2.195,-2.1706,-2.1638,-2.1564,-2.1443,-2.139,-2.091,-2.0334,-2.018,-1.9606,-1.9008,-1.8833,-1.8841,-1.879,-1.8658,-1.8371,-1.8081,-1.8076,-1.7701,-1.7221,-1.6451,-1.6275,-1.6108,-1.5326,-1.3426,-1.1313,-0.9191,-0.8076,-0.6576,-0.3779,-0.3278,-0.2452,-0.0264,0.0,0.0,0.0,0.0,0.0,0.0,0.0,0.0,0.0,0.0,0.0,0.0,0.0,0.0,0.0,0.0,0.0,0.0,0.0,0.0,0.0,0.0,0.0,-2.1123,-2.1638,-2.2038,-2.2255,-2.2432,-2.2603,-2.2479,-2.2411,-2.2255,-2.1916,-2.1652,-2.1462,-2.1299,-2.1706,-2.2269,-2.292,-2.3856,-2.4684,-2.5247,-2.5599,-2.5708,-2.5443,-2.562,-2.5552,-2.5036,-2.5342,-2.5518,-2.5376,-2.562,-2.5817,-2.5884,-2.5952,-2.6006,-2.6006,-2.5708,-2.5464,-2.5233,-2.5003,-2.4826,-2.4684,-2.4548,-2.4385,-2.4243,-2.4243,-2.4155,-2.3978,-2.3843,-2.3646,-2.3415,-2.3259,-2.3083,-2.2873,-2.2784,-2.2622,-2.2432,-2.2344,-2.2113,-2.1862,-2.1862,-2.1726,-2.1564,-2.1638,-2.139,-2.093,-2.1016,-2.0572,-2.0062,-2.005,-1.9863,-1.9722,-1.9637,-1.9383,-1.9069,-1.9001,-1.8783,-1.8399,-1.7993,-1.797,-1.7856,-1.7524,-1.6183,-1.4149,-1.1245,-1.0661,-0.97,-0.6876,-0.6431,-0.5797,-0.4114,-0.1591,0.0,0.0,0.0,0.0,0.0,0.0,0.0,0.0,0.0,0.0,0.0,0.0,0.0,0.0,0.0,0.0,0.0,0.0,0.0,0.0,0.0,0.0,-2.1638,-2.1971,-2.2255,-2.25,-2.2624,-2.252,-2.2337,-2.2181,-2.1903,-2.1333,-2.1089,-2.0933,-2.077,-2.1211,-2.1848,-2.2608,-2.3449,-2.4365,-2.5301,-2.5552,-2.5708,-2.5905,-2.6027,-2.5905,-2.5376,-2.5599,-2.5654,-2.5376,-2.5742,-2.6006,-2.6074,-2.6095,-2.6081,-2.604,-2.5776,-2.5498,-2.5233,-2.507,-2.4847,-2.4562,-2.4419,-2.4263,-2.4121,-2.4121,-2.4121,-2.41,-2.3944,-2.3788,-2.3666,-2.3483,-2.3273,-2.3029,-2.3008,-2.2832,-2.2588,-2.2624,-2.2357,-2.2113,-2.2093,-2.1903,-2.1672,-2.1672,-2.174,-2.1828,-2.1828,-2.1652,-2.1455,-2.1584,-2.115,-2.0571,-2.0668,-2.0352,-1.9941,-1.9941,-1.9892,-1.9626,-1.8927,-1.8774,-1.8581,-1.7832,-1.7789,-1.6993,-1.4274,-1.377,-1.2814,-1.0015,-0.9595,-0.9387,-0.8974,-0.4049,-0.06,-0.0597,-0.0266,0.0,0.0,0.0,0.0,0.0,0.0,0.0,0.0,0.0,0.0,0.0,0.0,0.0,0.0,0.0,0.0,0.0,0.0,0.0,-2.2093,-2.2445,-2.2642,-2.2644,-2.2624,-2.2556,-2.2215,-2.1937,-2.1652,-2.1285,-2.1001,-2.077,-2.0614,-2.0967,-2.155,-2.2289,-2.3063,-2.3965,-2.5111,-2.5301,-2.5511,-2.6027,-2.6006,-2.5905,-2.5796,-2.6061,-2.6169,-2.5993,-2.6271,-2.6257,-2.5796,-2.5884,-2.583,-2.5586,-2.541,-2.5287,-2.5233,-2.4969,-2.4738,-2.4562,-2.4419,-2.4263,-2.4121,-2.4121,-2.4121,-2.41,-2.3843,-2.37,-2.3666,-2.3381,-2.3239,-2.3171,-2.3063,-2.2907,-2.273,-2.2608,-2.2357,-2.2093,-2.1971,-2.1815,-2.1672,-2.1672,-2.1597,-2.1509,-2.1509,-2.1475,-2.1355,-2.1319,-2.1389,-2.141,-2.1303,-2.1033,-2.0774,-2.0774,-2.0382,-1.995,-1.9697,-1.9667,-1.9455,-1.8714,-1.8588,-1.8256,-1.7136,-1.6841,-1.5791,-1.3043,-1.2508,-1.1642,-0.9182,-0.5848,-0.3727,-0.3744,-0.1495,0.0,0.0,0.0,0.0,0.0,0.0,0.0,0.0,0.0,0.0,0.0,0.0,0.0,0.0,0.0,0.0,0.0,0.0,0.0,-2.2357,-2.2676,-2.2886,-2.2818,-2.2554,-2.2255,-2.195,-2.153,-2.1075,-2.0614,-2.0526,-2.0492,-2.0349,-2.0804,-2.1387,-2.1903,-2.2479,-2.3221,-2.4494,-2.4792,-2.5159,-2.5918,-2.6095,-2.6149,-2.6149,-2.6135,-2.6129,-2.6129,-2.6115,-2.6095,-2.6047,-2.6095,-2.5939,-2.5477,-2.5532,-2.5423,-2.5125,-2.5057,-2.4948,-2.4792,-2.4562,-2.4419,-2.4351,-2.4189,-2.4087,-2.3999,-2.3944,-2.3768,-2.3558,-2.3483,-2.3361,-2.3219,-2.3151,-2.3029,-2.2886,-2.273,-2.2534,-2.2303,-2.2079,-2.1903,-2.1774,-2.1692,-2.1564,-2.1375,-2.1375,-2.1375,-2.1421,-2.1353,-2.1496,-2.1672,-2.1672,-2.1618,-2.1585,-2.1665,-2.1237,-2.0765,-2.0683,-2.0449,-2.0157,-1.9814,-1.9679,-1.9366,-1.8602,-1.8357,-1.7665,-1.5991,-1.5686,-1.5156,-1.3773,-1.0945,-0.85,-0.699,-0.5471,-0.4642,-0.4642,-0.321,-0.2313,-0.2356,-0.0866,0.0,0.0,0.0,0.0,0.0,0.0,0.0,0.0,0.0,0.0,0.0,0.0,0.0,-2.2515,-2.2784,-2.2995,-2.292,-2.2513,-2.2004,-2.1618,-2.1109,-2.058,-2.0031,-2.0119,-2.0261,-2.0173,-2.0627,-2.1157,-2.1564,-2.1971,-2.2656,-2.3856,-2.4317,-2.486,-2.5796,-2.6115,-2.6312,-2.64,-2.6169,-2.604,-2.6169,-2.5973,-2.5939,-2.6203,-2.6224,-2.5993,-2.5556,-2.5728,-2.5599,-2.507,-2.5213,-2.5179,-2.4969,-2.4724,-2.4582,-2.4507,-2.4243,-2.4033,-2.389,-2.3978,-2.3802,-2.3377,-2.3537,-2.3436,-2.3219,-2.3219,-2.313,-2.2995,-2.2873,-2.271,-2.252,-2.2215,-2.2004,-2.1848,-2.1672,-2.155,-2.1375,-2.1375,-2.1375,-2.1375,-2.1375,-2.153,-2.1652,-2.1794,-2.1937,-2.2072,-2.222,-2.1966,-2.1653,-2.1685,-2.1355,-2.1002,-2.0873,-2.0685,-2.0306,-1.9519,-1.9285,-1.8996,-1.8385,-1.8355,-1.8313,-1.8147,-1.6061,-1.3635,-1.1086,-0.9684,-0.8936,-0.8873,-0.6747,-0.542,-0.5444,-0.3164,-0.1598,-0.0923,-0.0912,-0.0647,0.0,0.0,0.0,0.0,0.0,0.0,0.0,0.0,0.0,-2.2467,-2.2784,-2.294,-2.2732,-2.2357,-2.1937,-2.1231,-2.0804,-2.0471,-2.0153,-2.0098,-2.0153,-2.0275,-2.0363,-2.0584,-2.1287,-2.1726,-2.2344,-2.3558,-2.41,-2.4758,-2.5776,-2.5918,-2.6095,-2.6522,-2.6413,-2.6325,-2.6346,-2.6393,-2.6135,-2.5776,-2.5742,-2.5654,-2.5543,-2.562,-2.5552,-2.5213,-2.5355,-2.5233,-2.4813,-2.4792,-2.4629,-2.429,-2.4189,-2.4033,-2.389,-2.3768,-2.3612,-2.3363,-2.3307,-2.3239,-2.3219,-2.3219,-2.313,-2.3008,-2.2995,-2.2798,-2.252,-2.2215,-2.2004,-2.1828,-2.155,-2.1389,-2.1375,-2.1375,-2.1375,-2.1375,-2.1375,-2.1389,-2.1496,-2.1652,-2.1706,-2.1815,-2.2235,-2.2376,-2.2518,-2.2653,-2.2637,-2.2432,-2.1727,-2.1463,-2.1043,-2.0165,-1.999,-1.9893,-1.9588,-1.9757,-1.959,-1.8846,-1.8581,-1.8147,-1.7171,-1.2209,-0.8944,-0.8929,-0.8656,-0.847,-0.8424,-0.8152,-0.6777,-0.4018,-0.3878,-0.2686,-0.0065,0.0,0.0,0.0,0.0,0.0,0.0,0.0,0.0,-2.1991,-2.2567,-2.294,-2.2692,-2.2324,-2.1794,-2.1143,-2.0702,-2.0329,-2.0031,-2.0031,-2.0153,-2.0295,-2.0329,-2.0485,-2.0967,-2.1055,-2.1408,-2.2344,-2.2778,-2.3415,-2.4562,-2.5023,-2.5443,-2.5993,-2.5993,-2.5918,-2.583,-2.5896,-2.5708,-2.5423,-2.5762,-2.5796,-2.5477,-2.5518,-2.541,-2.5111,-2.5247,-2.5233,-2.5057,-2.4969,-2.4826,-2.4616,-2.4365,-2.4121,-2.389,-2.3843,-2.368,-2.3377,-2.3309,-2.3235,-2.3219,-2.3219,-2.3185,-2.3117,-2.294,-2.2798,-2.2642,-2.2255,-2.2004,-2.1848,-2.1652,-2.1509,-2.1375,-2.1375,-2.1375,-2.1375,-2.1375,-2.1375,-2.1496,-2.174,-2.2004,-2.2269,-2.2534,-2.273,-2.2852,-2.2907,-2.2995,-2.2957,-2.2572,-2.2448,-2.204,-2.1043,-2.0872,-2.0695,-2.0167,-2.0098,-2.002,-1.9914,-1.9767,-1.9592,-1.9402,-1.6348,-1.4365,-1.4326,-1.2647,-1.1539,-1.1444,-0.9798,-0.821,-0.6953,-0.692,-0.5519,-0.2623,-0.2564,-0.1713,0.0,0.0,0.0,0.0,0.0,0.0,-2.1496,-2.2167,-2.2622,-2.2411,-2.2025,-2.155,-2.098,-2.0526,-2.0139,-1.9922,-1.9922,-2.0051,-2.0275,-2.0295,-2.0363,-2.0648,-2.0682,-2.0912,-2.1584,-2.1971,-2.2567,-2.3626,-2.4263,-2.4826,-2.5423,-2.562,-2.562,-2.5477,-2.5464,-2.541,-2.5301,-2.5654,-2.5708,-2.5342,-2.5488,-2.5321,-2.5023,-2.5213,-2.5287,-2.5233,-2.5091,-2.4935,-2.4772,-2.4418,-2.4155,-2.3822,-2.3822,-2.366,-2.3309,-2.3309,-2.3255,-2.3219,-2.3219,-2.3219,-2.3185,-2.294,-2.2818,-2.273,-2.2323,-2.2079,-2.1916,-2.1794,-2.1597,-2.1496,-2.1389,-2.1375,-2.1375,-2.1375,-2.1443,-2.1631,-2.1882,-2.2255,-2.2658,-2.2744,-2.2907,-2.3029,-2.3063,-2.3151,-2.3185,-2.3097,-2.3042,-2.2721,-2.1968,-2.1812,-2.1544,-2.091,-2.0771,-2.0733,-2.0781,-2.0581,-2.0374,-2.0306,-1.9227,-1.8516,-1.8471,-1.6511,-1.517,-1.4761,-1.2803,-1.1136,-0.9903,-0.9871,-0.8527,-0.5608,-0.5817,-0.45,-0.1592,-0.179,-0.133,-0.0334,-0.0332,-0.0199,-2.098,-2.155,-2.1903,-2.1882,-2.155,-2.1102,-2.0584,-2.0207,-1.9875,-1.9875,-1.9827,-1.98,-2.0241,-2.0207,-2.0207,-2.0485,-2.0804,-2.1157,-2.1604,-2.2059,-2.2552,-2.3289,-2.3856,-2.4365,-2.4969,-2.5423,-2.562,-2.5477,-2.5464,-2.5464,-2.5464,-2.5321,-2.5179,-2.5036,-2.5301,-2.5321,-2.5023,-2.5321,-2.5389,-2.5233,-2.5091,-2.4935,-2.4772,-2.4418,-2.41,-2.368,-2.368,-2.3503,-2.3219,-2.3219,-2.3219,-2.3219,-2.3219,-2.3219,-2.3205,-2.3063,-2.2907,-2.2744,-2.2376,-2.2235,-2.2059,-2.176,-2.1672,-2.1638,-2.1496,-2.1375,-2.1375,-2.1375,-2.1652,-2.1916,-2.2072,-2.2323,-2.2658,-2.2744,-2.2907,-2.3049,-2.3185,-2.3219,-2.3219,-2.3219,-2.3097,-2.2961,-2.2798,-2.2656,-2.2445,-2.216,-2.218,-2.1985,-2.1293,-2.1218,-2.0929,-2.0376,-2.0196,-1.9998,-1.9921,-1.984,-1.9395,-1.8391,-1.8422,-1.6819,-1.3029,-1.2833,-1.1508,-0.8637,-0.929,-0.8251,-0.5374,-0.6043,-0.45,-0.1077,-0.1077,-0.0671,-1.9854,-2.0539,-2.1055,-2.0736,-2.0716,-2.0614,-2.0064,-1.9976,-1.9976,-1.9827,-1.9854,-2.0031,-2.0275,-2.0295,-2.0383,-2.079,-2.0933,-2.1123,-2.1462,-2.1815,-2.2303,-2.3063,-2.4087,-2.4894,-2.5287,-2.5443,-2.543,-2.5179,-2.5247,-2.5267,-2.5159,-2.5111,-2.5111,-2.5159,-2.5159,-2.5111,-2.5023,-2.5213,-2.5233,-2.5091,-2.5036,-2.488,-2.4636,-2.4331,-2.4053,-2.3822,-2.3612,-2.3397,-2.3361,-2.3259,-2.3219,-2.3219,-2.3219,-2.3171,-2.3063,-2.2907,-2.2764,-2.2608,-2.2411,-2.2235,-2.2093,-2.2004,-2.1903,-2.1815,-2.176,-2.1597,-2.1455,-2.1564,-2.1815,-2.2093,-2.2344,-2.2624,-2.2764,-2.3029,-2.3117,-2.3171,-2.3205,-2.3219,-2.3185,-2.3097,-2.3117,-2.3083,-2.2818,-2.2744,-2.2676,-2.2588,-2.2445,-2.2266,-2.2265,-2.2105,-2.1913,-2.1906,-2.1646,-2.1102,-2.0106,-1.9958,-1.9705,-1.9326,-1.926,-1.8603,-1.7319,-1.6888,-1.5321,-1.2454,-1.2145,-1.0806,-0.8379,-0.8541,-0.7315,-0.4703,-0.4703,-0.356,-1.904,-1.9752,-2.0358,-2.0064,-2.0153,-2.0173,-1.9814,-1.98,-1.9888,-1.9759,-1.98,-1.9997,-2.0207,-2.0241,-2.0349,-2.0702,-2.079,-2.0946,-2.1299,-2.1564,-2.2059,-2.2974,-2.3978,-2.4738,-2.5091,-2.5233,-2.5213,-2.5036,-2.5111,-2.5111,-2.5023,-2.4969,-2.4969,-2.5057,-2.4982,-2.4935,-2.4935,-2.5023,-2.507,-2.5091,-2.4982,-2.4826,-2.4636,-2.4277,-2.4012,-2.3802,-2.3558,-2.3343,0.0,-2.3259,-2.3219,-2.3219,-2.3219,-2.3171,-2.3083,-2.292,-2.2798,-2.2696,-2.25,-2.2357,-2.2255,-2.2147,-2.2004,-2.1903,-2.195,-2.1794,-2.1638,-2.1794,-2.2059,-2.2323,-2.2569,-2.2744,-2.2974,-2.3117,-2.3185,-2.3219,-2.3219,-2.3219,-2.3205,-2.3117,-2.3171,-2.3171,-2.2974,-2.2852,-2.2784,-2.2784,-2.2534,-2.2425,-2.2656,-2.2479,-2.2391,-2.2603,-2.2344,-2.1829,-2.1004,-2.0769,-2.0468,-2.0058,-2.0008,-1.9786,-1.9389,-1.9114,-1.8071,-1.6192,-1.5985,-1.4672,-1.2145,-1.1023,-0.9657,-0.8055,-0.8048,-0.7112,0.0,-1.9154,-1.965,-1.9712,-1.9786,-1.9827,-1.9684,-1.9684,0.0,-1.9705,-1.9705,-1.9732,-2.0051,-2.0085,-2.0153,-2.0349,-2.0422,-2.0672,-2.1177,-2.1421,-2.1916,-2.3171,-2.368,-2.4107,-2.4548,-2.4847,-2.5023,-2.5003,-2.5023,-2.5023,-2.5023,-2.488,-2.4792,-2.4772,-2.4772,-2.4758,-2.4772,-2.4772,-2.4914,-2.5179,-2.4894,-2.4758,-2.4724,-2.4297,-2.3931,-2.3666,-2.3503,-2.3347,-2.3219,-2.3219,-2.3219,-2.3219,-2.3219,-2.3219,-2.3185,-2.3063,-2.2995,-2.294,-2.2656,-2.2624,-2.25,-2.2235,-2.2038,-2.195,-2.2113,-2.2038,-2.1937,-2.2093,-2.2344,-2.2624,-2.2644,-2.2886,-2.3171,-2.3049,-2.313,-2.3219,-2.3219,-2.3219,-2.3219,-2.3205,-2.3205,-2.3205,-2.3185,-2.2961,-2.2764,-2.2764,-2.252,-2.2391,-2.252,-2.2432,-2.2391,-2.259,-2.2411,-2.2268,-2.2268,-2.2072,-2.1571,-2.0752,-2.0802,-2.0544,-1.9719,-1.9781,-1.9794,-1.9585,-2.0257,-1.9225,-1.6425,-1.38,-1.1998,-1.1132,-1.1189,-1.1055,-1.7514,0.0,-1.862,-1.8531,-1.885,-1.9169,0.0,-1.9237,-1.9481,-1.9481,-1.9481,-1.961,-2.0031,-2.001,-2.0119,-2.0736,-2.0878,-2.1055,-2.1496,-2.2181,-2.2995,-2.3965,-2.4277,-2.4548,-2.488,-2.4982,-2.4969,-2.486,-2.4948,-2.5023,-2.5023,-2.488,-2.4738,-2.4616,-2.4507,-2.4507,-2.4616,-2.4616,-2.465,-2.4724,-2.4541,-2.4385,-2.4263,-2.3931,-2.368,-2.3431,-2.3347,-2.3259,-2.3219,-2.3219,-2.3219,-2.3219,-2.3219,-2.3151,-2.3063,-2.3029,-2.2873,-2.2656,-2.2644,-2.2479,-2.2391,-2.2432,-2.2432,-2.2432,-2.2567,-2.2357,-2.2113,-2.2378,-2.2432,-2.2466,-2.2818,-2.2886,-2.294,-2.313,-2.3205,-2.3219,-2.3219,-2.3219,-2.3185,-2.3083,-2.3063,-2.3029,-2.2907,-2.273,-2.2678,-2.2678,-2.2445,-2.2288,-2.2391,-2.2357,-2.2288,-2.2391,-2.2357,-2.2268,-2.2268,-2.216,-2.197,-2.1725,-2.1658,-2.1484,-2.1203,-2.0802,-2.0457,-2.0324,-2.0512,-2.0174,-1.9376,-1.9225,-1.7945,-1.5681,-1.5666,-1.4476,-1.7175,-1.7738,-1.8301,-1.8213,-1.864,-1.9047,-1.8905,-1.9094,-1.9305,-1.9237,-1.9271,-1.9393,-1.9644,-1.9786,-2.0031,-2.0505,-2.0756,-2.1123,-2.1774,-2.2588,-2.3395,-2.4155,-2.444,-2.465,-2.4894,-2.4982,-2.4948,-2.4806,-2.4935,-2.5023,-2.5023,-2.488,-2.4724,-2.4562,-2.4419,-2.4385,-2.446,-2.446,-2.4494,-2.4562,-2.4419,-2.4263,-2.41,-2.3822,-2.3592,-2.3377,-2.3293,-2.3219,-2.3219,-2.3219,-2.3219,-2.3219,-2.3219,-2.3171,-2.3117,-2.3117,-2.2961,-2.2744,-2.2676,-2.2554,-2.2445,-2.2534,-2.2608,-2.2696,-2.2832,-2.2676,-2.2432,-2.2534,-2.2554,-2.2567,-2.2676,-2.2798,-2.2907,-2.2995,-2.3117,-2.3219,-2.3219,-2.3219,-2.3185,-2.3042,-2.3008,-2.2961,-2.2818,-2.271,-2.2642,-2.2644,-2.2479,-2.2411,-2.2337,-2.2268,-2.2268,-2.2268,-2.2268,-2.2303,-2.2235,-2.216,-2.2113,-2.2113,-2.1971,-2.1848,-2.1774,-2.1571,-2.1273,-2.1136,-2.0996,-2.079,-2.0386,-2.105,-2.0433,-1.8693,-1.8953,-1.8289,-1.7182,-1.7758,-1.8301,-1.8233,-1.8674,-1.9094,-1.8918,-1.8993,-1.9081,-1.8972,-1.9027,-1.9128,-1.9257,-1.959,-1.9922,-2.0173,-2.058,-2.1177,-2.2025,-2.273,-2.3381,-2.4012,-2.4317,-2.4528,-2.4704,-2.4847,-2.488,-2.4758,-2.4894,-2.4982,-2.4982,-2.4847,-2.4684,-2.4528,-2.4385,-2.4235,-2.4235,-2.4235,-2.4365,-2.4494,-2.4351,-2.4134,-2.4053,-2.3768,-2.3558,-2.3343,-2.3273,-2.3219,-2.3219,-2.3219,-2.3219,-2.3219,-2.3219,-2.3219,-2.3219,-2.3219,-2.3117,-2.2961,-2.2798,-2.2732,-2.2624,-2.2678,-2.271,-2.2852,-2.2995,-2.2961,-2.2818,-2.2642,-2.2732,-2.2696,-2.2466,-2.269,-2.294,-2.2832,-2.3029,-2.3219,-2.3219,-2.3205,-2.3151,-2.3008,-2.2961,-2.2886,-2.2744,-2.273,-2.2696,-2.2603,-2.2603,-2.25,-2.2357,-2.2268,-2.2268,-2.2268,-2.2254,-2.2249,-2.2127,-2.2072,-2.2059,-2.2079,-2.1971,-2.1903,-2.1882,-2.1971,-2.1903,-2.1638,-2.1509,-2.1116,-2.0519,-2.1116,-2.1116,-2.0585,-2.1203,-2.1475,-1.7311,-1.7846,-1.8177,-1.7791,-1.8301,-1.8762,-1.8477,-1.8531,-1.8674,-1.8782,-1.8708,-1.883,-1.9528,-1.9705,-1.997,-2.056,-2.1055,-2.1497,-2.2146,-2.2622,-2.3117,-2.3843,-2.3965,-2.41,-2.4385,-2.444,-2.4494,-2.4596,-2.4738,-2.4826,-2.4826,-2.4684,-2.4528,-2.4385,-2.4229,-2.4155,-2.4155,-2.4155,-2.4175,-2.4189,-2.4033,-2.389,-2.3734,-2.3571,-2.3395,-2.3259,-2.3239,-2.3219,-2.3219,-2.3219,-2.3219,-2.3219,-2.3219,-2.3219,-2.3219,-2.3219,-2.3049,-2.2798,-2.2712,-2.2644,-2.2658,-2.2852,-2.2961,-2.3008,-2.3151,-2.3171,-2.3097,-2.2818,-2.2676,-2.2608,-2.2696,-2.2764,-2.2852,-2.2961,-2.3097,-2.3219,-2.3219,-2.313,-2.2995,-2.2852,-2.271,-2.2567,-2.2425,-2.25,-2.2534,-2.2391,-2.2479,-2.25,-2.2357,-2.2268,-2.2268,-2.2268,-2.2215,-2.2127,-2.2113,-2.1882,-2.1794,-2.1916,-2.2025,-2.2025,-2.1882,-2.1672,-2.1463,-2.1475,-2.1389,-2.1375,-2.1236,-2.1375,-2.1375,-2.1236,-2.1517,-2.1638,-1.7148,-1.7561,-1.7879,-1.7792,-1.8443,-1.9094,-1.8952,-1.8905,-1.8918,-1.8993,-1.8938,-1.9027,-1.9447,-1.9664,-2.0051,-2.0878,-2.1455,-2.195,-2.2391,-2.271,-2.3151,-2.3822,-2.3965,-2.4141,-2.444,-2.446,-2.4494,-2.4562,-2.4636,-2.467,-2.467,-2.4596,-2.4494,-2.4276,-2.4134,-2.4121,-2.4121,-2.3965,-2.3965,-2.4121,-2.3965,-2.3822,-2.368,-2.3524,-2.3361,-2.3219,-2.3219,-2.3219,-2.3219,-2.3219,-2.3219,-2.3219,-2.3219,-2.3219,-2.3205,-2.3049,-2.2907,-2.2744,-2.252,-2.2534,-2.2696,-2.2744,-2.292,-2.3117,-2.3117,-2.3171,-2.3171,-2.2961,-2.2798,-2.2676,-2.2656,-2.278,-2.2818,-2.2974,-2.3117,-2.3219,-2.3219,-2.3171,-2.3063,-2.2832,-2.273,-2.2608,-2.2378,-2.2466,-2.25,-2.2357,-2.2466,-2.25,-2.2357,-2.2268,-2.2268,-2.2268,-2.2201,-2.2079,-2.1991,-2.1794,-2.1706,-2.176,-2.1828,-2.1848,-2.1774,-2.1564,-2.1375,-2.1375,-2.1375,-2.1475,-2.1564,-2.1475,-2.1475,-2.1564,-2.1638,-2.1672,-1.7066,-1.7358,-1.7684,-1.788,-1.8498,-1.9115,-1.9325,-1.9183,-1.904,-1.9217,-1.9217,-1.9271,-1.9501,-1.9875,-2.0383,-2.1143,-2.1706,-2.2181,-2.2569,-2.2784,-2.3171,-2.3714,-2.3924,-2.4121,-2.4385,-2.444,-2.4473,-2.4507,-2.4507,-2.4507,-2.4507,-2.4507,-2.444,-2.4297,-2.4175,-2.4121,-2.4121,-2.3856,-2.3843,-2.4066,-2.3877,-2.3734,-2.3626,-2.347,-2.3327,-2.3219,-2.3219,-2.3219,-2.3219,-2.3219,-2.3219,-2.3219,-2.3219,-2.3219,-2.3185,-2.2886,-2.2784,-2.2744,-2.2479,-2.2534,-2.271,-2.2642,-2.2873,-2.3151,-2.3042,-2.3117,-2.3185,-2.3049,-2.2907,-2.2744,-2.2642,-2.2696,-2.2818,-2.292,-2.3097,-2.3205,-2.3185,-2.3171,-2.3097,-2.2886,-2.2784,-2.2656,-2.2425,-2.2479,-2.25,-2.2357,-2.2466,-2.25,-2.2357,-2.2303,-2.222,-2.222,-2.2113,-2.195,-2.1794,-2.1672,-2.1618,-2.1618,-2.1618,-2.1638,-2.1672,-2.1564,-2.1496,-2.1496,-2.153,-2.1597,-2.1726,-2.1597,-2.1597,-2.1726,-2.176,-2.1774,-1.7317,-1.746,-1.7663,-1.8002,-1.8078,-1.8199,-1.9027,-1.8776,-1.8586,-1.9211,-1.9305,-1.9325,-1.9766,-2.0438,-2.1034,-2.1301,-2.1686,-2.2059,-2.2569,-2.2696,-2.2974,-2.3363,-2.3612,-2.3768,-2.3931,-2.4066,-2.4209,-2.4276,-2.429,-2.429,-2.429,-2.429,-2.4297,-2.4141,-2.4121,-2.4121,-2.4121,-2.3965,-2.389,-2.391,-2.3553,-2.3397,-2.3397,-2.3307,-2.3239,-2.3219,-2.3219,-2.3219,-2.3219,-2.3219,-2.3219,-2.3219,-2.3219,-2.3219,-2.3185,-2.2886,-2.2784,-2.2764,-2.2658,-2.2624,-2.2658,-2.273,-2.2886,-2.3029,-2.3008,-2.3117,-2.3185,-2.3049,-2.2907,-2.2784,-2.2764,-2.2784,-2.2784,-2.2798,-2.3008,-2.3185,-2.3049,-2.3029,-2.3029,-2.2995,-2.2764,-2.2644,-2.2603,-2.2624,-2.25,-2.2357,-2.2466,-2.25,-2.2357,-2.2215,-2.2127,-2.2127,-2.1862,-2.1638,-2.1429,-2.1455,-2.1389,-2.1389,-2.1389,-2.153,-2.1672,-2.1719,-2.1652,-2.1652,-2.1774,-2.1862,-2.1862,-2.1862,-2.1862,-2.1862,-2.2004,-2.2079,-1.7114,-1.7392,-1.7649,-1.7901,-1.8057,-1.8335,-1.904,-1.9183,-1.9305,-1.9875,-1.9942,-1.9963,-2.0119,-2.0682,-2.1197,-2.1341,-2.1774,-2.2181,-2.2642,-2.2744,-2.294,-2.3323,-2.3503,-2.3626,-2.3877,-2.3856,-2.3944,-2.4189,-2.4121,-2.41,-2.4134,-2.4209,-2.4175,-2.4121,-2.4033,-2.3978,-2.3978,-2.3734,-2.3612,-2.3612,-2.3431,-2.3377,-2.3377,-2.3293,-2.3219,-2.3219,-2.3219,-2.3219,-2.3219,-2.3219,-2.3219,-2.3219,-2.3219,-2.3219,-2.3185,-2.2886,-2.2784,-2.2744,-2.25,-2.2534,-2.2696,-2.2656,-2.2873,-2.3117,-2.292,-2.3029,-2.3185,-2.3049,-2.2907,-2.2798,-2.2907,-2.2852,-2.2832,-2.3008,-2.3137,-2.3205,-2.3151,-2.313,-2.3083,-2.2907,-2.2784,-2.2608,-2.2323,-2.2357,-2.2378,-2.2215,-2.2323,-2.2357,-2.2215,-2.2235,-2.2181,-2.1991,-2.1794,-2.1597,-2.1389,-2.1375,-2.1375,-2.1375,-2.1375,-2.1509,-2.1672,-2.1672,-2.1706,-2.1794,-2.1848,-2.1971,-2.216,-2.1971,-2.1991,-2.216,-2.2127,-2.2113,-1.6992,-1.7236,-1.7561,-1.7812,-1.8023,-1.8375,-1.9169,-1.9562,-1.9841,-2.0417,-2.0505,-2.0471,-2.0471,-2.0878,-2.1279,-2.1475,-2.1882,-2.2323,-2.273,-2.2818,-2.2995,-2.3275,-2.3343,-2.3465,-2.3734,-2.3714,-2.3768,-2.3965,-2.389,-2.3877,-2.3978,-2.4033,-2.4033,-2.3978,-2.3931,-2.3877,-2.3822,-2.3571,-2.3377,-2.3377,-2.3323,-2.3309,-2.3309,-2.3273,-2.3219,-2.3219,-2.3219,-2.3219,-2.3219,-2.3219,-2.3219,-2.3219,-2.3219,-2.3219,-2.3185,-2.2886,-2.2784,-2.2744,-2.2445,-2.2479,-2.2622,-2.252,-2.273,-2.2974,-2.2764,-2.2886,-2.3063,-2.2961,-2.2873,-2.2818,-2.2974,-2.2852,-2.2784,-2.3083,-2.3151,-2.3137,-2.3097,-2.3117,-2.3083,-2.2832,-2.271,-2.2554,-2.2235,-2.2181,-2.216,-2.2059,-2.2127,-2.2181,-2.2113,-2.2127,-2.2025,-2.1774,-2.1652,-2.155,-2.1389,-2.1375,-2.1375,-2.1375,-2.1496,-2.1564,-2.1672,-2.176,-2.1848,-2.195,-2.2038,-2.2181,-2.2268,-2.2215,-2.2235,-2.2268,-2.2323,-2.2269,-1.7019,-1.7087,-1.7304,-1.7758,-1.7915,-1.8255,-1.946,-1.9725,-1.9929,-2.0824,-2.0878,-2.077,-2.077,-2.1021,-2.1319,-2.1618,-2.2038,-2.2445,-2.2744,-2.2907,-2.3063,-2.3205,-2.3289,-2.3377,-2.3377,-2.3592,-2.368,-2.368,-2.368,-2.368,-2.368,-2.3822,-2.3822,-2.368,-2.3822,-2.3822,-2.368,-2.3524,-2.3377,-2.3377,-2.3293,-2.3219,-2.3219,-2.3219,-2.3219,-2.3219,-2.3219,-2.3219,-2.3219,-2.3219,-2.3219,-2.3219,-2.3219,-2.3219,-2.3185,-2.2886,-2.2784,-2.273,-2.2445,-2.2268,-2.2268,-2.2268,-2.2445,-2.2624,-2.2624,-2.2732,-2.2784,-2.2784,-2.2784,-2.2818,-2.2974,-2.2784,-2.2642,-2.294,-2.3008,-2.2974,-2.2818,-2.2907,-2.2974,-2.2818,-2.2554,-2.2268,-2.2268,-2.2093,-2.1882,-2.1882,-2.1882,-2.1937,-2.2093,-2.1848,-2.1618,-2.1455,-2.1375,-2.1375,-2.1375,-2.1375,-2.1375,-2.1375,-2.1584,-2.1672,-2.1672,-2.195,-2.2113,-2.2113,-2.2411,-2.2479,-2.2268,-2.2642,-2.2622,-2.2288,-2.2642,-2.2622,-1.6992,-1.7161,-1.7433,-1.7827,-1.8342,-1.8972,-1.9664,-1.9888,-2.0187,-2.098,-2.1109,-2.1055,-2.0946,-2.1177,-2.1441,-2.1638,-2.195,-2.2323,-2.273,-2.2818,-2.294,-2.3185,-2.3259,-2.3293,-2.3293,-2.3327,-2.3395,-2.3503,-2.3524,-2.3571,-2.368,-2.3714,-2.3714,-2.368,-2.3714,-2.3666,-2.3524,-2.3397,-2.3323,-2.3293,-2.3239,-2.3219,-2.3219,-2.3219,-2.3219,-2.3219,-2.3219,-2.3219,-2.3219,-2.3219,-2.3219,-2.3219,-2.3219,-2.3171,-2.3049,-2.2852,-2.271,-2.2588,-2.2411,-2.2411,-2.25,-2.2622,-2.2744,-2.2873,-2.2873,-2.2974,-2.3063,-2.2974,-2.294,-2.2961,-2.2995,-2.2873,-2.2784,-2.3083,-2.3151,-2.3151,-2.3097,-2.313,-2.3083,-2.2832,-2.2622,-2.2391,-2.2079,-2.2038,-2.1971,-2.176,-2.2004,-2.2215,-2.2269,-2.1916,-2.1686,-2.174,-2.1564,-2.1375,-2.1375,-2.1375,-2.1375,-2.1375,-2.1672,-2.1815,-2.1815,-2.2004,-2.216,-2.2269,-2.2466,-2.2534,-2.2479,-2.2644,-2.2644,-2.2479,-2.2479,-2.2425,-1.7141,-1.7372,-1.7724,-1.8267,-1.885,-1.9468,-2.0173,-2.0438,-2.0682,-2.1197,-2.1245,-2.1211,-2.1177,-2.1374,-2.1584,-2.1726,-2.2059,-2.2411,-2.273,-2.2832,-2.2961,-2.3185,-2.3219,-2.3219,-2.3219,-2.3219,-2.3259,-2.3347,-2.3289,-2.3395,-2.349,-2.3558,-2.3558,-2.3503,-2.3558,-2.3524,-2.3289,-2.3289,-2.3307,-2.3219,-2.3219,-2.3219,-2.3219,-2.3219,-2.3219,-2.3219,-2.3219,-2.3219,-2.3219,-2.3219,-2.3219,-2.3219,-2.3219,-2.313,-2.2995,-2.2832,-2.2746,-2.2603,-2.2445,-2.2445,-2.25,-2.2642,-2.2744,-2.2832,-2.2832,-2.292,-2.3029,-2.294,-2.2961,-2.2995,-2.294,-2.2907,-2.292,-2.3097,-2.313,-2.313,-2.313,-2.313,-2.3063,-2.2832,-2.2608,-2.2357,-2.2025,-2.195,-2.1848,-2.1618,-2.1916,-2.2147,-2.2079,-2.1937,-2.1828,-2.1794,-2.1638,-2.1509,-2.1441,-2.1375,-2.1375,-2.1375,-2.1726,-2.1882,-2.1882,-2.2147,-2.2323,-2.2432,-2.2567,-2.2678,-2.2624,-2.2678,-2.2588,-2.2466,-2.25,-2.2445,-1.7392,-1.7636,-1.8077,-1.8993,-1.9393,-1.9772,-2.0804,-2.1123,-2.1265,-2.1341,-2.1267,-2.1279,-2.1355,-2.1584,-2.1794,-2.1862,-2.2255,-2.2588,-2.2744,-2.2886,-2.3042,-2.3185,-2.3219,-2.3219,-2.3219,-2.3219,-2.3219,-2.3219,-2.3219,-2.3219,-2.3219,-2.3289,-2.3361,-2.3219,-2.3289,-2.3289,-2.3219,-2.3219,-2.3219,-2.3219,-2.3219,-2.3219,-2.3219,-2.3219,-2.3219,-2.3219,-2.3219,-2.3219,-2.3219,-2.3219,-2.3219,-2.3205,-2.3219,-2.3117,-2.2961,-2.2832,-2.2676,-2.2603,-2.2624,-2.2466,-2.2391,-2.2534,-2.2658,-2.2608,-2.2678,-2.271,-2.2818,-2.2818,-2.292,-2.2995,-2.2818,-2.2886,-2.3008,-2.2995,-2.2995,-2.3008,-2.3029,-2.3029,-2.2974,-2.2818,-2.2567,-2.2323,-2.2147,-2.1903,-2.1686,-2.1477,-2.174,-2.1862,-2.174,-2.195,-2.2004,-2.174,-2.1686,-2.1618,-2.1409,-2.1441,-2.1375,-2.1375,-2.1706,-2.1862,-2.1882,-2.2303,-2.2603,-2.2624,-2.271,-2.271,-2.2644,-2.271,-2.2642,-2.2322,-2.2642,-2.2622,-1.744,-1.7595,-1.7968,-1.9094,-2.0031,-2.0756,-2.1089,-2.1279,-2.1341,-2.1375,-2.1355,-2.1341,-2.1375,-2.1652,-2.1848,-2.1882,-2.2167,-2.2432,-2.2588,-2.273,-2.2886,-2.3042,-2.3151,-2.3219,-2.3219,-2.3219,-2.3219,-2.3219,-2.3219,-2.3219,-2.3219,-2.3259,-2.3259,-2.3219,-2.3259,-2.3259,-2.3219,-2.3219,-2.3219,-2.3219,-2.3219,-2.3219,-2.3219,-2.3219,-2.3219,-2.3219,-2.3219,-2.3219,-2.3219,-2.3219,-2.3151,-2.3063,-2.3185,-2.2995,-2.2732,-2.2744,-2.2608,-2.2391,-2.252,-2.2534,-2.2554,-2.2818,-2.2907,-2.294,-2.3049,-2.3097,-2.313,-2.313,-2.3151,-2.3117,-2.2852,-2.2886,-2.2974,-2.2852,-2.292,-2.3042,-2.3151,-2.3171,-2.3097,-2.2832,-2.273,-2.2567,-2.2181,-2.216,-2.2181,-2.2078,-2.2093,-2.2093,-2.2181,-2.2147,-2.2093,-2.2025,-2.1815,-2.1652,-2.1618,-2.1509,-2.1375,-2.1375,-2.1618,-2.176,-2.1882,-2.2201,-2.2445,-2.2624,-2.271,-2.2764,-2.273,-2.2764,-2.2744,-2.2696,-2.2692,-2.2567,-1.7473,-1.7805,-1.8332,-1.9732,-2.0492,-2.0967,-2.1245,-2.1267,-2.1353,-2.1421,-2.1496,-2.155,-2.155,-2.1794,-2.1991,-2.1991,-2.2255,-2.25,-2.2642,-2.2798,-2.294,-2.3097,-2.3171,-2.3219,-2.3219,-2.3219,-2.3219,-2.3219,-2.3219,-2.3219,-2.3219,-2.3219,-2.3219,-2.3219,-2.3219,-2.3219,-2.3219,-2.3219,-2.3219,-2.3219,-2.3219,-2.3219,-2.3219,-2.3219,-2.3219,-2.3219,-2.3219,-2.3219,-2.3219,-2.3219,-2.3185,-2.3117,-2.3185,-2.2995,-2.2676,-2.2744,-2.2588,-2.2308,-2.2588,-2.2678,-2.2608,-2.2907,-2.3008,-2.3029,-2.3097,-2.3171,-2.3219,-2.3219,-2.3219,-2.3171,-2.294,-2.2886,-2.2886,-2.2798,-2.2907,-2.3049,-2.3185,-2.3219,-2.3171,-2.3029,-2.294,-2.2764,-2.2391,-2.2215,-2.2127,-2.2127,-2.2113,-2.2147,-2.2215,-2.2215,-2.2201,-2.2113,-2.1903,-2.174,-2.1739,-2.153,-2.1375,-2.1375,-2.1584,-2.1706,-2.1774,-2.2072,-2.2344,-2.2624,-2.271,-2.2784,-2.2784,-2.2784,-2.2744,-2.2676,-2.2732,-2.2692,-1.7399,-1.8111,-1.9006,-2.0363,-2.0756,-2.0912,-2.1279,-2.1279,-2.1245,-2.1367,-2.153,-2.1638,-2.1638,-2.1862,-2.2079,-2.2079,-2.2344,-2.2608,-2.273,-2.2907,-2.3049,-2.3171,-2.3205,-2.3219,-2.3219,-2.3219,-2.3219,-2.3219,-2.3219,-2.3219,-2.3219,-2.3219,-2.3219,-2.3219,-2.3219,-2.3219,-2.3219,-2.3219,-2.3219,-2.3219,-2.3219,-2.3219,-2.3219,-2.3219,-2.3219,-2.3219,-2.3219,-2.3219,-2.3219,-2.3219,-2.3205,-2.3185,-2.3205,-2.3049,-2.2784,-2.2818,-2.2656,-2.2466,-2.273,-2.2744,-2.2676,-2.2961,-2.3042,-2.3042,-2.3042,-2.313,-2.3219,-2.3219,-2.3219,-2.3185,-2.3008,-2.2873,-2.2784,-2.2744,-2.2852,-2.3008,-2.3151,-2.3205,-2.3205,-2.3151,-2.3008,-2.2818,-2.2658,-2.2221,-2.195,-2.195,-2.2072,-2.2147,-2.2147,-2.22,-2.2289,-2.216,-2.2004,-2.1862,-2.1726,-2.1564,-2.1409,-2.1375,-2.1564,-2.1652,-2.1706,-2.1937,-2.2215,-2.252,-2.2656,-2.2744,-2.2784,-2.2744,-2.271,-2.2642,-2.273,-2.271,-1.7168,-1.8267,-1.9421,-2.0207,-2.0682,-2.098,-2.1055,-2.1143,-2.1211,-2.1231,-2.1367,-2.1409,-2.1409,-2.1706,-2.1916,-2.1916,-2.2338,-2.2624,-2.2588,-2.2832,-2.3008,-2.3029,-2.3151,-2.3219,-2.3219,-2.3219,-2.3219,-2.3219,-2.3219,-2.3219,-2.3219,-2.3219,-2.3219,-2.3219,-2.3219,-2.3219,-2.3219,-2.3219,-2.3219,-2.3219,-2.3219,-2.3219,-2.3219,-2.3219,-2.3219,-2.3219,-2.3219,-2.3219,-2.3219,-2.3219,-2.3151,-2.3049,-2.3171,-2.3049,-2.2798,-2.292,-2.2873,-2.2744,-2.292,-2.2974,-2.2974,-2.313,-2.3185,-2.3185,-2.3185,-2.3205,-2.3219,-2.3219,-2.3219,-2.3151,-2.2886,-2.2798,-2.2744,-2.2622,-2.2767,-2.2852,-2.3008,-2.313,-2.3151,-2.2886,-2.2622,-2.2466,-2.2603,-2.2391,-2.222,-2.222,-2.2234,-2.2303,-2.2303,-2.2323,-2.2268,-2.2303,-2.216,-2.2025,-2.1862,-2.1726,-2.1584,-2.1441,-2.1455,-2.1584,-2.1848,-2.1903,-2.2059,-2.2357,-2.252,-2.2712,-2.2784,-2.2712,-2.271,-2.294,-2.2832,-2.2764,-1.7521,-1.8301,-1.9149,-2.0036,-2.0471,-2.0682,-2.0946,-2.1109,-2.1211,-2.1211,-2.1333,-2.1455,-2.155,-2.1815,-2.2004,-2.2004,-2.2391,-2.2676,-2.2676,-2.2873,-2.3008,-2.3008,-2.3063,-2.3063,-2.2974,-2.3117,-2.3185,-2.3117,-2.3171,-2.3219,-2.3219,-2.3219,-2.3219,-2.3219,-2.3219,-2.3219,-2.3219,-2.3219,-2.3219,-2.3219,-2.3219,-2.3219,-2.3219,-2.3219,-2.3219,-2.3219,-2.3219,-2.3219,-2.3219,-2.3219,-2.3185,-2.313,-2.3205,-2.3097,-2.292,-2.2995,-2.2907,-2.2798,-2.2852,-2.2886,-2.2907,-2.3063,-2.3097,-2.3117,-2.3205,-2.3219,-2.3219,-2.3219,-2.3171,-2.3083,-2.294,-2.2784,-2.2656,-2.2676,-2.2732,-2.2696,-2.2852,-2.2995,-2.3042,-2.2818,-2.2608,-2.2479,-2.2603,-2.25,-2.2432,-2.2288,-2.2411,-2.2432,-2.2288,-2.2268,-2.2268,-2.2268,-2.2201,-2.2038,-2.1903,-2.176,-2.1597,-2.1389,-2.1375,-2.153,-2.176,-2.1848,-2.1991,-2.2201,-2.2432,-2.2658,-2.2656,-2.2676,-2.271,-2.2744,-2.2784,-2.2784,-1.7534,-1.8002,-1.8511,-1.9644,-2.0051,-2.0275,-2.0736,-2.0967,-2.1109,-2.1143,-2.1279,-2.1421,-2.1584,-2.1848,-2.2059,-2.2059,-2.2432,-2.273,-2.273,-2.2852,-2.2961,-2.2961,-2.2961,-2.2907,-2.2798,-2.2974,-2.3083,-2.3008,-2.3117,-2.3185,-2.3219,-2.3219,-2.3219,-2.3219,-2.3219,-2.3219,-2.3219,-2.3219,-2.3219,-2.3219,-2.3219,-2.3219,-2.3219,-2.3219,-2.3219,-2.3219,-2.3219,-2.3219,-2.3219,-2.3219,-2.3219,-2.3219,-2.3219,-2.313,-2.3008,-2.3008,-2.2907,-2.2784,-2.2784,-2.2784,-2.2798,-2.2961,-2.3008,-2.3042,-2.3185,-2.3205,-2.3171,-2.3205,-2.3117,-2.2995,-2.2961,-2.2818,-2.2676,-2.2676,-2.2642,-2.2712,-2.2764,-2.2832,-2.2873,-2.2798,-2.2656,-2.2644,-2.2608,-2.2678,-2.2567,-2.2411,-2.2479,-2.25,-2.2357,-2.2268,-2.2268,-2.2268,-2.2201,-2.2038,-2.1903,-2.176,-2.1597,-2.1389,-2.1475,-2.1564,-2.1726,-2.1862,-2.2004,-2.216,-2.2391,-2.25,-2.25,-2.2608,-2.2622,-2.2624,-2.2676,-2.273,-1.6642,-1.7088,-1.7704,-1.862,-1.933,-1.982,-2.0261,-2.0594,-2.0845,-2.098,-2.1123,-2.1265,-2.1421,-2.1686,-2.1903,-2.1903,-2.2269,-2.2644,-2.2644,-2.2767,-2.2798,-2.2798,-2.2798,-2.2784,-2.2784,-2.2798,-2.2873,-2.2995,-2.3008,-2.3083,-2.3219,-2.3219,-2.3219,-2.3219,-2.3219,-2.3219,-2.3219,-2.3219,-2.3219,-2.3219,-2.3219,-2.3219,-2.3219,-2.3219,-2.3219,-2.3219,-2.3219,-2.3219,-2.3219,-2.3219,-2.3219,-2.3219,-2.3219,-2.313,-2.3008,-2.3008,-2.2907,-2.2784,-2.2784,-2.2784,-2.2798,-2.2961,-2.3008,-2.3042,-2.3185,-2.313,-2.3049,-2.3185,-2.3117,-2.2974,-2.2832,-2.2886,-2.2886,-2.2466,-2.2567,-2.2764,-2.2784,-2.2676,-2.2692,-2.2744,-2.2656,-2.2608,-2.2744,-2.2764,-2.271,-2.2644,-2.2624,-2.25,-2.2357,-2.2268,-2.2268,-2.2268,-2.2201,-2.2038,-2.1903,-2.176,-2.1597,-2.1389,-2.1584,-2.1726,-2.1862,-2.2025,-2.216,-2.2323,-2.2337,-2.2288,-2.2288,-2.2288,-2.2432,-2.2624,-2.2624,-2.2644,-1.6802,-1.708,-1.7467,-1.8287,-1.8782,-1.9228,-1.9522,-1.9997,-2.0417,-2.0648,-2.0912,-2.1157,-2.1387,-2.1686,-2.1882,-2.1882,-2.2324,-2.2658,-2.2696,-2.2732,-2.2676,-2.2764,-2.2784,-2.271,-2.2513,-2.2832,-2.2974,-2.273,-2.2974,-2.313,-2.3083,-2.3171,-2.3219,-2.3219,-2.3219,-2.3219,-2.3219,-2.3219,-2.3219,-2.3219,-2.3219,-2.3219,-2.3219,-2.3219,-2.3219,-2.3219,-2.3219,-2.3219,-2.3219,-2.3219,-2.3219,-2.3219,-2.3219,-2.3185,-2.313,-2.3042,-2.3029,-2.3042,-2.2852,-2.2852,-2.294,-2.2995,-2.3008,-2.3042,-2.3185,-2.3185,-2.3151,-2.3205,-2.3117,-2.2995,-2.294,-2.2907,-2.2818,-2.2656,-2.271,-2.2744,-2.2656,-2.252,-2.2432,-2.2479,-2.2445,-2.2466,-2.2608,-2.2642,-2.2692,-2.2624,-2.2624,-2.25,-2.2357,-2.2268,-2.2303,-2.2201,-2.2147,-2.2004,-2.176,-2.1706,-2.1597,-2.1389,-2.1584,-2.174,-2.1882,-2.2025,-2.2181,-2.2268,-2.2268,-2.2268,-2.2268,-2.2268,-2.2357,-2.2411,-2.2411,-2.2466,-1.67,-1.6897,-1.7222,-1.7982,-1.8321,-1.8606,-1.9149,-1.9556,-1.9922,-2.032,-2.0627,-2.0878,-2.1231,-2.153,-2.176,-2.1862,-2.2181,-2.2466,-2.2608,-2.2554,-2.252,-2.2622,-2.2642,-2.2554,-2.2288,-2.2744,-2.2886,-2.2712,-2.2961,-2.313,-2.3083,-2.3171,-2.3219,-2.3219,-2.3219,-2.3219,-2.3219,-2.3219,-2.3219,-2.3219,-2.3171,-2.3171,-2.3219,-2.3117,-2.313,-2.3219,-2.3171,-2.3151,-2.3151,-2.3151,-2.3151,-2.3151,-2.3151,-2.3117,-2.3063,-2.3029,-2.3008,-2.2974,-2.2832,-2.2852,-2.294,-2.2995,-2.2974,-2.2974,-2.3171,-2.3151,-2.3097,-2.3185,-2.3117,-2.3008,-2.3008,-2.2907,-2.2784,-2.2784,-2.2744,-2.2676,-2.2644,-2.2445,-2.2288,-2.2411,-2.2445,-2.252,-2.2608,-2.2676,-2.2676,-2.2644,-2.2624,-2.25,-2.2357,-2.2268,-2.2303,-2.2201,-2.2093,-2.195,-2.176,-2.1652,-2.1564,-2.153,-2.1652,-2.1815,-2.195,-2.2113,-2.2235,-2.2268,-2.2268,-2.2268,-2.2268,-2.2268,-2.2268,-2.2268,-2.2268,-2.2411,0.0,0.0,0.0,-1.7704,-1.7902,-1.8167,-1.9128,-1.9271,-1.9379,-2.0139,-2.0246,-2.0451,-2.0912,-2.1231,-2.153,-2.1815,-2.2004,-2.216,-2.2254,-2.2268,-2.2268,-2.2337,-2.2337,-2.2337,-2.2268,-2.2479,-2.2692,-2.2764,-2.292,-2.3063,-2.3205,-2.3219,-2.3219,-2.3219,-2.3219,-2.3219,-2.3219,-2.3219,-2.3219,-2.3219,-2.3083,-2.3083,-2.3205,-2.292,-2.294,-2.3205,-2.3063,-2.3008,-2.3008,-2.3008,-2.3008,-2.3008,-2.3008,-2.292,-2.2798,-2.2961,-2.2818,-2.2658,-2.273,-2.2784,-2.2818,-2.2974,-2.2907,-2.2832,-2.313,-2.3029,-2.2852,-2.3137,-2.3117,-2.3008,-2.3008,-2.2907,-2.2784,-2.2784,-2.2676,-2.2624,-2.2624,-2.2445,-2.2378,-2.252,-2.2676,-2.2784,-2.2784,-2.2907,-2.2886,-2.2608,-2.2624,-2.25,-2.2357,-2.2268,-2.2268,-2.2268,-2.2059,-2.1882,-2.1882,-2.1618,-2.1509,-2.1672,-2.1815,-2.195,-2.2113,-2.2249,-2.2268,-2.2268,-2.2268,-2.2268,-2.2268,-2.2268,-2.2268,-2.2337,-2.2337,-2.2425,-1.6435,0.0,0.0,0.0,0.0,0.0,-1.7914,-1.8199,-1.8599,-1.9359,-1.9698,-2.0051,-2.0716,-2.1001,-2.1177,-2.1374,-2.1794,-2.216,-2.2254,-2.2268,-2.2378,-2.2479,-2.25,-2.2445,-2.2288,-2.2567,-2.2696,-2.2692,-2.2764,-2.2907,-2.3063,-2.3171,-2.3219,-2.3219,-2.3219,-2.3219,-2.3219,-2.3219,-2.3219,-2.3219,-2.3083,-2.3029,-2.3063,-2.2873,-2.2886,-2.3063,-2.3029,-2.3008,-2.3008,-2.3008,-2.3063,-2.3151,-2.3049,-2.2995,-2.2961,-2.2995,-2.2961,-2.2886,-2.294,-2.294,-2.2974,-2.3117,-2.3063,-2.2974,-2.3171,-2.3171,-2.3117,-2.3205,-2.3185,-2.313,-2.3042,-2.2974,-2.294,-2.294,-2.2744,-2.2658,-2.2696,-2.252,-2.2288,-2.2391,-2.252,-2.2692,-2.2692,-2.2656,-2.2656,-2.2644,-2.2466,-2.2391,-2.2337,-2.2268,-2.2234,-2.2181,-2.2093,-2.2004,-2.1903,-2.1815,-2.1774,-2.1828,-2.1971,-2.2059,-2.2113,-2.2249,-2.2268,-2.2268,-2.2268,-2.2268,-2.2268,-2.2268,-2.2391,-2.25,-2.25,-2.252,-1.6466,-1.668,-1.6897,-1.7114,0.0,0.0,-1.7629,-1.7806,-1.8145,-1.8952,-1.9305,-1.9664,-2.0344,-2.0627,-2.0845,-2.0912,-2.1441,-2.1896,-2.2113,-2.2249,-2.2391,-2.2603,-2.2624,-2.252,-2.2432,-2.2588,-2.2712,-2.2624,-2.2744,-2.294,-2.3097,-2.3171,-2.3219,-2.3219,-2.3219,-2.3219,-2.3219,-2.3219,-2.3219,-2.3219,-2.3008,-2.2974,-2.3083,-2.2744,-2.2778,-2.3097,-2.2974,-2.2995,-2.3097,-2.3029,-2.3063,-2.313,-2.3042,-2.3008,-2.3008,-2.3083,-2.3063,-2.3008,-2.3083,-2.3097,-2.3117,-2.3185,-2.3083,-2.294,-2.3083,-2.3049,-2.2974,-2.3097,-2.313,-2.3097,-2.2961,-2.292,-2.292,-2.292,-2.273,-2.2658,-2.2744,-2.2554,-2.2268,-2.2268,-2.2445,-2.2534,-2.2479,-2.252,-2.2534,-2.2466,-2.2391,-2.2268,-2.2268,-2.2268,-2.2303,-2.2215,-2.2147,-2.2079,-2.1991,-2.1916,-2.1916,-2.1971,-2.2059,-2.2147,-2.2201,-2.2289,-2.2268,-2.2268,-2.2268,-2.2308,-2.2432,-2.2308,-2.2411,-2.2624,-2.2692,-2.2712,-1.6612,-1.6781,-1.7066,-1.7331,-1.7222,0.0,-1.7846,-1.7751,-1.7805,-1.8708,-1.8993,-1.9217,-1.9712,-2.0139,-2.0417,-2.0438,-2.0881,-2.1455,-2.1815,-2.2127,-2.2378,-2.252,-2.2534,-2.2534,-2.2534,-2.2534,-2.2603,-2.2624,-2.2832,-2.3063,-2.3171,-2.3205,-2.3219,-2.3219,-2.3219,-2.3219,-2.3205,-2.3219,-2.3219,-2.3185,-2.292,-2.292,-2.3151,-2.2601,-2.2656,-2.3151,-2.2907,-2.2961,-2.3205,-2.3083,-2.3029,-2.3029,-2.3008,-2.3008,-2.3029,-2.3171,-2.313,-2.3029,-2.3171,-2.3205,-2.3205,-2.3205,-2.3029,-2.2832,-2.2961,-2.2798,-2.2656,-2.294,-2.3008,-2.2974,-2.2818,-2.2764,-2.2764,-2.2764,-2.2642,-2.2644,-2.273,-2.2534,-2.2268,-2.2268,-2.2445,-2.2569,-2.2357,-2.2466,-2.25,-2.2357,-2.2268,-2.2268,-2.2268,-2.2268,-2.2268,-2.2268,-2.2215,-2.2127,-2.2127,-2.2004,-2.1991,-2.2127,-2.2127,-2.2201,-2.2268,-2.2268,-2.2268,-2.2268,-2.2268,-2.2411,-2.2624,-2.2445,-2.2445,-2.2658,-2.273,-2.2798,-1.6931,-1.7019,-1.7161,-1.7222,-1.7378,0.0,-1.7392,-1.7419,-1.7616,-1.8158,-1.8287,-1.8511,-1.9203,-1.9501,-1.9698,-1.982,-2.0329,-2.0946,-2.1618,-2.1971,-2.2215,-2.2357,-2.2378,-2.2378,-2.2378,-2.2378,-2.2432,-2.2624,-2.2832,-2.2974,-2.2873,-2.3097,-2.3219,-2.3219,-2.3219,-2.3171,-2.3049,-2.3171,-2.3171,-2.3049,-2.2873,-2.2818,-2.2852,-2.2622,-2.2642,-2.2873,-2.294,-2.3063,-2.3219,-2.3185,-2.3185,-2.3171,-2.3063,-2.3008,-2.3029,-2.3171,-2.313,-2.3029,-2.3171,-2.3151,-2.3049,-2.3049,-2.3008,-2.294,-2.2852,-2.2873,-2.294,-2.2995,-2.3008,-2.2974,-2.2818,-2.2696,-2.2608,-2.2608,-2.2479,-2.2425,-2.2567,-2.2466,-2.2268,-2.2268,-2.2445,-2.2569,-2.2357,-2.2466,-2.25,-2.2357,-2.2268,-2.2268,-2.2268,-2.2268,-2.2268,-2.2268,-2.2303,-2.2289,-2.2289,-2.2269,-2.22,-2.2289,-2.2289,-2.2303,-2.2268,-2.2268,-2.2268,-2.2268,-2.2268,-2.2411,-2.2624,-2.2642,-2.271,-2.2744,-2.2886,-2.2961,-1.708,-1.7141,-1.7324,-1.7399,-1.7419,0.0,0.0,-1.7412,-1.7453,-1.7989,-1.8036,-1.8165,-1.8762,-1.9061,-1.9291,-1.9501,-2.0051,-2.053,-2.1034,-2.1564,-2.1971,-2.2201,-2.2235,-2.2235,-2.2235,-2.2289,-2.2391,-2.2603,-2.2764,-2.2907,-2.2886,-2.3097,-2.3219,-2.3219,-2.3219,-2.3185,-2.3117,-2.3117,-2.3117,-2.3117,-2.2818,-2.2744,-2.2886,-2.2588,-2.2608,-2.2886,-2.2907,-2.3029,-2.3219,-2.3219,-2.3219,-2.3219,-2.3151,-2.3117,-2.3117,-2.3205,-2.3171,-2.313,-2.3205,-2.3171,-2.3097,-2.3029,-2.2961,-2.2886,-2.2798,-2.2886,-2.3008,-2.3008,-2.2961,-2.2886,-2.2798,-2.2622,-2.2466,-2.2603,-2.2445,-2.2378,-2.259,-2.2445,-2.2268,-2.2268,-2.2391,-2.2432,-2.2288,-2.2391,-2.2432,-2.2288,-2.2268,-2.2268,-2.2268,-2.2268,-2.2268,-2.2268,-2.2268,-2.2268,-2.2268,-2.2268,-2.2268,-2.2268,-2.2268,-2.2268,-2.2268,-2.2268,-2.2268,-2.2268,-2.2268,-2.2411,-2.2624,-2.2692,-2.2744,-2.2907,-2.3049,-2.3117,-1.7344,-1.7392,-1.7602,-1.7575,-1.7528,-1.7473,0.0,0.0,0.0,-1.7894,-1.7914,-1.7935,-1.8335,-1.864,-1.8918,-1.9257,-1.9786,-2.0158,-2.0383,-2.098,-2.155,-2.1903,-2.1971,-2.1984,-2.1984,-2.2004,-2.2201,-2.2481,-2.2567,-2.273,-2.2907,-2.3117,-2.3205,-2.3185,-2.3205,-2.3205,-2.3185,-2.3063,-2.3063,-2.3171,-2.2784,-2.273,-2.2961,-2.2622,-2.2656,-2.2961,-2.2886,-2.2995,-2.3219,-2.3219,-2.3205,-2.3185,-2.3205,-2.3219,-2.3219,-2.3219,-2.3219,-2.3219,-2.3219,-2.3219,-2.3205,-2.3063,-2.2907,-2.2784,-2.2784,-2.2873,-2.2961,-2.2961,-2.2852,-2.273,-2.273,-2.2534,-2.2308,-2.2479,-2.2432,-2.2308,-2.2479,-2.2425,-2.2268,-2.2268,-2.2268,-2.2268,-2.2268,-2.2268,-2.2268,-2.2268,-2.2268,-2.2268,-2.2268,-2.2268,-2.2268,-2.2268,-2.2268,-2.2268,-2.2268,-2.2268,-2.2268,-2.2268,-2.2268,-2.2268,-2.2268,-2.2268,-2.2268,-2.2268,-2.2268,-2.2411,-2.2624,-2.2624,-2.271,-2.3008,-2.313,-2.3185,-1.8091,-1.8091,-1.8124,-1.7683,-1.7914,-1.807,-1.7582,0.0,-1.7561,-1.7629,0.0,-1.7717,-1.7956,0.0,0.0,-1.882,-1.9237,-1.9624,-1.9908,-2.0261,-2.0682,-2.1245,-2.1441,-2.1509,-2.1509,-2.1408,-2.1509,-2.1937,-2.2093,-2.2303,-2.2658,-2.2995,-2.3171,-2.3042,-2.3151,-2.3171,-2.3029,-2.3008,-2.3008,-2.3029,-2.2852,-2.2784,-2.2818,-2.2886,-2.2886,-2.2818,-2.3063,-2.3185,-2.3219,-2.3219,-2.3151,-2.3042,-2.3171,-2.3219,-2.3219,-2.3219,-2.3219,-2.3219,-2.3219,-2.3219,-2.3205,-2.3063,-2.2907,-2.2784,-2.2784,-2.2798,-2.2798,-2.2798,-2.2767,-2.2644,-2.2644,-2.2466,-2.2337,-2.2357,-2.2288,-2.2337,-2.2357,-2.2288,-2.2268,-2.2268,-2.2268,-2.2268,-2.2268,-2.2268,-2.2268,-2.2268,-2.2268,-2.2268,-2.2268,-2.2268,-2.2268,-2.2268,-2.2268,-2.2268,-2.2268,-2.2268,-2.2268,-2.2268,-2.2268,-2.2268,-2.2268,-2.2268,-2.2268,-2.2268,-2.2268,-2.2411,-2.2624,-2.2624,-2.271,-2.3008,-2.3029,-2.3029,-1.8199,-1.8321,-1.8464,-1.8023,-1.8057,-1.807,-1.7595,-1.7399,-1.7311,-1.7426,0.0,0.0,0.0,0.0,0.0,0.0,-1.9081,-1.9447,-1.9481,-1.982,-2.0261,-2.077,-2.0814,-2.0949,-2.1279,-2.1177,-2.1245,-2.1597,-2.1774,-2.1991,-2.2289,-2.2642,-2.2852,-2.2873,-2.3029,-2.3063,-2.3008,-2.3008,-2.3049,-2.313,-2.2886,-2.2832,-2.2907,-2.2886,-2.2886,-2.292,-2.3049,-2.3151,-2.3219,-2.313,-2.3063,-2.3008,-2.3083,-2.3097,-2.3117,-2.3185,-2.3219,-2.3219,-2.3219,-2.3219,-2.3205,-2.3063,-2.2974,-2.292,-2.292,-2.292,-2.294,-2.3008,-2.2798,-2.2644,-2.2732,-2.252,-2.2268,-2.2268,-2.2268,-2.2268,-2.2268,-2.2268,-2.2268,-2.2268,-2.2268,-2.2268,-2.2268,-2.2268,-2.2268,-2.2268,-2.2268,-2.2268,-2.2268,-2.2268,-2.2268,-2.2268,-2.2268,-2.2268,-2.2268,-2.2268,-2.2268,-2.2268,-2.2268,-2.2268,-2.2268,-2.2268,-2.2268,-2.2268,-2.2268,-2.2308,-2.2432,-2.2432,-2.2534,-2.2744,-2.2832,-2.2873,-1.8375,-1.8565,-1.8742,-1.8179,-1.8057,-1.7989,-1.7554,-1.7399,-1.7324,-1.7453,-1.7473,0.0,0.0,0.0,-1.8179,-1.8586,0.0,-1.9291,-1.9217,-1.9481,-1.9834,-2.0261,-2.0404,-2.0564,-2.1001,-2.0858,-2.0912,-2.1233,-2.1387,-2.1584,-2.1971,-2.2303,-2.2554,-2.2656,-2.2886,-2.3008,-2.3008,-2.3008,-2.3063,-2.3171,-2.294,-2.2886,-2.294,-2.292,-2.294,-2.3008,-2.3049,-2.313,-2.3219,-2.3117,-2.3042,-2.3008,-2.3049,-2.3042,-2.3029,-2.3171,-2.3219,-2.3219,-2.3219,-2.3219,-2.3185,-2.3008,-2.2974,-2.2995,-2.2907,-2.292,-2.2974,-2.3083,-2.2832,-2.2644,-2.2696,-2.2534,-2.2268,-2.2268,-2.2268,-2.2268,-2.2268,-2.2268,-2.2268,-2.2268,-2.2268,-2.2268,-2.2268,-2.2268,-2.2268,-2.2268,-2.2268,-2.2268,-2.2268,-2.2268,-2.2268,-2.2268,-2.2268,-2.2268,-2.2268,-2.2268,-2.2288,-2.2391,-2.2391,-2.2411,-2.2466,-2.2466,-2.2445,-2.2391,-2.2391,-2.2391,-2.2391,-2.2357,-2.2411,-2.2624,-2.2732,-2.278,-1.8963,-1.8959,-1.8972,-1.8147,-1.7989,-1.7935,-1.7344,-1.765,-1.7982,-1.7649,-1.8213,-1.8677,-1.8355,-1.8409,-1.8562,-1.8918,-1.8993,0.0,0.0,-1.9217,-1.9345,-1.9664,-2.0064,-2.0334,-2.0539,-2.0295,-2.0383,-2.0967,-2.0878,-2.112,-2.1652,-2.2113,-2.2288,-2.2288,-2.2778,-2.3008,-2.3008,-2.3008,-2.3008,-2.3008,-2.3008,-2.292,-2.2798,-2.3083,-2.313,-2.3008,-2.3151,-2.3219,-2.3219,-2.3219,-2.313,-2.3029,-2.3171,-2.313,-2.3029,-2.3171,-2.3219,-2.3219,-2.3219,-2.3219,-2.3171,-2.2886,-2.2886,-2.2961,-2.2656,-2.2676,-2.2784,-2.2798,-2.2676,-2.2624,-2.2624,-2.2445,-2.2268,-2.2268,-2.2268,-2.2268,-2.2268,-2.2268,-2.2268,-2.2268,-2.2268,-2.2268,-2.2268,-2.2268,-2.2268,-2.2268,-2.2268,-2.2268,-2.2268,-2.2268,-2.2268,-2.2268,-2.2268,-2.2268,-2.2268,-2.2268,-2.2391,-2.2603,-2.2624,-2.2678,-2.2764,-2.2764,-2.2696,-2.2624,-2.2624,-2.2624,-2.2624,-2.2411,-2.2411,-2.2624,-2.2624,-2.2624,-1.9257,-1.9501,-1.959,-1.8732,-1.8555,-1.8378,-1.7528,-1.765,-1.786,-1.7561,-1.8023,-1.8409,-1.8213,-1.8375,-1.8599,-1.8816,-1.9006,-1.9115,0.0,-1.9061,-1.9169,-1.9468,-1.982,-2.0051,-2.0098,-2.0187,-2.0329,-2.0539,-2.0594,-2.079,-2.1211,-2.1652,-2.1937,-2.2038,-2.2479,-2.271,-2.271,-2.2818,-2.2852,-2.2852,-2.2852,-2.2886,-2.294,-2.3029,-2.3063,-2.3008,-2.3171,-2.3171,-2.3083,-2.3083,-2.3049,-2.3008,-2.3063,-2.3049,-2.3029,-2.3171,-2.3219,-2.3219,-2.3219,-2.3219,-2.3205,-2.3097,-2.3117,-2.313,-2.3029,-2.2961,-2.2961,-2.3049,-2.2818,-2.2644,-2.2676,-2.252,-2.2268,-2.2268,-2.2268,-2.2268,-2.2268,-2.2268,-2.2268,-2.2268,-2.2268,-2.2268,-2.2268,-2.2268,-2.2268,-2.2268,-2.2268,-2.2268,-2.2268,-2.2268,-2.2268,-2.2268,-2.2268,-2.2268,-2.2268,-2.2432,-2.25,-2.2624,-2.2712,-2.273,-2.2784,-2.2784,-2.2764,-2.271,-2.271,-2.271,-2.271,-2.2554,-2.25,-2.2624,-2.2466,-2.2411,-1.9698,-1.9922,-2.001,-1.9271,-1.914,-1.885,-1.7948,-1.8091,-1.8301,-1.7894,-1.8247,-1.8654,-1.8708,-1.8742,-1.8816,-1.8972,-1.9115,-1.9128,0.0,-1.8959,-1.9094,-1.9393,-1.9644,-1.9916,-2.001,-2.0064,-2.0153,-2.0315,-2.0315,-2.0451,-2.0824,-2.1265,-2.1597,-2.1794,-2.2235,-2.25,-2.2624,-2.271,-2.2744,-2.2767,-2.2764,-2.2832,-2.292,-2.2995,-2.3042,-2.3097,-2.3185,-2.3171,-2.3083,-2.3083,-2.3083,-2.3083,-2.3083,-2.3083,-2.3097,-2.3185,-2.3219,-2.3219,-2.3219,-2.3219,-2.3219,-2.3171,-2.3151,-2.313,-2.3008,-2.2995,-2.3008,-2.2995,-2.2818,-2.2712,-2.2696,-2.252,-2.2268,-2.2268,-2.2268,-2.2268,-2.2268,-2.2268,-2.2268,-2.2268,-2.2268,-2.2268,-2.2268,-2.2268,-2.2268,-2.2268,-2.2268,-2.2268,-2.2268,-2.2268,-2.2268,-2.2268,-2.2268,-2.2357,-2.2411,-2.25,-2.2608,-2.271,-2.2818,-2.2886,-2.294,-2.294,-2.292,-2.2873,-2.2873,-2.2873,-2.2873,-2.271,-2.2642,-2.2692,-2.2479,-2.2391]},{"header":{"parameterUnit":"m.s-1","parameterCategory":1,"la1":30.6,"la2":29.2853,"lo1":-89.7004,"lo2":-87.6739,"dy":0.0162,"dx":0.0183,"nx":112,"ny":82,"refTime":"2024-06-16T18:00:00:Z","depth":0,"parameterNumber":3,"parameterNumberName":"V-component_of_WINDS"},"data":[0.0,0.0,0.0,0.0,0.0,0.0,0.0,0.0,0.0,0.0,0.0,0.0,0.0,0.0,0.0,0.0,0.0,0.0,0.0,0.0,0.0,0.0,0.0,0.0,0.0,0.0,0.0,0.0,0.0,0.0,0.0,0.0,0.0,0.0,0.0,0.0,0.0,0.0,0.0,0.0,0.0,0.0,0.0,0.0,0.0,0.0,0.0,0.0,0.0,0.0,0.0,0.0,0.0,0.0,0.0,0.0,0.0,0.0,0.0,0.0,0.0,0.0,0.0,0.0,0.0,0.0,0.0,0.0,0.0,0.0,0.0,0.0,0.0,0.0,0.0,0.0,0.0,0.0,0.0,0.0,0.0,0.0,0.0,0.0,0.0,0.0,0.0,0.0,0.0,0.0,7.9318,8.2485,8.5555,8.7093,8.6353,8.5924,8.2906,7.639,0.0,0.0,0.0,0.0,0.0,0.0,0.0,0.0,0.0,0.0,0.0,0.0,0.0,0.0,0.0,0.0,0.0,0.0,0.0,0.0,0.0,0.0,0.0,0.0,0.0,0.0,0.0,0.0,0.0,0.0,0.0,0.0,0.0,0.0,0.0,0.0,0.0,0.0,0.0,0.0,0.0,0.0,0.0,0.0,0.0,0.0,0.0,0.0,0.0,0.0,0.0,0.0,0.0,0.0,0.0,0.0,0.0,0.0,0.0,0.0,0.0,0.0,0.0,0.0,0.0,0.0,0.0,0.0,0.0,0.0,0.0,0.0,0.0,0.0,0.0,0.0,0.0,0.0,0.0,0.0,0.0,0.0,0.0,0.0,0.0,0.0,0.0,0.0,0.0,0.0,0.0,0.0,0.0,0.0,0.0,0.0,0.0,0.0,0.0,0.0,0.0,0.0,0.0,0.0,7.9327,8.4901,8.6623,8.7367,8.7211,8.5182,8.1852,7.7131,0.0,0.0,0.0,0.0,0.0,0.0,0.0,0.0,0.0,0.0,0.0,0.0,0.0,0.0,0.0,0.0,0.0,0.0,0.0,0.0,0.0,0.0,0.0,0.0,0.0,0.0,0.0,0.0,0.0,0.0,0.0,0.0,0.0,0.0,0.0,0.0,0.0,0.0,0.0,0.0,0.0,0.0,0.0,0.0,0.0,0.0,0.0,0.0,0.0,0.0,0.0,0.0,0.0,0.0,0.0,0.0,0.0,0.0,0.0,0.0,0.0,0.0,0.0,0.0,0.0,0.0,0.0,0.0,0.0,0.0,0.0,0.0,0.0,0.0,0.0,0.0,0.0,0.0,0.0,0.0,0.0,0.0,0.0,0.0,0.0,0.0,0.0,0.0,0.0,0.0,0.0,0.0,0.0,0.0,0.0,0.0,0.0,0.0,0.0,0.0,0.0,0.0,0.0,8.0066,8.2512,8.7642,8.8149,8.811,8.811,8.5729,8.217,7.7353,7.4564,0.0,0.0,0.0,0.0,0.0,0.0,0.0,0.0,0.0,0.0,0.0,0.0,0.0,0.0,0.0,0.0,0.0,0.0,0.0,0.0,0.0,0.0,0.0,0.0,0.0,0.0,0.0,0.0,0.0,0.0,0.0,0.0,0.0,0.0,0.0,0.0,0.0,0.0,0.0,0.0,0.0,0.0,0.0,0.0,0.0,0.0,0.0,0.0,0.0,0.0,0.0,0.0,0.0,0.0,0.0,0.0,0.0,0.0,0.0,0.0,0.0,0.0,0.0,0.0,0.0,0.0,0.0,0.0,0.0,0.0,0.0,0.0,0.0,0.0,0.0,0.0,0.0,0.0,0.0,0.0,0.0,0.0,0.0,0.0,0.0,0.0,0.0,0.0,0.0,0.0,0.0,0.0,0.0,0.0,0.0,0.0,0.0,0.0,0.0,0.0,0.0,0.0,8.4206,8.5846,8.9595,8.9203,8.8696,8.8696,8.5768,8.1936,7.7355,7.3232,0.0,0.0,0.0,0.0,0.0,0.0,0.0,0.0,0.0,0.0,0.0,0.0,0.0,0.0,0.0,0.0,0.0,0.0,0.0,0.0,0.0,0.0,0.0,0.0,0.0,0.0,0.0,0.0,0.0,0.0,0.0,0.0,0.0,0.0,0.0,0.0,0.0,0.0,0.0,0.0,0.0,0.0,0.0,0.0,0.0,0.0,0.0,0.0,0.0,0.0,0.0,0.0,0.0,0.0,0.0,0.0,0.0,0.0,0.0,0.0,0.0,0.0,0.0,0.0,0.0,0.0,0.0,0.0,0.0,0.0,0.0,0.0,0.0,0.0,0.0,0.0,0.0,0.0,0.0,0.0,0.0,0.0,0.0,0.0,0.0,0.0,0.0,0.0,0.0,0.0,0.0,0.0,0.0,0.0,0.0,0.0,0.0,0.0,0.0,0.0,0.0,0.0,8.4714,8.7876,8.9791,8.9203,8.8696,8.8696,8.4128,8.0045,7.7197,7.1495,0.0,0.0,0.0,0.0,0.0,0.0,0.0,0.0,0.0,0.0,0.0,0.0,0.0,0.0,0.0,0.0,0.0,0.0,0.0,0.0,0.0,0.0,0.0,0.0,0.0,0.0,0.0,0.0,0.0,0.0,0.0,0.0,0.0,0.0,0.0,0.0,0.0,0.0,0.0,0.0,0.0,0.0,0.0,0.0,0.0,0.0,0.0,0.0,0.0,0.0,0.0,0.0,0.0,0.0,0.0,0.0,0.0,0.0,0.0,0.0,0.0,0.0,0.0,0.0,0.0,0.0,0.0,0.0,0.0,0.0,0.0,0.0,0.0,0.0,0.0,0.0,0.0,0.0,0.0,0.0,0.0,0.0,0.0,0.0,0.0,0.0,0.0,0.0,0.0,0.0,0.0,0.0,0.0,0.0,0.0,0.0,0.0,0.0,0.0,0.0,0.0,0.0,8.4909,8.7876,9.1196,9.0337,8.9517,8.9517,8.5729,8.1581,7.734,0.0,0.0,0.0,0.0,0.0,0.0,0.0,0.0,0.0,0.0,0.0,0.0,0.0,0.0,0.0,0.0,0.0,0.0,0.0,0.0,0.0,0.0,0.0,0.0,0.0,0.0,0.0,0.0,0.0,0.0,0.0,0.0,0.0,0.0,0.0,0.0,0.0,0.0,0.0,0.0,0.0,0.0,0.0,0.0,0.0,0.0,0.0,0.0,0.0,0.0,0.0,0.0,0.0,0.0,0.0,0.0,0.0,0.0,0.0,0.0,0.0,0.0,0.0,0.0,0.0,0.0,0.0,0.0,0.0,0.0,0.0,0.0,0.0,0.0,0.0,0.0,0.0,0.0,0.0,0.0,0.0,0.0,0.0,0.0,0.0,0.0,0.0,0.0,0.0,0.0,0.0,0.0,0.0,0.0,0.0,0.0,0.0,0.0,0.0,0.0,0.0,0.0,8.2723,8.5768,8.8657,9.2133,9.1235,9.0298,9.0025,8.6314,8.2015,7.736,0.0,0.0,0.0,0.0,0.0,0.0,0.0,0.0,0.0,0.0,0.0,0.0,0.0,0.0,0.0,0.0,0.0,0.0,0.0,0.0,0.0,0.0,0.0,0.0,0.0,0.0,0.0,0.0,0.0,0.0,0.0,0.0,0.0,0.0,0.0,0.0,0.0,0.0,0.0,0.0,0.0,0.0,0.0,0.0,0.0,0.0,0.0,0.0,0.0,0.0,0.0,0.0,0.0,0.0,0.0,0.0,0.0,0.0,0.0,0.0,0.0,0.0,0.0,0.0,0.0,0.0,0.0,0.0,0.0,0.0,0.0,0.0,0.0,0.0,0.0,0.0,0.0,0.0,0.0,0.0,0.0,0.0,0.0,0.0,0.0,0.0,0.0,0.0,0.0,0.0,0.0,0.0,0.0,0.0,0.0,0.0,0.0,0.0,0.0,0.0,0.0,0.0,8.2957,8.7292,9.0649,9.2328,9.178,9.096,9.0064,8.5299,8.0797,0.0,0.0,0.0,0.0,0.0,0.0,0.0,0.0,0.0,0.0,0.0,0.0,0.0,0.0,0.0,0.0,0.0,0.0,0.0,0.0,0.0,0.0,0.0,0.0,0.0,0.0,0.0,0.0,0.0,0.0,0.0,0.0,0.0,0.0,0.0,0.0,0.0,0.0,0.0,0.0,0.0,0.0,0.0,0.0,0.0,0.0,0.0,0.0,0.0,0.0,0.0,0.0,0.0,0.0,0.0,0.0,0.0,0.0,0.0,0.0,0.0,0.0,0.0,0.0,0.0,0.0,0.0,0.0,0.0,0.0,0.0,0.0,0.0,0.0,0.0,0.0,0.0,0.0,0.0,0.0,0.0,0.0,0.0,0.0,0.0,0.0,0.0,0.0,0.0,0.0,0.0,0.0,0.0,0.0,0.0,0.0,0.0,0.0,0.0,0.0,0.0,0.0,0.0,8.3035,8.7837,9.1311,9.2406,9.178,9.096,9.0064,8.69,8.272,7.7401,0.0,0.0,0.0,0.0,0.0,0.0,0.0,0.0,0.0,0.0,0.0,0.0,0.0,0.0,0.0,0.0,0.0,0.0,0.0,0.0,0.0,0.0,0.0,0.0,0.0,0.0,0.0,0.0,0.0,0.0,0.0,0.0,0.0,0.0,0.0,0.0,0.0,0.0,0.0,0.0,0.0,0.0,0.0,0.0,0.0,0.0,0.0,0.0,0.0,0.0,0.0,0.0,0.0,0.0,0.0,0.0,0.0,0.0,0.0,0.0,0.0,0.0,0.0,0.0,0.0,0.0,0.0,0.0,0.0,0.0,0.0,0.0,0.0,0.0,0.0,0.0,0.0,0.0,0.0,0.0,0.0,0.0,0.0,0.0,0.0,0.0,0.0,0.0,0.0,0.0,0.0,0.0,0.0,0.0,0.0,0.0,0.0,0.0,0.0,0.0,0.0,0.0,8.405,8.8501,9.1741,9.2912,9.2287,9.1428,9.057,8.8422,8.4558,7.8507,0.0,0.0,0.0,0.0,0.0,0.0,0.0,0.0,0.0,0.0,0.0,0.0,0.0,0.0,0.0,0.0,0.0,0.0,0.0,0.0,0.0,0.0,0.0,0.0,0.0,0.0,0.0,0.0,0.0,0.0,0.0,0.0,0.0,0.0,0.0,0.0,0.0,0.0,0.0,0.0,0.0,0.0,0.0,0.0,0.0,0.0,0.0,0.0,0.0,0.0,0.0,0.0,0.0,0.0,0.0,0.0,0.0,0.0,0.0,0.0,0.0,0.0,0.0,0.0,0.0,0.0,0.0,0.0,0.0,0.0,0.0,0.0,0.0,0.0,0.0,0.0,0.0,0.0,0.0,0.0,0.0,0.0,0.0,0.0,0.0,0.0,0.0,0.0,0.0,0.0,0.0,0.0,0.0,0.0,0.0,0.0,0.0,0.0,0.0,0.0,0.0,0.0,8.5456,8.9242,9.2131,9.3732,9.3146,9.2287,9.1467,8.9828,8.6314,8.042,0.0,0.0,0.0,0.0,0.0,0.0,0.0,0.0,0.0,0.0,0.0,0.0,0.0,0.0,0.0,0.0,0.0,0.0,0.0,0.0,0.0,0.0,0.0,0.0,0.0,0.0,0.0,0.0,0.0,0.0,0.0,0.0,0.0,0.0,0.0,0.0,0.0,0.0,0.0,0.0,0.0,0.0,0.0,0.0,0.0,0.0,0.0,0.0,0.0,0.0,0.0,0.0,0.0,0.0,0.0,0.0,0.0,0.0,0.0,0.0,8.7913,8.5571,0.0,0.0,0.0,0.0,0.0,0.0,0.0,0.0,0.0,0.0,0.0,0.0,0.0,0.0,0.0,0.0,0.0,0.0,0.0,0.0,0.0,0.0,0.0,0.0,0.0,0.0,0.0,0.0,0.0,0.0,0.0,0.0,0.0,0.0,0.0,0.0,0.0,0.0,0.0,0.0,8.479,8.9865,9.3654,9.4708,9.4044,9.3185,9.2326,9.0688,8.7721,8.2996,7.964,0.0,0.0,0.0,0.0,0.0,0.0,0.0,0.0,0.0,0.0,0.0,0.0,0.0,0.0,0.0,0.0,0.0,0.0,0.0,0.0,0.0,0.0,0.0,0.0,0.0,0.0,0.0,0.0,0.0,0.0,0.0,0.0,0.0,0.0,0.0,0.0,0.0,0.0,0.0,0.0,0.0,0.0,0.0,0.0,0.0,0.0,0.0,0.0,0.0,0.0,0.0,0.0,0.0,0.0,0.0,0.0,0.0,0.0,0.0,9.2482,9.0296,0.0,0.0,0.0,0.0,0.0,0.0,0.0,0.0,0.0,0.0,0.0,0.0,0.0,0.0,0.0,0.0,0.0,0.0,0.0,0.0,0.0,0.0,0.0,0.0,0.0,0.0,0.0,0.0,0.0,0.0,0.0,0.0,0.0,0.0,0.0,0.0,0.0,0.0,0.0,0.0,8.6978,9.1116,9.4278,9.5606,9.4942,9.4239,9.3771,9.2172,8.9712,8.6236,8.2762,0.0,0.0,0.0,0.0,0.0,0.0,0.0,0.0,0.0,0.0,0.0,0.0,0.0,0.0,0.0,0.0,0.0,0.0,0.0,0.0,0.0,0.0,0.0,0.0,0.0,0.0,0.0,0.0,0.0,0.0,0.0,0.0,0.0,0.0,0.0,0.0,0.0,0.0,0.0,0.0,0.0,0.0,0.0,0.0,0.0,0.0,0.0,0.0,0.0,0.0,0.0,0.0,0.0,10.1813,10.2086,10.3298,10.2789,10.2906,10.3181,9.8106,9.6347,9.6777,9.2756,0.0,0.0,0.0,0.0,0.0,0.0,0.0,0.0,0.0,0.0,0.0,0.0,0.0,0.0,0.0,0.0,0.0,0.0,0.0,0.0,0.0,0.0,9.0687,9.2248,9.3263,9.2326,8.6666,0.0,0.0,0.0,0.0,0.0,0.0,0.0,0.0,0.0,0.0,0.0,8.9986,9.2678,9.4901,9.6658,9.6074,9.5567,9.5567,9.4083,9.2131,8.975,8.6314,8.2606,0.0,0.0,0.0,0.0,0.0,0.0,0.0,0.0,0.0,0.0,0.0,0.0,0.0,0.0,0.0,0.0,0.0,0.0,0.0,0.0,0.0,0.0,0.0,0.0,0.0,0.0,0.0,0.0,0.0,0.0,0.0,0.0,9.1825,9.2749,0.0,0.0,0.0,0.0,0.0,0.0,0.0,0.0,0.0,0.0,0.0,0.0,0.0,10.4001,10.5482,10.7903,10.8488,10.72,10.9894,11.0987,11.0518,11.1106,11.1496,11.1496,10.9894,0.0,9.9588,9.6738,0.0,0.0,0.0,0.0,0.0,0.0,0.0,0.0,0.0,0.0,0.0,0.0,0.0,0.0,0.0,0.0,0.0,0.0,0.0,0.0,0.0,0.0,9.6777,9.7751,9.8651,9.9002,9.8104,9.2717,8.7446,8.5456,8.3972,8.2371,0.0,0.0,0.0,0.0,0.0,0.0,9.1625,9.4434,9.6736,9.8453,9.787,9.7362,9.7362,9.6464,9.5098,9.3224,8.9906,8.6744,8.3892,7.999,0.0,0.0,0.0,0.0,0.0,0.0,0.0,0.0,0.0,0.0,0.0,0.0,0.0,0.0,0.0,0.0,0.0,0.0,0.0,0.0,0.0,0.0,0.0,0.0,0.0,0.0,0.0,0.0,0.0,9.3595,9.598,9.5865,9.6403,9.6528,0.0,0.0,0.0,0.0,0.0,0.0,0.0,0.0,0.0,10.7905,11.0185,11.1689,11.2509,11.45,11.5008,11.3798,11.5281,11.5984,11.6101,11.6101,11.6296,11.6686,11.5789,11.3017,10.8605,10.4116,10.0915,9.8612,0.0,0.0,0.0,0.0,9.3693,9.3732,9.4825,9.4981,9.4434,9.3263,0.0,0.0,0.0,0.0,0.0,0.0,0.0,9.1546,9.463,9.7284,9.9744,10.2008,10.3296,10.3999,10.4506,10.1188,9.6855,9.2717,9.0882,8.8852,8.5221,8.3972,0.0,0.0,0.0,9.0726,9.3576,9.623,9.8141,9.8922,9.8649,9.8221,9.7753,9.7362,9.6582,9.533,9.2951,9.0413,8.7837,8.4519,8.1044,0.0,0.0,0.0,0.0,0.0,0.0,0.0,0.0,0.0,0.0,0.0,0.0,0.0,0.0,0.0,0.0,0.0,0.0,0.0,0.0,0.0,0.0,0.0,0.0,0.0,0.0,0.0,0.0,9.7096,9.9596,9.9173,10.0712,10.1096,0.0,0.0,0.0,0.0,0.0,0.0,10.809,11.0498,11.2382,11.3716,11.6614,11.8296,11.8599,11.9888,12.02,11.9614,11.9614,12.0005,12.0785,12.02,12.0317,12.0785,12.0005,11.8599,11.6611,11.0716,10.681,10.4194,10.1891,10.0015,9.8768,9.9197,9.8924,9.8612,10.029,10.0798,10.029,9.8104,9.6972,9.5762,9.2092,0.0,0.0,0.0,0.0,9.4864,9.787,10.029,10.2593,10.5404,10.6888,10.7786,10.8488,10.7512,10.4702,9.9119,9.6972,9.4591,8.9865,8.8694,0.0,8.811,9.0804,9.3693,9.6113,9.8143,9.939,9.9627,9.947,9.9158,9.8729,9.826,9.7753,9.7126,9.5448,9.3302,9.0767,8.8579,8.5416,8.1082,0.0,0.0,0.0,0.0,0.0,0.0,0.0,0.0,0.0,0.0,0.0,0.0,0.0,0.0,0.0,0.0,0.0,0.0,0.0,0.0,0.0,0.0,0.0,0.0,0.0,0.0,0.0,0.0,0.0,10.3482,10.5097,0.0,0.0,0.0,0.0,10.7616,10.9498,11.2117,11.5412,11.668,11.8506,12.1004,12.1296,12.1901,12.3089,12.3206,12.3206,12.3089,12.3089,12.3596,12.4414,12.4414,12.4414,12.4414,12.3518,12.2191,12.0083,11.4893,11.1301,10.8801,10.7005,10.5795,10.4897,10.4116,10.3806,10.3608,10.2906,10.2086,10.1698,10.3181,10.2008,9.9705,9.7792,9.6074,0.0,0.0,9.6699,9.908,10.0917,10.3806,10.6614,10.759,10.9111,11.0282,11.0399,10.9699,10.7786,10.3296,10.0485,9.7673,9.4081,0.0,9.1624,9.3185,9.3615,9.5254,9.947,10.0212,10.0485,10.1307,10.0681,10.0485,10.119,9.9861,9.8922,9.8883,9.7243,9.5098,9.2484,9.1507,8.9008,8.4634,8.2137,0.0,0.0,0.0,0.0,0.0,0.0,0.0,0.0,0.0,0.0,0.0,0.0,0.0,0.0,0.0,0.0,0.0,0.0,0.0,0.0,0.0,0.0,0.0,0.0,0.0,0.0,0.0,0.0,10.6982,10.9598,0.0,10.9406,11.0381,11.1603,11.2914,11.5191,11.7488,11.9812,12.1293,12.2799,12.4281,12.5102,12.5395,12.5294,12.5294,12.5095,12.4787,12.4787,12.5314,12.629,12.5782,12.5782,12.629,12.5392,12.4416,12.3089,12.0707,11.7194,11.329,11.208,11.0401,10.8603,10.8293,10.7903,10.7512,10.7708,10.72,10.6302,10.5287,10.4311,10.3218,10.0798,9.9707,9.9355,9.99,10.072,10.2086,10.4897,10.6614,10.7981,11.0011,11.0909,11.1494,11.208,11.1494,11.0089,10.7512,10.4389,10.1383,9.8494,9.7011,9.6269,9.6308,9.7714,9.9509,10.1618,10.2398,10.2593,10.2398,10.1618,10.0798,9.9978,9.9861,9.9119,9.7439,9.6736,9.5488,9.3419,9.3068,9.088,8.6547,8.6119,8.3426,0.0,0.0,0.0,0.0,0.0,0.0,0.0,0.0,0.0,0.0,0.0,0.0,0.0,0.0,0.0,0.0,0.0,0.0,0.0,0.0,0.0,0.0,0.0,0.0,0.0,10.6482,10.979,11.0906,11.4099,11.5484,11.378,11.5306,11.6914,11.8186,12.039,12.2392,12.4093,12.5514,12.6501,12.6694,12.7484,12.7503,12.6716,12.6988,12.6893,12.6211,12.6789,12.73,12.7786,12.7201,12.7318,12.7708,12.6616,12.5789,12.5291,12.4199,12.1491,11.8092,11.6413,11.45,11.2585,11.2,11.1299,11.0596,11.0518,11.0206,10.9386,10.7395,10.6693,10.6302,10.4001,10.3298,10.3298,10.3608,10.4116,10.5092,10.7395,10.8605,10.9699,11.1416,11.2002,11.2392,11.3019,11.2392,11.1494,11.0401,10.759,10.4584,10.2008,10.111,10.0485,9.9939,10.1307,10.2713,10.3608,10.4194,10.4311,10.3687,10.2906,10.2008,10.1186,10.0603,9.9783,9.8612,9.7479,9.6308,9.5176,9.4278,9.2326,8.9164,8.854,8.6275,8.2292,0.0,0.0,0.0,0.0,0.0,0.0,0.0,0.0,0.0,0.0,0.0,0.0,0.0,0.0,0.0,0.0,0.0,0.0,0.0,0.0,0.0,0.0,0.0,10.7598,11.0714,11.3483,11.5291,11.8407,11.9792,11.8215,11.9485,12.1293,12.33,12.5002,12.6704,12.8298,12.9197,12.9285,12.8511,12.8395,12.82,12.7704,12.852,12.8481,12.768,12.9296,12.9685,12.8892,12.8892,12.8892,12.8814,12.7105,12.6602,12.6707,12.4992,12.389,12.3118,11.9612,11.7819,11.6804,11.5086,11.3915,11.2902,11.1104,11.0594,11.0399,10.9581,10.9386,10.8996,10.7317,10.6693,10.6614,10.5717,10.6693,10.802,10.8098,11.0011,11.1807,11.1807,11.2509,11.3097,11.3097,11.2392,11.1807,11.1807,10.9816,10.7317,10.4702,10.4196,10.4196,10.4196,10.4196,0.0,10.5404,10.5482,10.5482,10.5482,10.4702,10.4506,10.5287,10.2281,10.111,10.2593,9.9548,9.7714,9.7714,9.5293,9.3537,9.2679,8.9359,8.7601,8.7562,0.0,0.0,0.0,0.0,0.0,0.0,0.0,0.0,0.0,0.0,0.0,0.0,0.0,0.0,0.0,0.0,0.0,0.0,0.0,0.0,0.0,10.8482,11.1098,10.9713,11.3483,11.7292,11.9611,12.1793,12.3408,12.4178,12.469,12.5392,12.651,12.7689,12.8498,12.8987,12.9192,12.9192,12.8999,12.8999,12.8915,12.8807,12.9011,12.9095,12.909,12.9585,12.9806,12.9816,12.9816,12.9506,12.8892,12.8387,12.7893,12.7308,12.6213,12.5286,12.4304,12.1302,11.9185,11.7819,11.6686,11.5281,11.3798,11.2002,11.1885,11.208,11.0714,11.0596,11.0714,10.8293,10.759,10.759,10.7395,10.759,10.841,11.0284,11.1299,11.2002,11.2589,11.2902,11.3097,11.3097,11.2902,11.2589,11.1885,11.1182,11.0089,10.8215,10.7317,10.6888,10.6888,10.6888,10.72,10.8098,10.8215,10.8215,10.8215,10.7395,10.6497,10.5482,10.3999,10.2203,10.021,9.8572,9.7714,9.7714,9.7636,9.7167,9.6308,9.4122,9.2365,0.0,0.0,0.0,0.0,0.0,0.0,0.0,0.0,0.0,0.0,0.0,0.0,0.0,0.0,0.0,0.0,0.0,0.0,0.0,0.0,0.0,0.0,11.3022,11.5907,11.511,11.81,12.1293,12.3497,12.5216,12.6601,12.7602,12.7717,12.8217,12.941,12.9987,13.0602,13.1295,13.1295,13.1218,13.0794,13.041,13.0217,13.0217,13.0217,13.0288,13.0489,13.1299,13.1276,13.0786,13.0786,13.0283,12.948,12.8793,12.8304,12.7794,12.6583,12.5702,12.4816,0.0,0.0,0.0,0.0,11.5986,11.4084,11.3196,11.3017,11.2902,11.1494,11.1416,11.1494,10.9581,10.8994,10.8994,10.8994,10.9308,10.9894,11.1416,11.208,11.2509,11.3019,11.3097,11.3097,11.3097,11.3097,11.3019,11.2392,11.2314,0.0,11.1106,10.9581,10.8488,10.8488,10.8215,10.8293,10.9191,10.9308,10.9386,10.9816,10.9308,10.8603,10.7588,10.6419,0.0,0.0,0.0,9.99,9.8846,9.9588,0.0,0.0,0.0,0.0,0.0,9.6903,0.0,0.0,9.4752,9.4395,0.0,0.0,0.0,0.0,0.0,0.0,0.0,0.0,0.0,0.0,0.0,0.0,0.0,0.0,0.0,0.0,11.6984,12.0408,12.1997,12.3793,12.5409,12.6678,12.8294,12.941,12.9602,12.9602,13.0294,13.1987,13.1987,13.2679,13.4295,13.4295,0.0,0.0,0.0,13.1987,13.1987,13.1987,13.1987,13.1987,13.3603,13.3487,13.1987,13.191,13.141,13.0487,12.8794,12.8198,12.819,12.6606,12.55,12.4685,12.299,12.1815,12.08,11.8614,11.631,11.439,11.4384,0.0,0.0,11.2293,11.1986,11.1715,11.0904,11.0594,11.0594,11.0594,11.1182,11.1807,11.1885,11.2509,11.3097,11.3214,11.3214,11.3097,11.3214,11.3214,11.3097,11.3097,11.3097,11.3097,11.3097,11.1104,10.9581,10.9581,10.8918,10.8684,10.9503,10.9699,11.0011,11.0714,11.0789,0.0,11.0711,10.9189,10.8213,10.802,10.5719,10.33,10.0997,10.1703,10.1781,10.0919,10.1817,10.2794,10.4081,10.4294,10.4809,10.5398,9.7573,9.6432,0.0,0.0,0.0,0.0,0.0,0.0,0.0,0.0,0.0,0.0,0.0,0.0,0.0,0.0,0.0,11.6407,12.0985,12.4486,12.5613,12.8294,12.9602,12.7909,12.9217,13.0794,13.2102,13.2307,13.2987,13.4603,13.4218,13.4218,13.5218,13.4718,13.4218,13.4103,13.391,13.3795,13.3795,13.3795,13.3795,13.3795,13.4103,0.0,13.3795,13.3103,13.2307,13.141,12.9717,12.8612,12.79,12.6899,12.5608,12.4106,12.2193,12.0882,11.9911,11.8107,11.7193,11.65,11.5194,11.42,11.3495,11.359,11.3089,11.2414,11.1703,11.1494,0.0,11.1494,11.1689,11.2002,11.2707,11.3019,11.3292,11.3993,11.3602,11.3292,11.3993,11.3602,11.3097,11.3097,11.3097,11.3097,11.3097,11.208,11.1299,11.1299,11.1182,11.1104,11.1299,11.1885,11.2394,11.2589,11.2589,11.2314,11.1611,11.0596,10.9384,10.8098,10.6903,10.5701,10.4492,10.5909,10.5988,10.4414,10.5898,10.5898,10.41,10.551,10.63,10.6388,10.4003,10.3416,0.0,0.0,0.0,0.0,0.0,0.0,0.0,0.0,0.0,0.0,0.0,10.9213,11.2214,0.0,11.8292,12.1716,12.4716,12.7217,12.8986,13.141,13.2218,13.0102,13.1295,13.291,13.4103,13.4295,13.4988,13.668,13.6411,13.6411,13.6796,13.6796,13.6411,13.5603,13.5603,13.5603,13.5603,13.5603,13.5603,13.5603,13.5988,13.5719,13.4911,13.4411,13.3603,13.2307,13.0987,12.9717,12.8409,12.6294,12.5101,12.461,12.2795,12.1289,12.0002,11.9287,11.85,11.7593,11.6516,11.5593,11.4784,11.4217,11.3698,11.319,11.2596,11.2509,11.2509,11.2509,11.2783,11.3214,11.3617,11.4081,11.4583,11.5491,11.5016,11.462,11.5515,11.4695,11.3798,11.3798,11.3409,11.3097,11.3097,11.2707,11.2314,11.1885,11.1416,11.1299,11.1689,11.2197,11.2589,11.3097,11.3097,11.2906,11.2484,11.2105,11.1408,11.0588,10.9815,10.8881,10.7983,10.8809,10.8887,10.7983,10.8881,10.8686,10.7397,10.8185,10.8893,10.9288,10.8393,10.7805,0.0,0.0,0.0,0.0,0.0,0.0,0.0,10.4789,10.6713,11.0406,11.2406,11.4714,11.8792,12.0793,12.3101,12.6986,12.8409,12.9602,13.1679,13.341,13.4103,13.2795,13.391,13.4988,13.5719,13.5911,13.668,13.8502,13.8411,13.8411,13.8604,13.8988,13.8719,13.7296,13.7296,13.7296,13.7296,13.7296,13.7296,13.7296,13.7796,13.7411,13.5988,13.568,13.468,13.318,13.1987,13.0487,12.8717,12.5794,12.4909,12.5216,12.3716,12.2216,12.08,12.0899,11.9986,11.8497,11.7794,11.7003,11.6007,11.4801,11.4215,11.3983,11.3613,11.3516,11.3496,11.3501,11.4099,11.4702,11.4682,11.518,11.599,11.6982,11.6582,11.6218,11.7311,11.6101,11.4891,11.4695,11.3915,11.3292,11.3097,11.3099,11.2906,11.2199,11.1494,11.1299,11.2002,11.208,11.2316,11.2984,11.3103,11.3189,11.3284,11.3492,11.3499,11.3382,11.2681,11.1901,11.0885,11.0887,11.0887,11.0885,11.0885,11.0885,11.1081,11.1283,11.1715,11.238,11.1718,11.0897,9.4566,9.5788,9.7865,10.1212,10.2289,10.4597,0.0,11.2714,11.3099,11.7984,11.9792,12.1485,12.5113,12.6409,12.7897,13.0679,13.1923,13.2487,13.2808,13.4295,13.5603,13.618,13.6411,13.6603,13.6603,13.7411,13.8488,14.0181,13.9604,13.9488,14.0296,13.9719,13.9219,13.8975,13.8988,13.8988,13.8988,13.8988,13.8988,13.8988,13.8411,13.8001,13.7809,13.618,13.4988,13.3987,13.1679,12.9602,12.7986,12.6909,12.5986,12.5293,12.4293,12.3408,12.2485,12.1824,12.1018,11.9988,11.8509,11.7395,11.6711,11.5914,11.5104,11.4499,11.4616,11.4799,11.4987,11.4988,11.5302,11.56,11.5582,11.5612,11.6103,11.7784,11.7508,11.7311,11.8912,11.7897,11.6491,11.571,11.4891,11.3993,11.3214,11.3111,11.3117,11.2982,11.2902,11.2785,11.2902,11.3019,11.2986,11.3081,11.3083,11.3402,11.4198,11.4982,11.51,11.428,11.421,11.3393,11.1792,11.1796,11.1796,11.1792,11.1791,11.2104,11.2886,11.3589,11.4099,11.4218,11.4101,11.3593,9.7682,9.9913,10.2481,10.4982,10.7021,10.979,11.4791,11.6215,11.76,12.1716,12.3985,12.5986,12.8486,12.9987,13.1487,13.3603,13.4603,13.5424,13.5885,13.6988,13.7296,13.618,13.6911,13.8104,13.9604,13.9604,14.0296,14.1912,14.1681,14.122,14.0604,14.1181,14.0796,13.9283,13.9796,13.9796,13.9296,13.9796,13.9796,13.9296,13.9488,13.8988,13.8117,13.7296,13.5988,13.4218,13.1602,12.9794,12.8602,12.7217,12.6486,12.6101,12.5216,12.4293,12.3485,12.2716,12.1789,12.0923,11.9295,11.881,11.8684,11.6581,11.601,11.5996,11.5218,11.509,11.5098,11.5195,11.5598,11.62,11.6711,11.7306,11.8205,12.0016,11.9781,11.9612,12.0784,11.93,11.7617,11.7294,11.6091,11.4998,11.4702,11.4606,11.4384,11.3897,11.3397,11.3091,11.3091,11.3091,11.3092,11.3098,11.3614,11.401,11.4405,11.519,11.5583,11.5192,11.5194,11.4804,11.4101,11.4101,11.4101,11.4218,11.4218,11.4296,11.4687,11.4999,11.5507,11.5898,11.5,11.4609,10.0212,10.2904,10.5982,10.8213,11.1291,11.4599,11.7907,11.9792,12.1793,12.5216,12.7294,12.9217,13.1218,13.2679,13.418,13.5911,13.7103,13.7988,13.8411,13.8719,13.8411,13.6719,13.7296,13.8681,14.1296,14.0989,14.1296,14.2989,14.3297,14.2797,14.1412,14.2681,14.2489,14.0412,14.0989,14.0989,14.0412,14.0796,14.0604,13.9989,14.0219,13.9604,13.8411,13.768,13.6296,13.4218,13.2102,13.041,12.9102,12.7909,12.7101,12.6601,12.5986,12.5216,12.4409,12.3485,12.2586,12.1516,12.0016,11.9983,12.008,11.7401,11.7205,11.7604,11.6014,11.5788,11.6007,11.5792,11.619,11.6903,11.7506,11.849,11.9581,12.1094,12.1315,12.1293,12.2216,12.0582,11.8982,11.8989,11.7398,11.611,11.6086,11.5911,11.5609,11.5209,11.4594,11.3895,11.3186,11.311,11.3112,11.3112,11.4096,11.4802,11.4802,11.5585,11.6211,11.6484,11.6015,11.5703,11.5703,11.5703,11.5781,11.5781,11.5781,11.5898,11.6093,11.6093,11.6289,11.6601,11.539,11.5,10.152,10.3789,10.7213,11.0511,11.3907,11.7688,12.2716,12.4601,12.6217,12.9602,13.041,13.1218,13.3718,13.4911,13.5988,13.7694,13.9412,14.0219,13.9412,13.8604,13.8411,13.9104,13.7796,13.7796,14.0412,14.0604,14.1296,14.2989,14.3912,14.3989,14.3105,14.3912,14.3912,14.2989,14.2989,14.2989,14.2989,14.2181,14.1797,14.1797,14.0104,13.9296,13.9219,13.6719,13.5103,13.4218,13.3295,13.1487,12.9217,12.9102,12.8179,12.669,12.669,12.6101,12.5293,12.4409,12.3094,12.1695,12.0809,12.0588,12.0413,11.861,11.862,11.9006,11.7279,11.7603,11.8315,11.7506,11.7414,11.7686,11.7706,11.8381,11.9199,12.0099,12.0883,12.1805,12.2813,12.1715,12.0618,12.079,11.8693,11.7013,11.7013,11.6319,11.6011,11.6792,11.6913,11.6014,11.3383,11.3194,11.3198,11.3198,11.4686,11.5703,11.5703,11.6484,11.7304,11.8203,11.6601,11.5703,11.5703,11.5781,11.5781,11.5781,11.5703,11.6093,11.6992,11.6992,11.6484,11.5703,11.5781,11.5312,10.502,10.8406,11.2291,11.5715,11.8215,12.092,12.4909,12.6486,12.7486,12.9294,13.0487,13.1602,13.241,13.3718,13.5411,13.7694,13.9989,14.1181,14.0296,14.1412,14.0912,13.7219,13.7796,13.8411,13.8104,13.9604,14.1104,14.2181,14.3605,14.4297,14.3989,14.4797,14.5105,14.4797,14.4297,14.3682,14.3105,14.2797,14.2412,14.1912,14.0719,13.9912,13.9206,13.7296,13.5603,13.4295,13.341,13.1602,12.9217,12.9217,12.8217,12.669,12.669,12.5794,12.4486,12.4216,12.3086,12.1604,12.0786,12.0919,12.1194,12.0111,11.9605,11.9395,11.8777,11.8187,11.7614,11.7299,11.7297,11.7601,11.871,11.9286,11.9999,12.1515,12.2111,12.2518,12.29,12.209,12.1319,12.139,12.0318,11.9391,11.9397,11.9313,11.9101,11.8788,11.7304,11.6093,11.5701,11.4217,11.3398,11.3984,11.5117,11.5508,11.5,11.6211,11.7109,11.7383,11.6914,11.6797,11.7383,11.7383,11.75,11.75,11.7383,11.7617,11.789,11.7304,11.6797,11.6484,11.539,11.4804,10.8598,11.2406,11.6215,11.96,12.1985,12.419,12.6986,12.7986,12.8512,12.9102,12.9602,12.991,12.991,13.1295,13.341,13.6296,13.9412,14.1412,14.1489,14.2681,14.1989,13.7796,13.8488,13.8604,13.6988,13.9412,14.1412,14.2297,14.3912,14.499,14.5297,14.5797,14.6105,14.6105,14.5297,14.4412,14.3605,14.3297,14.2412,14.0989,14.0104,13.9296,13.8411,13.7296,13.5988,13.4718,13.3795,13.2179,13.0102,12.9794,12.8717,12.7101,12.7101,12.6294,12.4986,12.4716,12.3716,12.2305,12.1308,12.1485,12.2085,12.1309,12.1086,12.1121,12.0495,11.9512,11.8411,11.8411,11.8005,11.7887,11.9279,11.9997,12.0619,12.1814,12.2397,12.2713,12.2807,12.2118,12.1701,12.241,12.1413,12.0704,12.1316,12.1298,12.1088,12.0586,11.8906,11.75,11.7109,11.5586,11.4687,11.4883,11.6015,11.6289,11.5508,11.6406,11.7109,11.7383,11.6914,11.6914,11.7812,11.7812,11.7812,11.7812,11.8086,11.8086,11.7812,11.7617,11.7109,11.6484,11.5781,11.5195,11.2291,11.5511,11.8896,12.2216,12.4909,12.7178,12.8794,12.9102,12.9102,12.9102,12.7717,12.6614,12.6486,12.7909,13.0217,13.3603,13.7796,14.1181,14.2912,14.2604,14.1797,14.0796,13.9989,13.8911,13.718,13.9989,14.2297,14.3105,14.4682,14.599,14.6798,14.6913,14.6913,14.6913,14.6105,14.522,14.4283,14.3412,14.1797,13.9412,13.8488,13.7694,13.6911,13.6911,13.6411,13.5488,13.4603,13.3295,13.1602,13.0794,12.9487,12.8012,12.7897,12.7409,12.6614,12.5678,12.4793,12.3793,12.2216,12.2216,12.2689,12.2085,12.29,12.3809,12.2289,12.129,12.0606,12.0518,11.951,11.8595,11.929,12.0295,12.1105,12.1105,12.181,12.2492,12.2596,12.1987,12.1993,12.3719,12.209,12.1009,12.2694,12.241,12.2019,12.2303,12.1484,12.0117,11.7617,11.7109,11.6797,11.6015,11.7383,11.8008,11.7109,11.7109,11.75,11.8281,11.6718,11.6211,11.6992,11.7109,11.7109,11.7109,11.789,11.789,11.7109,11.789,11.7383,11.5781,11.6601,11.6484,11.6407,11.9908,12.2908,12.4409,12.6217,12.7717,12.8089,12.8205,12.8102,12.7486,12.5986,12.4601,12.3985,12.5794,12.8409,13.1795,13.6988,14.1181,14.2912,14.4605,14.4605,14.1912,14.2489,14.222,13.9912,14.2104,14.3797,14.4105,14.5105,14.5797,14.599,14.6605,14.6913,14.6913,14.549,14.4297,14.3412,14.1989,14.0912,14.0296,13.9412,13.8604,13.7809,13.7809,13.6911,13.5488,13.4603,13.3295,13.1602,13.0794,12.991,12.8794,12.8217,12.7409,12.6614,12.5678,12.4486,12.3101,12.2716,12.2293,12.1997,12.2482,12.2089,12.1513,12.1816,12.0802,11.9592,11.8908,11.9381,11.9904,11.9489,12.1114,12.2816,12.2778,12.3503,12.4005,12.34,12.3621,12.3918,12.3702,12.3216,12.3114,12.3682,12.3212,12.291,12.3692,12.2612,12.1498,12.0898,11.9218,11.8086,11.8593,11.8984,11.8906,11.8008,11.8593,11.8789,11.8281,11.789,11.7695,11.8008,11.8008,11.8008,11.8008,11.8203,11.8203,11.8008,11.75,11.7109,11.6718,11.6289,11.6015,11.9792,12.2716,12.4986,12.6217,12.7217,12.7782,12.7486,12.7101,12.6217,12.4293,12.2793,12.1716,12.0793,12.3101,12.6294,12.9987,13.5295,13.9989,14.3181,14.5182,14.5797,14.4297,14.5297,14.4913,14.1989,14.372,14.472,14.3912,14.5297,14.6413,14.6798,14.7182,14.749,14.749,14.5797,14.4412,14.3105,14.1797,14.0796,13.9989,13.9219,13.8296,13.7488,13.7488,13.6988,13.5988,13.5218,13.4103,13.2795,13.191,13.091,12.9717,12.9217,12.8294,12.7217,12.6717,12.5409,12.3985,12.3985,12.3216,12.2293,12.2716,12.2482,12.2205,12.2705,12.1711,12.0291,12.0214,12.072,12.11,12.0995,12.238,12.3892,12.3903,12.4292,12.4507,12.4093,12.4412,12.4586,12.4199,12.4499,12.4786,12.4611,12.4191,12.4113,12.4693,12.4013,12.3497,12.3603,12.1513,12.0117,12.0195,12.0508,12.039,11.9492,11.9883,12.0,11.9492,11.9101,11.8906,11.8906,11.8515,11.8281,11.8281,11.8281,11.8281,11.8281,11.7812,11.7617,11.7617,11.7109,11.6914,12.2716,12.4601,12.6217,12.7602,12.7897,12.7717,12.6678,12.5794,12.4216,12.0985,11.96,11.8715,11.7792,12.0292,12.3909,12.8217,13.2987,13.8181,14.3489,14.4913,14.5797,14.6913,14.7605,14.6913,14.3912,14.5182,14.549,14.3912,14.599,14.749,14.7875,14.799,14.7913,14.7682,14.6182,14.4605,14.3105,14.2181,14.0912,13.9296,13.8488,13.7603,13.6796,13.6796,13.6796,13.668,13.5795,13.4911,13.4218,13.318,13.1987,13.0602,13.0487,12.9487,12.8102,12.7897,12.6794,12.5409,12.5293,12.4216,12.2908,12.2908,12.3293,12.3793,12.3793,12.2793,12.1677,12.2408,12.2286,12.2107,12.2685,12.3688,12.4586,12.4586,12.4712,12.4794,12.4783,12.4688,12.4796,12.4905,12.5582,12.5889,12.5283,12.5104,12.5205,12.5499,12.5414,12.5391,12.5382,12.3683,12.2186,12.16,12.2109,12.2187,12.1484,12.1406,12.1289,12.1093,12.0312,11.9687,11.9609,11.8789,11.8281,11.8281,11.8281,11.8281,11.8281,11.8281,11.8281,11.8281,11.8281,11.8281,12.5293,12.7294,12.8409,12.8012,12.7897,12.7512,12.5986,12.4409,12.2793,12.0716,11.91,11.7792,11.6907,11.8908,12.2216,12.6409,13.0794,13.5911,14.2412,14.3489,14.4682,14.7605,14.749,14.6913,14.6297,14.7798,14.8413,14.7413,14.899,14.8913,14.6297,14.6798,14.649,14.5105,14.4105,14.3412,14.3105,14.1604,14.0296,13.9296,13.8488,13.7603,13.6796,13.6796,13.6796,13.668,13.5218,13.4411,13.4218,13.2603,13.1795,13.141,13.0794,12.991,12.8909,12.8217,12.6794,12.5293,12.4601,12.3716,12.2908,12.2908,12.2485,12.1985,12.1985,12.1793,12.1497,12.0908,12.1689,12.2597,12.1982,12.3614,12.54,12.54,12.6018,12.6404,12.5692,12.5499,12.5493,12.5684,12.5782,12.591,12.5909,12.5279,12.5219,12.6085,12.5589,12.5202,12.5406,12.4589,12.4202,12.4787,12.46,12.4297,12.4101,12.4101,12.3515,12.2109,12.1211,12.039,11.9609,11.8789,11.8281,11.8281,11.8281,11.8281,11.8281,11.8281,11.8281,11.8281,11.8281,11.8281,12.6794,12.8602,12.9794,12.941,12.7909,12.6217,12.4486,12.21,11.9523,11.6907,11.6407,11.6215,11.5407,11.7984,12.1293,12.4216,12.7486,13.2115,13.8911,14.0604,14.2681,14.699,14.799,14.8298,14.8298,14.8221,14.8182,14.8182,14.8106,14.799,14.7721,14.799,14.7105,14.4489,14.4797,14.4182,14.2489,14.2104,14.1489,14.0604,13.9296,13.8488,13.8104,13.718,13.6603,13.6103,13.5795,13.4795,13.3603,13.318,13.2487,13.1679,13.1295,13.0602,12.9794,12.8909,12.7794,12.6486,12.5216,12.4216,12.3485,12.3024,12.2293,12.1612,12.1612,12.1612,12.1485,12.11,12.1908,12.2908,12.2908,12.4187,12.562,12.6082,12.6907,12.75,12.6998,12.7313,12.7716,12.7809,12.7395,12.7206,12.732,12.6606,12.6191,12.6808,12.661,12.6281,12.64,12.5892,12.5493,12.5508,12.531,12.5109,12.5109,12.5193,12.4705,12.3415,12.2184,12.1211,12.0312,11.8984,11.8281,11.8281,11.8281,11.8281,11.8281,11.8281,11.8515,11.8984,11.8515,11.8515,12.7282,12.9217,13.041,12.9987,12.7678,12.4793,12.2601,11.9715,11.6715,11.3599,11.4099,11.4907,11.4407,11.6984,11.9985,12.2293,12.4601,12.8486,13.5295,13.7911,14.0989,14.6297,14.8106,14.9221,14.9721,14.8413,14.7682,14.8413,14.7298,14.7105,14.8606,14.8721,14.7413,14.4476,14.5913,14.5182,14.2181,14.2989,14.2797,14.1604,14.0219,13.9412,13.8988,13.7488,13.6296,13.5488,13.5988,13.4988,13.3,13.3487,13.291,13.1679,13.1679,13.1179,13.041,12.9717,12.8794,12.7717,12.5986,12.4793,12.3909,12.2908,12.2216,12.1612,12.1612,12.1612,12.1612,12.1612,12.21,12.2793,12.3601,12.4409,12.5178,12.6421,12.7417,12.8105,12.8297,12.8907,12.94,12.95,12.8779,12.8206,12.821,12.7613,12.7104,12.6799,12.7079,12.7283,12.7109,12.6799,12.6415,12.5919,12.5682,12.5816,12.5898,12.6108,12.5703,12.4686,12.3397,12.2099,12.0895,11.9488,11.8709,11.8593,11.8789,11.8906,11.8906,11.8906,11.9218,11.9883,11.9218,11.9218,12.7012,12.9217,13.0102,12.8512,12.6794,12.4409,12.0408,11.7984,11.6099,11.4291,11.3984,11.4291,11.4984,11.5484,11.7111,12.1112,12.3216,12.6717,13.3603,13.668,14.0412,14.6182,14.699,14.799,15.0414,14.9798,14.9298,14.9413,14.9207,14.8221,14.6182,14.599,14.549,14.4399,14.5297,14.4913,14.2989,14.3797,14.3105,14.0719,14.0604,13.9681,13.8194,13.718,13.6296,13.5488,13.4795,13.391,13.2923,13.2179,13.1795,13.1679,13.1679,13.1179,13.0487,13.041,12.9294,12.7717,12.5986,12.4793,12.3793,12.2216,12.1689,12.1612,12.1612,12.1612,12.1612,12.1612,12.1689,12.1908,12.2793,12.3101,12.3716,12.6101,12.7306,12.8114,12.8883,12.9204,12.9279,12.9399,12.8691,12.7889,12.7319,12.7109,12.6492,12.4998,12.6078,12.6816,12.6099,12.6691,12.7109,12.7205,12.6796,12.6911,12.7696,12.7793,12.7101,12.5381,12.4381,12.2899,12.0714,12.0484,12.0087,11.9492,12.0312,12.0703,12.0703,12.0703,12.0703,12.0781,12.0703,12.0703,12.4716,12.7986,13.0102,12.8282,12.6205,12.3601,11.9908,11.7407,11.5291,11.3599,11.3599,11.4291,11.5099,11.5291,11.6176,11.8908,11.9408,12.1408,12.6717,12.9179,13.2795,13.9296,14.1912,14.4297,14.7413,14.7413,14.699,14.649,14.6399,14.5797,14.4182,14.6105,14.6297,14.4489,14.472,14.4105,14.2412,14.3181,14.3105,14.2104,14.1604,14.0796,13.9604,13.8181,13.6796,13.5488,13.5218,13.4295,13.3,13.2615,13.2192,13.1679,13.1679,13.1487,13.1102,13.0102,12.9294,12.8409,12.6217,12.4793,12.3909,12.2793,12.1985,12.1612,12.1612,12.1612,12.1612,12.1612,12.1612,12.1908,12.3293,12.4793,12.6294,12.7794,12.8909,12.9602,12.991,13.041,13.0615,13.0087,12.9792,12.9109,12.7889,12.772,12.7511,12.6884,12.6895,12.7302,12.7991,12.75,12.729,12.7912,12.7393,12.7317,12.7596,12.7695,12.7094,12.5298,12.4498,12.3203,12.1285,12.07,12.0381,12.0205,12.0519,12.0808,12.0898,12.0898,12.1211,12.1718,12.1093,12.1211,12.1908,12.5717,12.8294,12.7101,12.4909,12.2216,11.8985,11.6407,11.4214,11.2983,11.2983,11.3714,11.4984,11.5099,11.5484,11.71,11.7292,11.86,12.2408,12.4601,12.7986,13.3987,13.7603,14.0796,14.4182,14.5297,14.5297,14.4489,14.4412,14.4105,14.3489,14.549,14.5797,14.372,14.4091,14.3605,14.1912,14.2989,14.3412,14.3105,14.2297,14.1412,14.0489,13.8925,13.6988,13.5103,13.5103,13.418,13.2615,13.2615,13.2307,13.1679,13.1679,13.1679,13.1487,13.0102,12.941,12.8909,12.6601,12.5216,12.4293,12.3204,12.2485,12.1908,12.1689,12.1612,12.1612,12.1612,12.1997,12.2678,12.4101,12.6217,12.8089,12.8986,12.991,13.0602,13.0794,13.1295,13.1487,13.0987,13.0679,13.0101,12.8685,12.8196,12.7885,12.7515,12.7103,12.7307,12.8486,12.7688,12.7286,12.8206,12.7701,12.7214,12.6905,12.7017,12.6397,12.4715,12.4421,12.3405,12.1589,12.12,12.0989,12.0885,12.111,12.1283,12.1591,12.151,12.1907,12.2499,12.1913,12.1796,11.8985,12.2216,12.4216,12.4101,12.2216,11.9677,11.7111,11.4599,11.2714,11.2714,11.2088,11.2291,11.4791,11.4599,11.4599,11.6176,11.7984,11.9985,12.2524,12.5101,12.8306,13.25,13.5295,13.8181,14.1604,14.4182,14.5297,14.4489,14.4412,14.4412,14.4412,14.3605,14.2797,14.1989,14.3489,14.3605,14.1912,14.3605,14.3989,14.3105,14.2297,14.1412,14.0489,13.8925,13.668,13.4295,13.4295,13.3295,13.1679,13.1679,13.1679,13.1679,13.1679,13.1679,13.1602,13.0794,12.991,12.8986,12.7306,12.6101,12.5101,12.3408,12.2908,12.2716,12.1908,12.1612,12.1612,12.1612,12.2793,12.4293,12.5178,12.6601,12.8089,12.8986,12.991,13.0718,13.1487,13.1679,13.1679,13.1679,13.0987,13.0217,12.9294,12.8486,12.7294,12.5678,12.619,12.67,12.6818,12.6791,12.7196,12.8195,12.7512,12.6713,12.5776,12.5709,12.5107,12.3521,12.4188,12.3587,12.1412,12.2101,12.2311,12.1607,12.2304,12.2809,12.3086,12.3015,12.3082,12.3393,12.3393,12.3006,11.2599,11.6484,11.9408,11.76,11.7484,11.6907,11.3791,11.3291,11.3291,11.2088,11.2599,11.3599,11.4984,11.5099,11.5599,11.7907,11.8715,11.9792,12.1716,12.3716,12.6486,13.0794,13.6603,14.1181,14.3412,14.4297,14.422,14.2797,14.3181,14.3297,14.2681,14.2412,14.2412,14.2681,14.2681,14.2412,14.1912,14.2989,14.3105,14.2297,14.1989,14.1104,13.9719,13.7988,13.6411,13.5103,13.391,13.3115,13.2487,13.191,13.1679,13.1679,13.1679,13.141,13.0794,12.991,12.9102,12.8217,12.7101,12.6101,12.5293,12.4793,12.4216,12.3716,12.3408,12.2485,12.1677,12.2293,12.3716,12.5293,12.6717,12.7897,12.9102,13.0602,13.1102,13.141,13.1602,13.1679,13.1487,13.0987,13.1102,13.091,12.941,12.8986,12.8602,12.8102,12.7294,12.7087,12.8317,12.7393,12.7109,12.7903,12.6798,12.6098,12.6498,12.6007,12.5296,12.4208,12.3784,12.3094,12.1782,12.2592,12.3113,12.3004,12.3309,12.3512,12.3701,12.3102,12.2907,12.3113,12.3113,12.3112,10.7982,11.2022,11.5088,11.3791,11.4291,11.4407,11.2011,11.2291,11.2791,11.1703,11.2291,11.3407,11.4599,11.4791,11.5407,11.7407,11.7907,11.8792,12.0793,12.2293,12.5101,13.0294,13.5988,14.0296,14.2297,14.3105,14.2989,14.1989,14.2412,14.2412,14.1912,14.1604,14.1604,14.2104,14.1681,14.1412,14.1412,14.1912,14.2181,14.2297,14.1681,14.0796,13.9719,13.768,13.618,13.4988,13.3603,13.2808,0.0,13.191,13.1679,13.1679,13.1679,13.141,13.091,12.9987,12.9294,12.8717,12.7602,12.6794,12.6217,12.5601,12.4793,12.4216,12.4486,12.3601,12.2716,12.3601,12.5101,12.6601,12.7589,12.8986,13.0294,13.1102,13.1487,13.1679,13.1679,13.1679,13.1602,13.1102,13.141,13.141,13.0294,12.9602,12.9217,12.9217,12.7794,12.7178,12.8486,12.7486,12.6986,12.7782,12.6717,12.6212,12.6787,12.5797,12.4817,12.4013,12.3705,12.3186,12.2419,12.3292,12.3686,12.3513,12.3501,12.3388,12.3309,12.2905,12.2706,12.29,12.2783,12.288,0.0,10.828,11.1088,11.1791,11.2214,11.2088,11.128,11.128,0.0,11.1395,11.1395,11.1906,11.3714,11.3907,11.4291,11.5407,11.6187,11.7611,12.01,12.1485,12.469,13.141,13.4295,13.6719,13.9219,14.0912,14.1912,14.1797,14.1912,14.1912,14.1912,14.1104,14.0604,14.0489,14.0489,14.0412,14.0489,14.0489,14.1296,14.2797,14.1181,14.0412,14.0219,13.7796,13.5719,13.4218,13.3295,13.241,13.1679,13.1679,13.1679,13.1679,13.1679,13.1679,13.1487,13.0794,13.041,13.0102,12.8486,12.7897,12.7602,12.6101,12.4986,12.4486,12.5409,12.4986,12.4409,12.5293,12.6717,12.7897,12.8012,12.9794,13.141,13.0718,13.1179,13.1679,13.1679,13.1679,13.1679,13.1602,13.1602,13.1602,13.1487,13.0217,12.9102,12.9102,12.7717,12.6986,12.7717,12.7217,12.6986,12.7705,12.7101,12.669,12.669,12.5178,12.3917,12.3186,12.3891,12.4013,12.3197,12.4018,12.4095,12.3219,12.311,12.2682,12.2182,12.231,12.25,12.262,12.2498,12.251,9.9327,0.0,10.5597,10.5097,10.6905,10.8713,0.0,10.9098,11.0483,11.0483,11.0483,11.1214,11.3599,11.3483,11.4099,11.76,11.8407,11.9408,12.1908,12.5794,13.041,13.5911,13.768,13.9219,14.1104,14.1681,14.1604,14.0989,14.1489,14.1912,14.1912,14.1104,14.0296,13.9604,13.8988,13.8988,13.9604,13.9604,13.9796,14.0219,13.9181,13.8296,13.7603,13.5719,13.4295,13.3308,13.241,13.191,13.1679,13.1679,13.1679,13.1679,13.1679,13.1295,13.0794,13.0602,12.9717,12.8486,12.8012,12.7486,12.6986,12.7217,12.7217,12.7217,12.7986,12.6794,12.5409,12.6909,12.7217,12.7409,12.941,12.9794,13.0102,13.1179,13.1602,13.1679,13.1679,13.1679,13.1487,13.091,13.0794,13.0602,12.991,12.8909,12.8205,12.8205,12.7294,12.6806,12.6986,12.6794,12.6806,12.6986,12.6794,12.669,12.669,12.5678,12.4998,12.4803,12.4418,12.3814,12.299,12.3891,12.3908,12.3099,12.2988,12.2609,12.1907,12.1812,12.1889,12.2201,12.2085,12.231,9.7403,10.0596,10.3789,10.3289,10.5713,10.8021,10.7213,10.829,10.9483,10.9098,10.929,10.9983,11.1406,11.2214,11.3599,11.6292,11.7715,11.9792,12.3485,12.8102,13.2679,13.6988,13.8604,13.9796,14.1181,14.1681,14.1489,14.0681,14.1412,14.1912,14.1912,14.1104,14.0219,13.9296,13.8488,13.8296,13.8719,13.8719,13.8911,13.9296,13.8488,13.7603,13.668,13.5103,13.3795,13.3,13.2102,13.1679,13.1679,13.1679,13.1679,13.1679,13.1679,13.141,13.1102,13.1102,13.0217,12.8986,12.8602,12.7909,12.7294,12.7794,12.8217,12.8717,12.9487,12.8602,12.7217,12.7794,12.7909,12.7986,12.8602,12.9294,12.991,13.041,13.1102,13.1679,13.1679,13.1679,13.1487,13.0679,13.0487,13.0217,12.941,12.8794,12.8409,12.8012,12.7486,12.7101,12.6678,12.669,12.669,12.669,12.669,12.6486,12.6101,12.5678,12.5409,12.5409,12.4601,12.3909,12.3485,12.4314,12.4207,12.3002,12.259,12.2189,12.1821,12.1708,12.1695,12.1895,12.1815,12.1917,9.7442,10.0712,10.3789,10.3405,10.5905,10.829,10.729,10.7713,10.8213,10.7598,10.7905,10.8482,10.9213,11.1098,11.2983,11.4407,11.6715,12.01,12.4909,12.8909,13.2603,13.618,13.7911,13.9104,14.0104,14.0912,14.1104,14.0412,14.1181,14.1681,14.1681,14.0912,13.9989,13.9104,13.8296,13.7886,13.7886,13.7886,13.8181,13.8911,13.8104,13.7309,13.6411,13.4795,13.3603,13.2808,13.1987,13.1679,13.1679,13.1679,13.1679,13.1679,13.1679,13.1679,13.1679,13.1679,13.1102,13.0217,12.9294,12.8512,12.7897,12.8205,12.8794,12.9602,13.041,13.0217,12.941,12.8409,12.8512,12.8717,12.7409,12.8679,13.0102,12.9487,13.0602,13.1679,13.1679,13.1602,13.1295,13.0487,13.0217,12.9794,12.8986,12.8909,12.8717,12.7782,12.7782,12.7602,12.6794,12.669,12.669,12.669,12.6614,12.6178,12.5486,12.5178,12.5101,12.5216,12.4601,12.4216,12.4101,12.4601,12.4216,12.2716,12.1985,12.1697,12.1799,12.1697,12.1697,12.1788,12.1801,12.1793,9.8173,10.1212,10.3415,10.1222,10.3789,10.6405,10.4789,10.5097,10.5905,10.6521,10.6097,10.679,11.0395,11.1395,11.2896,11.6599,11.9408,12.2305,12.5998,12.8294,13.1102,13.5218,13.5911,13.668,13.8296,13.8604,13.8911,13.9488,14.0296,14.0796,14.0796,13.9989,13.9104,13.8296,13.7411,13.6988,13.6988,13.6988,13.7103,13.718,13.6296,13.5488,13.4603,13.368,13.2679,13.191,13.1795,13.1679,13.1679,13.1679,13.1679,13.1679,13.1679,13.1679,13.1679,13.1679,13.0718,12.9294,12.8397,12.8012,12.8089,12.9602,13.0217,13.0487,13.1295,13.141,13.0987,12.941,12.8602,12.8217,12.8717,12.9102,12.9602,13.0217,13.0987,13.1679,13.1679,13.1179,13.041,12.9602,12.8794,12.7986,12.7178,12.7602,12.7794,12.6986,12.7486,12.7602,12.6794,12.669,12.669,12.669,12.5986,12.5486,12.5409,12.4101,12.3601,12.4293,12.4909,12.4909,12.4101,12.2908,12.2112,12.1793,12.1689,12.1612,12.1597,12.1612,12.1612,12.1597,12.242,12.2716,9.725,9.9596,10.1722,10.0904,10.4597,10.829,10.7482,10.7213,10.729,10.7713,10.7405,10.7905,11.0291,11.1522,11.3714,11.8407,12.1677,12.4486,12.6986,12.8794,13.1295,13.5103,13.5911,13.6911,13.8604,13.8719,13.8911,13.9296,13.9719,13.9912,13.9912,13.9488,13.8911,13.8117,13.7309,13.6796,13.6796,13.5911,13.5911,13.6796,13.5911,13.5103,13.4295,13.341,13.2487,13.1679,13.1679,13.1679,13.1679,13.1679,13.1679,13.1679,13.1679,13.1679,13.1602,13.0718,12.991,12.8986,12.7717,12.7794,12.8717,12.8986,12.9987,13.1102,13.1102,13.141,13.141,13.0217,12.9294,12.8602,12.8486,12.8782,12.941,13.0294,13.1102,13.1679,13.1679,13.141,13.0794,12.9487,12.8909,12.8217,12.6909,12.7409,12.7602,12.6794,12.7409,12.7602,12.6794,12.669,12.669,12.669,12.5909,12.5216,12.4716,12.3601,12.3101,12.3408,12.3793,12.3909,12.3485,12.2293,12.1612,12.1612,12.1612,12.1793,12.2293,12.1793,12.1793,12.2293,12.2716,12.2908,9.6788,9.8442,10.0289,10.1404,10.4905,10.8406,10.9598,10.879,10.7982,10.8983,10.8983,10.929,11.0598,11.2714,11.5599,11.9908,12.3101,12.5794,12.7589,12.9217,13.141,13.4487,13.568,13.6796,13.8296,13.8604,13.8796,13.8988,13.8988,13.8988,13.8988,13.8988,13.8604,13.7796,13.7103,13.6796,13.6796,13.5295,13.5218,13.6488,13.5411,13.4603,13.3987,13.3103,13.2295,13.1679,13.1679,13.1679,13.1679,13.1679,13.1679,13.1679,13.1679,13.1679,13.1487,12.9794,12.9217,12.8986,12.7486,12.7794,12.8794,12.8409,12.9717,13.1295,13.0679,13.1102,13.1487,13.0718,12.991,12.8986,12.8409,12.8717,12.941,12.9987,13.0987,13.1602,13.1487,13.141,13.0987,12.9794,12.9217,12.8486,12.7178,12.7486,12.7602,12.6794,12.7409,12.7602,12.6794,12.6486,12.6421,12.6421,12.5409,12.4486,12.3601,12.2908,12.2601,12.2601,12.2601,12.2716,12.2908,12.2293,12.1908,12.1908,12.21,12.2485,12.3216,12.2485,12.2485,12.3216,12.3408,12.3485,9.8211,9.9336,10.0491,10.2097,10.2202,10.3212,10.7905,10.6482,10.5405,10.9301,10.9483,10.9598,11.2099,11.5907,11.9292,12.1189,12.2985,12.5101,12.7589,12.8717,13.0294,13.2923,13.391,13.4795,13.5719,13.6488,13.7296,13.8117,13.8194,13.8194,13.8194,13.8194,13.7796,13.6911,13.6796,13.6796,13.6796,13.5911,13.5488,13.5603,13.4,13.3115,13.3115,13.2179,13.1795,13.1679,13.1679,13.1679,13.1679,13.1679,13.1679,13.1679,13.1679,13.1679,13.1487,12.9794,12.9217,12.9102,12.8089,12.7897,12.8089,12.8909,12.9794,13.0602,13.0487,13.1102,13.1487,13.0718,12.991,12.9217,12.9102,12.9217,12.9217,12.9294,13.0487,13.1487,13.0718,13.0602,13.0602,13.041,12.9102,12.8012,12.7782,12.7897,12.7602,12.6794,12.7409,12.7602,12.6794,12.5986,12.5486,12.5486,12.3985,12.2716,12.192,12.1677,12.1689,12.1689,12.1689,12.21,12.2908,12.2781,12.2793,12.2793,12.3485,12.3985,12.3985,12.3985,12.3985,12.3985,12.4793,12.5216,9.7057,9.8634,10.0414,10.152,10.2404,10.3982,10.7982,10.879,10.9483,11.2714,11.3099,11.3214,11.4099,11.7292,12.0216,12.142,12.3485,12.5794,12.8409,12.8986,13.0102,13.2692,13.3295,13.3987,13.5411,13.5295,13.5795,13.718,13.6796,13.668,13.7309,13.7296,13.7103,13.6796,13.6296,13.5988,13.5988,13.4603,13.391,13.391,13.3308,13.3,13.3,13.2102,13.1679,13.1679,13.1679,13.1679,13.1679,13.1679,13.1679,13.1679,13.1679,13.1679,13.1487,12.9794,12.9217,12.8986,12.7602,12.7794,12.8717,12.8486,12.9717,13.1102,12.9987,13.0602,13.1487,13.0718,12.991,12.9294,12.991,12.9602,12.9487,13.0487,13.1218,13.1602,13.1295,13.1179,13.091,12.991,12.9217,12.8217,12.6601,12.6794,12.6909,12.5986,12.6601,12.6794,12.5986,12.6101,12.5794,12.4716,12.3601,12.2485,12.1689,12.1612,12.1612,12.1612,12.1612,12.1985,12.2908,12.2908,12.3101,12.3601,12.3909,12.4601,12.5678,12.4601,12.4716,12.5678,12.5486,12.5409,9.6365,9.775,9.9596,10.1019,10.2212,10.4212,10.8713,11.0588,11.2522,11.5792,11.6292,11.6099,11.6099,11.8407,12.0677,12.1793,12.4101,12.6601,12.8909,12.941,13.041,13.2423,13.2808,13.35,13.4603,13.4487,13.4795,13.5911,13.5488,13.5411,13.5988,13.6296,13.6296,13.5988,13.5719,13.5411,13.5103,13.368,13.3,13.3,13.2692,13.2615,13.2615,13.1987,13.1679,13.1679,13.1679,13.1679,13.1679,13.1679,13.1679,13.1679,13.1679,13.1679,13.1487,12.9794,12.9217,12.8986,12.7294,12.7486,12.8294,12.7717,12.8909,13.0294,12.9102,12.9794,13.0794,13.0217,12.9717,12.941,13.0294,12.9602,12.9217,13.091,13.1295,13.1218,13.0987,13.1102,13.091,12.9487,12.8794,12.7909,12.6101,12.5794,12.5678,12.5101,12.5486,12.5794,12.5409,12.5486,12.4909,12.3485,12.2793,12.2216,12.1689,12.1612,12.1612,12.1612,12.1908,12.2293,12.2908,12.3408,12.3909,12.4486,12.4986,12.5794,12.669,12.5986,12.6101,12.669,12.6601,12.6294,9.6519,9.6903,9.8134,10.0712,10.1279,10.3202,11.0011,11.1511,11.3022,11.81,11.8407,11.7792,11.7792,11.9215,12.0908,12.2601,12.4986,12.7294,12.8986,12.991,13.0794,13.1602,13.25,13.3,13.3,13.3795,13.4295,13.4295,13.4295,13.4295,13.4295,13.5103,13.5103,13.4295,13.5103,13.5103,13.4295,13.341,13.3,13.3,13.2102,13.1679,13.1679,13.1679,13.1679,13.1679,13.1679,13.1679,13.1679,13.1679,13.1679,13.1679,13.1679,13.1679,13.1487,12.9794,12.9217,12.8909,12.7294,12.669,12.669,12.669,12.7294,12.7897,12.7897,12.8512,12.9217,12.9217,12.9217,12.941,13.0294,12.9217,12.8409,13.0102,13.0487,13.0294,12.941,12.991,13.0294,12.941,12.7909,12.669,12.669,12.5293,12.4101,12.4101,12.4101,12.4409,12.5293,12.3909,12.2601,12.1677,12.1612,12.1612,12.1612,12.1612,12.1612,12.1612,12.2408,12.2908,12.2908,12.4486,12.5409,12.5409,12.7101,12.7486,12.669,12.8409,12.8294,12.6806,12.8409,12.8294,9.6365,9.7326,9.8865,10.0779,10.402,10.7598,11.1522,11.2791,11.4484,11.8985,11.9715,11.9408,11.8792,12.01,12.16,12.2716,12.4486,12.6601,12.8909,12.941,13.0102,13.1487,13.191,13.2102,13.2102,13.2295,13.2679,13.3295,13.341,13.368,13.4295,13.4487,13.4487,13.4295,13.4487,13.4218,13.341,13.3115,13.2692,13.2102,13.1795,13.1679,13.1679,13.1679,13.1679,13.1679,13.1679,13.1679,13.1679,13.1679,13.1679,13.1679,13.1679,13.141,13.0718,12.9602,12.8794,12.8102,12.7101,12.7101,12.7602,12.8294,12.8986,12.9717,12.9717,13.0294,13.0794,13.0294,13.0102,13.0217,13.041,12.9717,12.9217,13.091,13.1295,13.1295,13.0987,13.1179,13.091,12.9487,12.8294,12.6986,12.5216,12.4986,12.4601,12.3408,12.4793,12.5986,12.6294,12.4293,12.2985,12.3293,12.2293,12.1612,12.1612,12.1612,12.1612,12.1612,12.2908,12.3716,12.3716,12.4793,12.5678,12.6294,12.7409,12.7794,12.7486,12.8012,12.8012,12.7486,12.7486,12.7178,9.7211,9.8519,10.0519,10.3597,10.6905,11.0406,11.4407,11.5907,11.7292,12.0216,12.0485,12.0292,12.01,12.1216,12.2408,12.3216,12.5101,12.7101,12.8909,12.9487,13.0217,13.1487,13.1679,13.1679,13.1679,13.1679,13.191,13.241,13.25,13.2679,13.3218,13.3603,13.3603,13.3295,13.3603,13.341,13.25,13.25,13.2179,13.1679,13.1679,13.1679,13.1679,13.1679,13.1679,13.1679,13.1679,13.1679,13.1679,13.1679,13.1679,13.1679,13.1679,13.1179,13.041,12.9487,12.8589,12.7782,12.7294,12.7294,12.7602,12.8409,12.8986,12.9487,12.9487,12.9987,13.0602,13.0102,13.0217,13.041,13.0102,12.991,12.9987,13.0987,13.1179,13.1179,13.1179,13.1179,13.0794,12.9487,12.8217,12.6794,12.4909,12.4486,12.3909,12.2601,12.4293,12.5601,12.5216,12.4409,12.3793,12.3601,12.2716,12.1985,12.16,12.1612,12.1612,12.1612,12.3216,12.4101,12.4101,12.5601,12.6601,12.7217,12.7986,12.8205,12.7897,12.8205,12.8102,12.7409,12.7602,12.7294,9.8634,10.0019,10.252,10.7713,10.9983,11.2494,11.7984,11.9792,12.06,12.142,12.0997,12.0677,12.1497,12.2408,12.3204,12.3985,12.6217,12.8102,12.8986,12.9794,13.0679,13.1487,13.1679,13.1679,13.1679,13.1679,13.1679,13.1679,13.1679,13.1679,13.1679,13.25,13.2487,13.1679,13.25,13.25,13.1679,13.1679,13.1679,13.1679,13.1679,13.1679,13.1679,13.1679,13.1679,13.1679,13.1679,13.1679,13.1679,13.1679,13.1679,13.1602,13.1679,13.1102,13.0217,12.9487,12.8602,12.7782,12.7897,12.7409,12.6986,12.7794,12.8089,12.8217,12.8205,12.8794,12.941,12.941,12.9987,13.041,12.941,12.9794,13.0487,13.041,13.041,13.0487,13.0602,13.0602,13.0294,12.941,12.7986,12.6601,12.5601,12.4216,12.2985,12.2189,12.3293,12.3985,12.3293,12.4486,12.4793,12.3293,12.2985,12.2601,12.1804,12.16,12.1612,12.1612,12.3101,12.3985,12.4101,12.6486,12.7782,12.7897,12.8794,12.8794,12.8012,12.8794,12.8409,12.6998,12.8409,12.8294,9.9221,10.0106,10.1904,10.829,11.3599,11.7715,11.96,12.0677,12.142,12.1612,12.1497,12.142,12.1612,12.2793,12.3909,12.4101,12.5717,12.7217,12.8102,12.8909,12.9794,13.0679,13.1295,13.1679,13.1679,13.1679,13.1679,13.1679,13.1679,13.1679,13.1679,13.191,13.191,13.1679,13.191,13.191,13.1679,13.1679,13.1679,13.1679,13.1679,13.1679,13.1679,13.1679,13.1679,13.1679,13.1679,13.1679,13.1679,13.1679,13.1295,13.0794,13.1487,13.041,12.8512,12.8986,12.8217,12.6986,12.7717,12.7794,12.7909,12.941,12.991,13.0102,13.0718,13.0987,13.1179,13.1179,13.1295,13.1102,12.9602,12.9794,13.0294,12.9602,12.9987,13.0679,13.1295,13.141,13.0987,12.9487,12.8909,12.7986,12.5794,12.5678,12.5794,12.5613,12.5293,12.5293,12.5794,12.5601,12.5293,12.4909,12.3716,12.2793,12.2601,12.1985,12.1612,12.1612,12.2601,12.3408,12.4101,12.5909,12.7294,12.7897,12.8794,12.9102,12.8909,12.9102,12.8986,12.8717,12.8282,12.7986,9.9413,10.1299,10.4299,11.1906,11.6215,11.8908,12.0485,12.0997,12.11,12.1485,12.1908,12.2216,12.2216,12.3601,12.4716,12.4716,12.6217,12.7602,12.8409,12.9294,13.0102,13.0987,13.141,13.1679,13.1679,13.1679,13.1679,13.1679,13.1679,13.1679,13.1679,13.1679,13.1679,13.1679,13.1679,13.1679,13.1679,13.1679,13.1679,13.1679,13.1679,13.1679,13.1679,13.1679,13.1679,13.1679,13.1679,13.1679,13.1679,13.1679,13.1487,13.1102,13.1487,13.041,12.8602,12.8986,12.8102,12.6921,12.8102,12.8205,12.8217,12.991,13.0487,13.0602,13.0987,13.141,13.1679,13.1679,13.1679,13.141,13.0102,12.9794,12.9794,12.9294,12.991,13.0718,13.1487,13.1679,13.141,13.0602,13.0102,12.9102,12.6986,12.5986,12.5486,12.5486,12.5409,12.5601,12.5986,12.5986,12.5909,12.5409,12.4216,12.3293,12.2897,12.21,12.1612,12.1612,12.2408,12.3101,12.3485,12.5178,12.6717,12.7897,12.8794,12.9217,12.9217,12.9217,12.8986,12.8602,12.8512,12.8282,9.899,10.2712,10.779,11.5484,11.7715,11.86,12.0677,12.0677,12.0485,12.1177,12.21,12.2716,12.2716,12.3985,12.5216,12.5216,12.6717,12.8217,12.8909,12.991,13.0718,13.141,13.1602,13.1679,13.1679,13.1679,13.1679,13.1679,13.1679,13.1679,13.1679,13.1679,13.1679,13.1679,13.1679,13.1679,13.1679,13.1679,13.1679,13.1679,13.1679,13.1679,13.1679,13.1679,13.1679,13.1679,13.1679,13.1679,13.1679,13.1679,13.1602,13.1487,13.1602,13.0718,12.9217,12.941,12.8486,12.7409,12.8909,12.8986,12.8602,13.0217,13.0679,13.0679,13.0679,13.1179,13.1679,13.1679,13.1679,13.1487,13.0487,12.9717,12.9217,12.8986,12.9602,13.0487,13.1295,13.1602,13.1602,13.1295,13.0487,12.941,12.8089,12.6024,12.4486,12.4486,12.5178,12.5601,12.5601,12.6306,12.6409,12.5678,12.4793,12.3985,12.3216,12.2293,12.1804,12.1612,12.2293,12.2793,12.3101,12.4409,12.5986,12.7717,12.8486,12.8986,12.9217,12.8986,12.8794,12.8409,12.8909,12.8794,9.7365,10.3597,11.0493,11.4599,11.7292,11.8985,11.9408,11.9908,12.0292,12.0408,12.1177,12.1804,12.1804,12.3101,12.4293,12.4293,12.6281,12.7897,12.8102,12.9487,13.0487,13.0602,13.1295,13.1679,13.1679,13.1679,13.1679,13.1679,13.1679,13.1679,13.1679,13.1679,13.1679,13.1679,13.1679,13.1679,13.1679,13.1679,13.1679,13.1679,13.1679,13.1679,13.1679,13.1679,13.1679,13.1679,13.1679,13.1679,13.1679,13.1679,13.1295,13.0718,13.141,13.0718,12.9294,12.9987,12.9717,12.8986,12.9987,13.0294,13.0294,13.1179,13.1487,13.1487,13.1487,13.1602,13.1679,13.1679,13.1679,13.1295,12.9794,12.9294,12.8986,12.8294,12.8705,12.9602,13.0487,13.1179,13.1295,12.9794,12.8294,12.7409,12.7782,12.6986,12.6421,12.6421,12.6498,12.6486,12.6486,12.6601,12.669,12.6486,12.5678,12.4909,12.3985,12.3216,12.2408,12.16,12.1677,12.2408,12.3909,12.4216,12.5101,12.6794,12.7717,12.8397,12.9217,12.8397,12.8794,13.0102,12.9487,12.9102,9.9365,10.3789,10.8598,11.3994,11.6099,11.7292,11.8792,11.9715,12.0292,12.0292,12.0985,12.1677,12.2216,12.3716,12.4793,12.4793,12.6986,12.8602,12.8602,12.9717,13.0487,13.0487,13.0794,13.0794,13.0294,13.1102,13.1487,13.1102,13.141,13.1679,13.1679,13.1679,13.1679,13.1679,13.1679,13.1679,13.1679,13.1679,13.1679,13.1679,13.1679,13.1679,13.1679,13.1679,13.1679,13.1679,13.1679,13.1679,13.1679,13.1679,13.1487,13.1179,13.1602,13.0987,12.9987,13.041,12.991,12.9294,12.9602,12.9794,12.991,13.0794,13.0987,13.1102,13.1602,13.1679,13.1679,13.1679,13.141,13.091,13.0102,12.9217,12.8486,12.8602,12.8512,12.8717,12.9602,13.041,13.0679,12.941,12.8217,12.7486,12.7782,12.7602,12.7217,12.6806,12.7101,12.7217,12.6806,12.669,12.669,12.669,12.5909,12.4986,12.4216,12.3408,12.2485,12.1689,12.1612,12.21,12.3408,12.3909,12.4716,12.5909,12.7217,12.8089,12.8486,12.8602,12.8794,12.8986,12.9217,12.9217,9.9442,10.2097,10.4982,11.1406,11.3714,11.4984,11.76,11.8908,11.9715,11.9908,12.0677,12.1485,12.2408,12.3909,12.5101,12.5101,12.7217,12.8909,12.8909,12.9602,13.0217,13.0217,13.0217,12.991,12.9294,13.0294,13.091,13.0487,13.1102,13.1487,13.1679,13.1679,13.1679,13.1679,13.1679,13.1679,13.1679,13.1679,13.1679,13.1679,13.1679,13.1679,13.1679,13.1679,13.1679,13.1679,13.1679,13.1679,13.1679,13.1679,13.1679,13.1679,13.1679,13.1179,13.0487,13.0487,12.991,12.9217,12.9217,12.9217,12.9294,13.0217,13.0487,13.0679,13.1487,13.1602,13.141,13.1602,13.1102,13.041,13.0217,12.941,12.8602,12.8602,12.8409,12.8397,12.9102,12.9487,12.9717,12.9294,12.8486,12.8012,12.8217,12.8205,12.7986,12.7101,12.7486,12.7602,12.6794,12.669,12.669,12.669,12.5909,12.4986,12.4216,12.3408,12.2485,12.1689,12.1793,12.2293,12.3216,12.3985,12.4793,12.5678,12.6986,12.7602,12.7602,12.8217,12.8294,12.7897,12.8602,12.8909,9.4681,9.722,10.0404,10.5597,10.928,11.2406,11.4907,11.6792,11.8215,11.8985,11.9792,12.06,12.1485,12.2985,12.4216,12.4216,12.6294,12.8012,12.8012,12.8705,12.9294,12.9294,12.9294,12.9217,12.9217,12.9294,12.9717,13.041,13.0487,13.091,13.1679,13.1679,13.1679,13.1679,13.1679,13.1679,13.1679,13.1679,13.1679,13.1679,13.1679,13.1679,13.1679,13.1679,13.1679,13.1679,13.1679,13.1679,13.1679,13.1679,13.1679,13.1679,13.1679,13.1179,13.0487,13.0487,12.991,12.9217,12.9217,12.9217,12.9294,13.0217,13.0487,13.0679,13.1487,13.1179,13.0718,13.1487,13.1102,13.0294,12.9487,12.9794,12.9794,12.7409,12.7986,12.9102,12.9217,12.8602,12.8282,12.8986,12.8486,12.8217,12.8986,12.9102,12.8794,12.8012,12.7897,12.7602,12.6794,12.669,12.669,12.669,12.5909,12.4986,12.4216,12.3408,12.2485,12.1689,12.2408,12.3216,12.3985,12.4909,12.5678,12.6601,12.6678,12.6806,12.6806,12.6806,12.7217,12.7897,12.7897,12.8012,9.5288,9.6865,9.9058,10.3712,10.6521,10.8703,11.0714,11.3407,11.5792,11.71,11.86,11.9985,12.1293,12.2985,12.4101,12.4101,12.6205,12.8089,12.8717,12.8512,12.8602,12.9102,12.9217,12.8794,12.7678,12.9487,13.0294,12.8909,13.0294,13.1179,13.091,13.141,13.1679,13.1679,13.1679,13.1679,13.1679,13.1679,13.1679,13.1679,13.1679,13.1679,13.1679,13.1679,13.1679,13.1679,13.1679,13.1679,13.1679,13.1679,13.1679,13.1679,13.1679,13.1487,13.1179,13.0679,13.0602,13.0679,12.9602,12.9602,13.0102,13.041,13.0487,13.0679,13.1487,13.1487,13.1295,13.1602,13.1102,13.041,13.0102,12.991,12.941,12.8486,12.8794,12.8986,12.8486,12.7717,12.7217,12.7486,12.7294,12.7409,12.8217,12.8409,12.8282,12.7897,12.7897,12.7602,12.6794,12.669,12.6486,12.5909,12.5601,12.4793,12.3408,12.3101,12.2485,12.1689,12.2408,12.3293,12.4101,12.4909,12.5794,12.669,12.669,12.669,12.669,12.669,12.6794,12.7101,12.7101,12.7409,9.4711,9.5826,9.7673,10.1981,10.3905,10.552,10.8598,11.0906,11.2983,11.561,11.6984,11.8407,12.0408,12.21,12.3408,12.3985,12.5794,12.7409,12.8217,12.7909,12.7717,12.8294,12.8409,12.7909,12.6806,12.8986,12.9794,12.8397,13.0217,13.1179,13.091,13.141,13.1679,13.1679,13.1679,13.1679,13.1679,13.1679,13.1679,13.1679,13.141,13.141,13.1679,13.1102,13.1179,13.1679,13.141,13.1295,13.1295,13.1295,13.1295,13.1295,13.1295,13.1102,13.0794,13.0602,13.0487,13.0294,12.9487,12.9602,13.0102,13.041,13.0294,13.0294,13.141,13.1295,13.0987,13.1487,13.1102,13.0487,13.0487,12.991,12.9217,12.9217,12.8986,12.8602,12.8012,12.7294,12.6806,12.7101,12.7294,12.7717,12.8217,12.8602,12.8602,12.8012,12.7897,12.7602,12.6794,12.669,12.6486,12.5909,12.5293,12.4486,12.3408,12.2793,12.2293,12.21,12.2793,12.3716,12.4486,12.5409,12.6101,12.669,12.669,12.669,12.669,12.669,12.669,12.669,12.669,12.7101,0.0,0.0,0.0,10.0087,10.1202,10.2702,10.8482,10.929,10.9906,11.4214,11.5187,11.5984,11.86,12.0408,12.21,12.3716,12.4793,12.5678,12.6614,12.669,12.669,12.6678,12.6678,12.6678,12.669,12.7486,12.8282,12.9102,12.9987,13.0794,13.1602,13.1679,13.1679,13.1679,13.1679,13.1679,13.1679,13.1679,13.1679,13.1679,13.091,13.091,13.1602,12.9987,13.0102,13.1602,13.0794,13.0487,13.0487,13.0487,13.0487,13.0487,13.0487,12.9987,12.9294,13.0217,12.941,12.8089,12.8909,12.9217,12.941,13.0294,12.991,12.9487,13.1179,13.0602,12.9602,13.1218,13.1102,13.0487,13.0487,12.991,12.9217,12.9217,12.8602,12.7897,12.7897,12.7294,12.6909,12.7717,12.8602,12.9217,12.9217,12.991,12.9794,12.8217,12.7897,12.7602,12.6794,12.669,12.669,12.669,12.5101,12.4101,12.4101,12.2601,12.1985,12.2908,12.3716,12.4486,12.5409,12.6178,12.669,12.669,12.669,12.669,12.669,12.669,12.669,12.6678,12.6678,12.7178,9.321,0.0,0.0,0.0,0.0,0.0,10.1597,10.3212,10.5482,10.979,11.1714,11.3714,11.7484,11.91,12.01,12.1216,12.3601,12.5678,12.6614,12.669,12.6909,12.7486,12.7602,12.7294,12.6806,12.7986,12.8717,12.8282,12.9102,12.991,13.0794,13.141,13.1679,13.1679,13.1679,13.1679,13.1679,13.1679,13.1679,13.1679,13.091,13.0602,13.0794,12.9717,12.9794,13.0794,13.0602,13.0487,13.0487,13.0487,13.0794,13.1295,13.0718,13.041,13.0217,13.041,13.0217,12.9794,13.0102,13.0102,13.0294,13.1102,13.0794,13.0294,13.141,13.141,13.1102,13.1602,13.1487,13.1179,13.0679,13.0294,13.0102,13.0102,12.8986,12.8089,12.8717,12.7717,12.6806,12.6986,12.7717,12.8282,12.8282,12.8486,12.8486,12.8012,12.7409,12.6986,12.6678,12.669,12.6498,12.5794,12.5293,12.4793,12.4216,12.3716,12.3485,12.3793,12.4601,12.5101,12.5409,12.6178,12.669,12.669,12.669,12.669,12.669,12.669,12.6986,12.7602,12.7602,12.7717,9.3681,9.4595,9.5826,9.7057,0.0,0.0,9.9981,10.0981,10.2904,10.7482,10.9483,11.1522,11.5011,11.6984,11.8215,11.86,12.16,12.4178,12.5409,12.6178,12.6986,12.7782,12.7897,12.7717,12.7217,12.8102,12.8397,12.7897,12.8986,13.0102,13.0987,13.141,13.1679,13.1679,13.1679,13.1679,13.1679,13.1679,13.1679,13.1679,13.0487,13.0294,13.091,12.8986,12.9179,13.0987,13.0294,13.041,13.0987,13.0602,13.0794,13.1179,13.0679,13.0487,13.0487,13.091,13.0794,13.0487,13.091,13.0987,13.1102,13.1487,13.091,13.0102,13.091,13.0718,13.0294,13.0987,13.1179,13.0987,13.0217,12.9987,12.9987,12.9987,12.8909,12.8089,12.8986,12.7909,12.669,12.669,12.7294,12.7794,12.7486,12.7717,12.7794,12.7409,12.6986,12.669,12.669,12.669,12.6486,12.5986,12.5601,12.5216,12.4716,12.4293,12.4293,12.4601,12.5101,12.5601,12.5909,12.6409,12.669,12.669,12.669,12.6921,12.7217,12.6921,12.7101,12.7897,12.8282,12.8397,9.421,9.5172,9.6788,9.8288,9.7673,0.0,10.1212,10.0991,10.1299,10.6097,10.7713,10.8983,11.1791,11.4214,11.5792,11.5907,11.8804,12.1677,12.3716,12.5486,12.6909,12.7717,12.7794,12.7794,12.7794,12.7794,12.7782,12.7897,12.9487,13.0794,13.141,13.1602,13.1679,13.1679,13.1679,13.1679,13.1602,13.1679,13.1679,13.1487,12.9987,12.9987,13.1295,12.8179,12.8486,13.1295,12.991,13.0217,13.1602,13.091,13.0602,13.0602,13.0487,13.0487,13.0602,13.141,13.1179,13.0602,13.141,13.1602,13.1602,13.1602,13.0602,12.9487,13.0217,12.9294,12.8486,13.0102,13.0487,13.0294,12.941,12.9102,12.9102,12.9102,12.8409,12.8012,12.8909,12.7794,12.669,12.669,12.7294,12.7589,12.6794,12.7409,12.7602,12.6794,12.669,12.669,12.669,12.669,12.669,12.669,12.5986,12.5486,12.5486,12.4793,12.4716,12.5486,12.5486,12.5909,12.669,12.669,12.669,12.669,12.669,12.7101,12.7897,12.7294,12.7294,12.8089,12.8909,12.9294,9.6019,9.6519,9.7326,9.7673,9.8557,0.0,9.8634,9.8788,9.9904,10.2981,10.3712,10.4982,10.8906,11.0598,11.1714,11.2406,11.5291,11.8792,12.2601,12.4601,12.5986,12.6794,12.6909,12.6909,12.6909,12.6909,12.7217,12.7897,12.9487,13.0294,12.9717,13.0987,13.1679,13.1679,13.1679,13.141,13.0718,13.141,13.141,13.0718,12.9717,12.941,12.9602,12.8294,12.8409,12.9717,13.0102,13.0794,13.1679,13.1487,13.1487,13.141,13.0794,13.0487,13.0602,13.141,13.1179,13.0602,13.141,13.1295,13.0718,13.0718,13.0487,13.0102,12.9602,12.9717,13.0102,13.041,13.0487,13.0294,12.941,12.8717,12.8217,12.8217,12.7486,12.7178,12.7986,12.7409,12.669,12.669,12.7294,12.7589,12.6794,12.7409,12.7602,12.6794,12.669,12.669,12.669,12.669,12.669,12.669,12.6486,12.6409,12.6409,12.6294,12.6306,12.6409,12.6409,12.6486,12.669,12.669,12.669,12.669,12.669,12.7101,12.7897,12.8409,12.8794,12.8986,12.9794,13.0217,9.6865,9.7211,9.825,9.8673,9.8788,0.0,0.0,9.875,9.8981,10.202,10.2289,10.302,10.6405,10.8098,10.9406,11.0598,11.3714,11.6803,11.9292,12.2293,12.4601,12.5909,12.6101,12.6101,12.6101,12.6409,12.6986,12.7782,12.9102,12.991,12.9794,13.0987,13.1679,13.1679,13.1679,13.1487,13.1102,13.1102,13.1102,13.1102,12.941,12.8986,12.9794,12.8102,12.8217,12.9794,12.991,13.0602,13.1679,13.1679,13.1679,13.1679,13.1295,13.1102,13.1102,13.1602,13.141,13.1179,13.1602,13.141,13.0987,13.0602,13.0217,12.9794,12.9294,12.9794,13.0487,13.0487,13.0217,12.9794,12.9294,12.8294,12.7409,12.7782,12.7294,12.6909,12.7705,12.7294,12.669,12.669,12.6986,12.7217,12.6806,12.6986,12.7217,12.6806,12.669,12.669,12.669,12.669,12.669,12.669,12.669,12.669,12.669,12.669,12.669,12.669,12.669,12.669,12.669,12.669,12.669,12.669,12.669,12.7101,12.7897,12.8282,12.8986,12.991,13.0718,13.1102,9.8365,9.8634,9.9827,9.999,9.9404,9.9096,0.0,0.0,0.0,10.1481,10.1597,10.1712,10.3982,10.5713,10.729,10.9213,11.2214,11.4687,11.5599,11.8985,12.2216,12.4216,12.4601,12.4678,12.4678,12.519,12.5909,12.7089,12.7986,12.8909,12.991,13.1102,13.1602,13.1487,13.1602,13.1602,13.1487,13.0794,13.0794,13.141,12.9217,12.8909,13.0217,12.8294,12.8486,13.0217,12.9794,13.041,13.1679,13.1679,13.1602,13.1487,13.1602,13.1679,13.1679,13.1679,13.1679,13.1679,13.1679,13.1679,13.1602,13.0794,12.991,12.9217,12.9217,12.9717,13.0217,13.0217,12.9602,12.8909,12.8909,12.7794,12.6921,12.7486,12.7217,12.6921,12.7486,12.7178,12.669,12.669,12.669,12.669,12.669,12.669,12.669,12.669,12.669,12.669,12.669,12.669,12.669,12.669,12.669,12.669,12.669,12.669,12.669,12.669,12.669,12.669,12.669,12.669,12.669,12.669,12.669,12.7101,12.7897,12.7897,12.8794,13.0487,13.1179,13.1487,10.2597,10.2597,10.2789,10.0606,10.1597,10.2481,9.9712,0.0,9.9913,10.0298,0.0,10.0481,10.151,0.0,0.0,10.6395,10.9098,11.1291,11.2906,11.4907,11.7292,12.0485,12.16,12.1985,12.1985,12.1408,12.1985,12.4409,12.5293,12.6486,12.8089,13.041,13.141,13.0679,13.1295,13.141,13.0602,13.0487,13.0487,13.0602,12.9602,12.9217,12.941,12.9794,12.9794,12.941,13.0794,13.1487,13.1679,13.1679,13.1295,13.0679,13.141,13.1679,13.1679,13.1679,13.1679,13.1679,13.1679,13.1679,13.1602,13.0794,12.991,12.9217,12.9217,12.9294,12.9294,12.9294,12.8705,12.8012,12.8012,12.7409,12.6678,12.6794,12.6806,12.6678,12.6794,12.6806,12.669,12.669,12.669,12.669,12.669,12.669,12.669,12.669,12.669,12.669,12.669,12.669,12.669,12.669,12.669,12.669,12.669,12.669,12.669,12.669,12.669,12.669,12.669,12.669,12.669,12.669,12.669,12.7101,12.7897,12.7897,12.8794,13.0487,13.0602,13.0602,10.3212,10.3905,10.4713,10.2212,10.2404,10.2481,10.0106,9.8673,9.8173,9.9144,0.0,0.0,0.0,0.0,0.0,0.0,10.8213,11.0291,11.0483,11.2406,11.4907,11.7792,11.8419,11.9188,12.0677,12.01,12.0485,12.2485,12.3485,12.4716,12.6409,12.8409,12.9602,12.9717,13.0602,13.0794,13.0487,13.0487,13.0718,13.1179,12.9794,12.9487,12.991,12.9794,12.9794,12.9987,13.0718,13.1295,13.1679,13.1179,13.0794,13.0487,13.091,13.0987,13.1102,13.1487,13.1679,13.1679,13.1679,13.1679,13.1602,13.0794,13.0294,12.9987,12.9987,12.9987,13.0102,13.0487,12.9294,12.8012,12.8512,12.7717,12.669,12.669,12.669,12.669,12.669,12.669,12.669,12.669,12.669,12.669,12.669,12.669,12.669,12.669,12.669,12.669,12.669,12.669,12.669,12.669,12.669,12.669,12.669,12.669,12.669,12.669,12.669,12.669,12.669,12.669,12.669,12.669,12.669,12.6921,12.7217,12.7217,12.7794,12.8986,12.9487,12.9717,10.4212,10.529,10.629,10.3097,10.2404,10.202,9.9875,9.8673,9.825,9.8981,9.9096,0.0,0.0,0.0,10.3097,10.5405,0.0,10.9406,10.8983,11.0483,11.2483,11.4907,11.5715,11.6995,11.91,11.8292,11.86,12.0804,12.1293,12.2408,12.4601,12.6486,12.7909,12.8486,12.9794,13.0487,13.0487,13.0487,13.0794,13.141,13.0102,12.9794,13.0102,12.9987,13.0102,13.0487,13.0718,13.1179,13.1679,13.1102,13.0679,13.0487,13.0718,13.0679,13.0602,13.141,13.1679,13.1679,13.1679,13.1679,13.1487,13.0487,13.0294,13.041,12.991,12.9987,13.0294,13.091,12.9487,12.8012,12.8717,12.7794,12.669,12.669,12.669,12.669,12.669,12.669,12.669,12.669,12.669,12.669,12.669,12.669,12.669,12.669,12.669,12.669,12.669,12.669,12.669,12.669,12.669,12.669,12.669,12.669,12.6806,12.6986,12.6986,12.7101,12.7409,12.7409,12.7294,12.6986,12.6986,12.6986,12.6986,12.6794,12.7101,12.7897,12.8512,12.8782,10.7203,10.7521,10.7598,10.2587,10.202,10.1712,9.8365,10.0096,10.1981,10.0414,10.3289,10.5587,10.4097,10.4405,10.5607,10.729,10.7713,0.0,0.0,10.8983,10.9713,11.1522,11.3791,11.5687,11.6484,11.5099,11.5599,11.8908,11.8407,11.9396,12.2793,12.5409,12.6806,12.6806,12.9179,13.0487,13.0487,13.0487,13.0487,13.0487,13.0487,12.9987,12.9294,13.091,13.1179,13.0487,13.1295,13.1679,13.1679,13.1679,13.1179,13.0602,13.141,13.1179,13.0602,13.141,13.1679,13.1679,13.1679,13.1679,13.141,12.9794,12.9794,13.0217,12.8486,12.8602,12.9217,12.9294,12.8602,12.7897,12.7897,12.7294,12.669,12.669,12.669,12.669,12.669,12.669,12.669,12.669,12.669,12.669,12.669,12.669,12.669,12.669,12.669,12.669,12.669,12.669,12.669,12.669,12.669,12.669,12.669,12.669,12.6986,12.7782,12.7897,12.8205,12.9102,12.9102,12.8717,12.7897,12.7897,12.7897,12.7897,12.7101,12.7101,12.7897,12.7897,12.7897,10.9213,11.0598,11.1098,10.5895,10.4895,10.3895,9.9404,10.0096,10.1289,9.9596,10.2212,10.4405,10.3289,10.4212,10.5482,10.6713,10.779,10.8406,0.0,10.8098,10.8713,11.0406,11.2406,11.3714,11.3984,11.4484,11.5291,11.6484,11.6792,11.7907,12.0292,12.2793,12.4409,12.4986,12.7486,12.8794,12.8794,12.941,12.9602,12.9602,12.9602,12.9794,13.0102,13.0602,13.0794,13.0487,13.141,13.141,13.091,13.091,13.0718,13.0487,13.0794,13.0718,13.0602,13.141,13.1679,13.1679,13.1679,13.1679,13.1602,13.0987,13.1102,13.1179,13.0602,13.0217,13.0217,13.0718,12.941,12.8012,12.8602,12.7717,12.669,12.669,12.669,12.669,12.669,12.669,12.669,12.669,12.669,12.669,12.669,12.669,12.669,12.669,12.669,12.669,12.669,12.669,12.669,12.669,12.669,12.669,12.669,12.7217,12.7602,12.7897,12.8397,12.8909,12.9217,12.9217,12.9102,12.8794,12.8794,12.8794,12.8794,12.7909,12.7602,12.7897,12.7409,12.7101,11.1714,11.2983,11.3483,10.929,10.8203,10.6905,10.1789,10.2597,10.3789,10.1481,10.3482,10.579,10.6097,10.629,10.6713,10.7598,10.8406,10.8482,0.0,10.7521,10.829,10.9983,11.1406,11.2588,11.3483,11.3791,11.4291,11.5215,11.5215,11.5984,11.81,12.06,12.2485,12.3601,12.6101,12.7602,12.7897,12.8794,12.8986,12.8705,12.9102,12.9487,12.9987,13.041,13.0679,13.0987,13.1487,13.141,13.091,13.091,13.091,13.091,13.091,13.091,13.0987,13.1487,13.1679,13.1679,13.1679,13.1679,13.1679,13.141,13.1295,13.1179,13.0487,13.041,13.0487,13.041,12.941,12.8397,12.8717,12.7717,12.669,12.669,12.669,12.669,12.669,12.669,12.669,12.669,12.669,12.669,12.669,12.669,12.669,12.669,12.669,12.669,12.669,12.669,12.669,12.669,12.669,12.6794,12.7101,12.7602,12.8217,12.8794,12.941,12.9794,13.0102,13.0102,12.9987,12.9717,12.9717,12.9717,12.9717,12.8794,12.8409,12.8282,12.7486,12.6986]}]]